[[{"header":{"parameterUnit":"m.s-1","parameterCategory":1,"la1":31.0,"la2":29.5877,"lo1":-88.7671,"lo2":-86.6584,"dy":0.0162,"dx":0.0185,"nx":115,"ny":88,"refTime":"2026-03-04T12:00:00:Z","depth":0,"parameterNumber":2,"parameterNumberName":"U-component_of_WINDS"},"data":[0.0,0.0,0.0,0.0,0.0,0.0,0.0,0.0,0.0,0.0,0.0,0.0,0.0,0.0,0.0,0.0,0.0,0.0,0.0,0.0,0.0,0.0,0.0,0.0,0.0,0.0,0.0,0.0,0.0,0.0,0.0,0.0,0.0,0.0,0.0,0.0,0.0,0.0,0.0,0.0,0.0,0.0,0.0,0.0,0.0,0.0,0.0,0.0,0.0,0.0,0.0,0.0,0.0,0.0,0.0,0.0,0.0,0.0,0.0,0.0,0.0,0.0,0.0,0.0,0.0,0.0,0.0,0.0,0.0,0.0,0.0,0.0,0.0,0.0,0.0,0.0,0.0,0.0,0.0,0.0,0.0,0.0,0.0,0.0,0.0,0.0,0.0,0.0,0.0,0.0,0.0,0.0,0.0,0.0,0.0,0.0,0.0,0.0,0.0,0.0,0.0,0.0,0.0,0.0,0.0,0.0,0.0,0.0,0.0,0.0,0.0,0.0,0.0,0.0,0.0,0.0,0.0,0.0,0.0,0.0,0.0,0.0,0.0,0.0,0.0,0.0,0.0,0.0,0.0,0.0,0.0,0.0,0.0,0.0,0.0,0.0,0.0,0.0,0.0,0.0,0.0,0.0,0.0,0.0,0.0,0.0,0.0,0.0,0.0,0.0,0.0,0.0,0.0,0.0,0.0,0.0,0.0,0.0,0.0,0.0,0.0,0.0,0.0,0.0,0.0,0.0,0.0,0.0,0.0,0.0,0.0,0.0,0.0,0.0,0.0,0.0,0.0,0.0,0.0,0.0,0.0,0.0,0.0,0.0,0.0,0.0,0.0,0.0,0.0,0.0,0.0,0.0,0.0,0.0,0.0,0.0,0.0,0.0,0.0,0.0,0.0,0.0,0.0,0.0,0.0,0.0,0.0,0.0,0.0,0.0,0.0,0.0,0.0,0.0,0.0,0.0,0.0,0.0,0.0,0.0,0.0,0.0,0.0,0.0,0.0,0.0,0.0,0.0,0.0,0.0,0.0,0.0,0.0,0.0,0.0,0.0,0.0,0.0,0.0,0.0,0.0,0.0,0.0,0.0,0.0,0.0,0.0,0.0,0.0,0.0,0.0,0.0,0.0,0.0,0.0,0.0,0.0,0.0,0.0,0.0,0.0,0.0,0.0,0.0,0.0,0.0,0.0,0.0,0.0,0.0,0.0,0.0,0.0,0.0,0.0,0.0,0.0,0.0,0.0,0.0,0.0,0.0,0.0,0.0,0.0,0.0,0.0,0.0,0.0,0.0,0.0,0.0,0.0,0.0,0.0,0.0,0.0,0.0,0.0,0.0,0.0,0.0,0.0,0.0,0.0,0.0,0.0,0.0,0.0,0.0,0.0,0.0,0.0,0.0,0.0,0.0,0.0,0.0,0.0,0.0,0.0,0.0,0.0,0.0,0.0,0.0,0.0,0.0,0.0,0.0,0.0,0.0,0.0,0.0,0.0,0.0,0.0,0.0,0.0,0.0,0.0,0.0,0.0,0.0,0.0,0.0,0.0,0.0,0.0,0.0,0.0,0.0,0.0,0.0,0.0,0.0,0.0,0.0,0.0,0.0,0.0,0.0,0.0,0.0,0.0,0.0,0.0,0.0,0.0,0.0,0.0,0.0,0.0,0.0,0.0,0.0,0.0,0.0,0.0,0.0,0.0,0.0,0.0,0.0,0.0,0.0,0.0,0.0,0.0,0.0,0.0,0.0,0.0,0.0,0.0,0.0,0.0,0.0,0.0,0.0,0.0,0.0,0.0,0.0,0.0,0.0,0.0,0.0,0.0,0.0,0.0,0.0,0.0,0.0,0.0,0.0,0.0,0.0,0.0,0.0,0.0,0.0,0.0,0.0,0.0,0.0,0.0,0.0,0.0,0.0,0.0,0.0,0.0,0.0,0.0,0.0,0.0,0.0,0.0,0.0,0.0,0.0,0.0,0.0,0.0,0.0,0.0,0.0,0.0,0.0,0.0,0.0,0.0,0.0,0.0,0.0,0.0,0.0,0.0,0.0,0.0,0.0,0.0,0.0,0.0,0.0,0.0,0.0,0.0,0.0,0.0,0.0,0.0,0.0,0.0,0.0,0.0,0.0,0.0,0.0,0.0,0.0,0.0,0.0,0.0,0.0,0.0,0.0,0.0,0.0,0.0,0.0,0.0,0.0,0.0,0.0,0.0,0.0,0.0,0.0,0.0,0.0,0.0,0.0,0.0,0.0,0.0,0.0,0.0,0.0,0.0,0.0,0.0,0.0,0.0,0.0,0.0,0.0,0.0,0.0,0.0,0.0,0.0,0.0,0.0,0.0,0.0,0.0,0.0,0.0,0.0,0.0,0.0,0.0,0.0,0.0,0.0,0.0,0.0,0.0,0.0,0.0,0.0,0.0,0.0,0.0,0.0,0.0,0.0,0.0,0.0,0.0,0.0,0.0,0.0,0.0,0.0,0.0,0.0,0.0,0.0,0.0,0.0,0.0,0.0,0.0,0.0,0.0,0.0,0.0,0.0,0.0,0.0,0.0,0.0,0.0,0.0,0.0,0.0,0.0,0.0,0.0,0.0,0.0,0.0,0.0,0.0,0.0,0.0,0.0,0.0,0.0,0.0,0.0,0.0,0.0,0.0,0.0,0.0,0.0,0.0,0.0,0.0,0.0,0.0,0.0,0.0,0.0,0.0,0.0,0.0,0.0,0.0,0.0,0.0,0.0,0.0,0.0,0.0,0.0,0.0,0.0,0.0,0.0,0.0,0.0,0.0,0.0,0.0,0.0,0.0,0.0,0.0,0.0,0.0,0.0,0.0,0.0,0.0,0.0,0.0,0.0,0.0,0.0,0.0,0.0,0.0,0.0,0.0,0.0,0.0,0.0,0.0,0.0,0.0,0.0,0.0,0.0,0.0,0.0,0.0,0.0,0.0,0.0,0.0,0.0,0.0,0.0,0.0,0.0,0.0,0.0,0.0,0.0,0.0,0.0,0.0,0.0,0.0,0.0,0.0,0.0,0.0,0.0,0.0,0.0,0.0,0.0,0.0,0.0,0.0,0.0,0.0,0.0,0.0,0.0,0.0,0.0,0.0,0.0,0.0,0.0,0.0,0.0,0.0,0.0,0.0,0.0,0.0,0.0,0.0,0.0,0.0,0.0,0.0,0.0,0.0,0.0,0.0,0.0,0.0,0.0,0.0,0.0,0.0,0.0,0.0,0.0,0.0,0.0,0.0,0.0,0.0,0.0,0.0,0.0,0.0,0.0,0.0,0.0,0.0,0.0,0.0,0.0,0.0,0.0,0.0,0.0,0.0,0.0,0.0,0.0,0.0,0.0,0.0,0.0,0.0,0.0,0.0,0.0,0.0,0.0,0.0,0.0,0.0,0.0,0.0,0.0,0.0,0.0,0.0,0.0,0.0,0.0,0.0,0.0,0.0,0.0,0.0,0.0,0.0,0.0,0.0,0.0,0.0,0.0,0.0,0.0,0.0,0.0,0.0,0.0,0.0,0.0,0.0,0.0,0.0,0.0,0.0,0.0,0.0,0.0,0.0,0.0,0.0,0.0,0.0,0.0,0.0,0.0,0.0,0.0,0.0,0.0,0.0,0.0,0.0,0.0,0.0,0.0,0.0,0.0,0.0,0.0,0.0,0.0,0.0,0.0,0.0,0.0,0.0,0.0,0.0,0.0,0.0,0.0,0.0,0.0,0.0,0.0,0.0,0.0,0.0,0.0,0.0,0.0,0.0,0.0,0.0,0.0,0.0,0.0,0.0,0.0,0.0,0.0,0.0,0.0,0.0,0.0,0.0,0.0,0.0,0.0,0.0,0.0,0.0,0.0,0.0,0.0,0.0,0.0,0.0,0.0,0.0,0.0,0.0,0.0,0.0,0.0,0.0,0.0,0.0,0.0,0.0,0.0,0.0,0.0,0.0,0.0,0.0,0.0,0.0,0.0,0.0,0.0,0.0,0.0,0.0,0.0,0.0,0.0,0.0,0.0,0.0,0.0,0.0,0.0,0.0,0.0,0.0,0.0,0.0,0.0,0.0,0.0,0.0,0.0,0.0,0.0,0.0,0.0,0.0,0.0,0.0,0.0,0.0,0.0,0.0,0.0,0.0,0.0,0.0,0.0,0.0,0.0,0.0,0.0,0.0,0.0,0.0,0.0,0.0,0.0,0.0,0.0,0.0,0.0,0.0,0.0,0.0,0.0,0.0,0.0,0.0,0.0,0.0,0.0,0.0,0.0,0.0,0.0,0.0,0.0,0.0,0.0,-3.2919,0.0,0.0,0.0,0.0,0.0,0.0,0.0,0.0,0.0,0.0,0.0,0.0,0.0,0.0,0.0,0.0,0.0,0.0,0.0,0.0,0.0,0.0,0.0,0.0,0.0,0.0,0.0,0.0,0.0,0.0,0.0,0.0,0.0,0.0,0.0,0.0,0.0,0.0,0.0,0.0,0.0,0.0,0.0,0.0,0.0,0.0,0.0,0.0,0.0,0.0,0.0,0.0,0.0,0.0,0.0,0.0,0.0,0.0,0.0,0.0,0.0,0.0,0.0,0.0,0.0,0.0,0.0,0.0,0.0,0.0,0.0,0.0,0.0,0.0,0.0,0.0,0.0,0.0,0.0,0.0,0.0,0.0,0.0,0.0,0.0,0.0,0.0,0.0,0.0,0.0,0.0,0.0,0.0,0.0,0.0,0.0,0.0,0.0,0.0,0.0,0.0,0.0,0.0,0.0,0.0,0.0,0.0,0.0,0.0,0.0,-3.3949,-3.3015,-3.3068,-3.2894,-3.2391,0.0,0.0,0.0,0.0,0.0,0.0,0.0,0.0,0.0,0.0,0.0,0.0,0.0,0.0,0.0,0.0,0.0,0.0,0.0,0.0,0.0,0.0,0.0,0.0,0.0,0.0,0.0,0.0,0.0,0.0,0.0,0.0,0.0,0.0,0.0,0.0,0.0,0.0,0.0,0.0,0.0,0.0,0.0,0.0,0.0,0.0,0.0,0.0,0.0,0.0,0.0,0.0,0.0,0.0,0.0,0.0,0.0,0.0,0.0,0.0,0.0,0.0,0.0,0.0,0.0,0.0,0.0,0.0,0.0,0.0,0.0,0.0,0.0,0.0,0.0,0.0,0.0,0.0,0.0,0.0,0.0,0.0,0.0,0.0,0.0,0.0,0.0,0.0,0.0,0.0,0.0,0.0,0.0,0.0,0.0,0.0,0.0,0.0,0.0,0.0,0.0,0.0,0.0,0.0,0.0,0.0,0.0,0.0,0.0,0.0,0.0,0.0,-3.303,-3.2894,-3.1855,0.0,0.0,0.0,0.0,0.0,0.0,0.0,0.0,0.0,0.0,0.0,0.0,0.0,0.0,0.0,0.0,0.0,0.0,0.0,0.0,0.0,0.0,0.0,0.0,0.0,0.0,0.0,0.0,0.0,0.0,0.0,0.0,0.0,0.0,0.0,0.0,0.0,0.0,0.0,0.0,0.0,0.0,0.0,0.0,0.0,0.0,0.0,0.0,0.0,0.0,0.0,0.0,0.0,0.0,0.0,0.0,0.0,0.0,0.0,0.0,0.0,0.0,0.0,0.0,0.0,0.0,0.0,0.0,0.0,0.0,0.0,0.0,0.0,0.0,0.0,0.0,0.0,0.0,0.0,0.0,0.0,0.0,0.0,0.0,0.0,0.0,0.0,0.0,0.0,0.0,0.0,0.0,0.0,0.0,0.0,0.0,0.0,0.0,0.0,0.0,0.0,0.0,0.0,0.0,0.0,0.0,0.0,0.0,0.0,0.0,-3.3513,-3.4162,-3.4239,0.0,-3.1952,0.0,0.0,0.0,0.0,0.0,0.0,0.0,0.0,0.0,0.0,0.0,0.0,0.0,0.0,0.0,0.0,0.0,0.0,0.0,0.0,0.0,0.0,0.0,0.0,0.0,0.0,0.0,0.0,0.0,0.0,0.0,0.0,0.0,0.0,0.0,0.0,0.0,0.0,0.0,0.0,0.0,0.0,0.0,0.0,0.0,0.0,0.0,0.0,0.0,0.0,0.0,0.0,0.0,0.0,0.0,0.0,0.0,0.0,0.0,0.0,0.0,0.0,0.0,0.0,0.0,0.0,0.0,0.0,0.0,0.0,0.0,0.0,0.0,0.0,0.0,0.0,0.0,0.0,0.0,0.0,0.0,0.0,0.0,0.0,0.0,0.0,0.0,0.0,0.0,0.0,0.0,0.0,0.0,0.0,0.0,0.0,0.0,0.0,0.0,0.0,0.0,0.0,0.0,0.0,0.0,0.0,0.0,0.0,0.0,0.0,-3.4563,-3.4394,-3.4394,-3.3576,0.0,0.0,0.0,0.0,0.0,0.0,0.0,0.0,0.0,0.0,0.0,0.0,0.0,0.0,0.0,0.0,0.0,0.0,0.0,0.0,0.0,0.0,0.0,0.0,0.0,0.0,0.0,0.0,0.0,0.0,0.0,0.0,0.0,0.0,0.0,0.0,0.0,0.0,0.0,0.0,0.0,0.0,0.0,0.0,0.0,0.0,0.0,0.0,0.0,0.0,0.0,0.0,0.0,0.0,0.0,0.0,0.0,0.0,0.0,0.0,0.0,0.0,0.0,0.0,0.0,0.0,0.0,0.0,0.0,0.0,0.0,0.0,0.0,0.0,0.0,0.0,0.0,0.0,0.0,0.0,0.0,0.0,0.0,0.0,0.0,0.0,0.0,0.0,0.0,0.0,0.0,0.0,0.0,0.0,0.0,0.0,0.0,0.0,0.0,0.0,0.0,0.0,0.0,0.0,0.0,0.0,0.0,0.0,0.0,0.0,-3.3963,-3.4911,-3.4742,-3.4529,-3.346,-3.1541,0.0,0.0,0.0,0.0,0.0,0.0,0.0,0.0,0.0,0.0,0.0,0.0,0.0,0.0,0.0,0.0,0.0,0.0,0.0,0.0,0.0,0.0,0.0,0.0,0.0,0.0,0.0,0.0,0.0,0.0,0.0,0.0,0.0,0.0,0.0,0.0,0.0,0.0,0.0,0.0,0.0,0.0,0.0,0.0,0.0,0.0,0.0,0.0,0.0,0.0,0.0,0.0,0.0,0.0,0.0,0.0,0.0,0.0,0.0,0.0,0.0,0.0,0.0,0.0,0.0,0.0,0.0,0.0,0.0,0.0,0.0,0.0,0.0,0.0,0.0,0.0,0.0,0.0,0.0,0.0,0.0,0.0,0.0,0.0,0.0,0.0,0.0,0.0,0.0,0.0,0.0,0.0,0.0,0.0,0.0,0.0,0.0,0.0,0.0,0.0,0.0,0.0,0.0,0.0,0.0,0.0,0.0,0.0,-3.5182,-3.3977,-3.4016,-3.5574,-3.4839,-3.3214,0.0,0.0,0.0,0.0,0.0,0.0,0.0,0.0,0.0,0.0,0.0,0.0,0.0,0.0,0.0,0.0,0.0,0.0,0.0,0.0,0.0,0.0,0.0,0.0,0.0,0.0,0.0,0.0,0.0,0.0,0.0,0.0,0.0,0.0,0.0,0.0,0.0,0.0,0.0,0.0,0.0,0.0,0.0,0.0,0.0,0.0,0.0,0.0,0.0,0.0,0.0,0.0,0.0,0.0,0.0,0.0,0.0,0.0,0.0,0.0,0.0,0.0,0.0,0.0,0.0,0.0,0.0,0.0,0.0,0.0,0.0,0.0,0.0,0.0,0.0,0.0,0.0,0.0,0.0,0.0,0.0,0.0,0.0,0.0,0.0,0.0,0.0,0.0,0.0,0.0,0.0,0.0,0.0,0.0,0.0,0.0,0.0,0.0,0.0,0.0,0.0,0.0,0.0,0.0,0.0,0.0,0.0,0.0,0.0,-3.2372,-3.2856,-3.4171,-3.6284,-3.406,-3.23,0.0,0.0,0.0,0.0,0.0,0.0,0.0,0.0,0.0,0.0,0.0,0.0,0.0,0.0,0.0,0.0,0.0,0.0,0.0,0.0,0.0,0.0,0.0,0.0,0.0,0.0,0.0,0.0,0.0,0.0,0.0,0.0,0.0,0.0,0.0,0.0,0.0,0.0,0.0,0.0,0.0,0.0,0.0,0.0,0.0,0.0,0.0,0.0,0.0,0.0,0.0,0.0,0.0,0.0,0.0,0.0,0.0,0.0,0.0,0.0,0.0,0.0,0.0,0.0,0.0,0.0,0.0,0.0,0.0,0.0,0.0,0.0,0.0,0.0,0.0,0.0,0.0,0.0,0.0,0.0,0.0,0.0,0.0,0.0,0.0,0.0,0.0,0.0,0.0,0.0,0.0,0.0,0.0,0.0,0.0,0.0,0.0,0.0,0.0,0.0,0.0,0.0,0.0,0.0,0.0,0.0,0.0,0.0,0.0,-3.17,0.0,-3.4504,-3.5764,-3.326,-3.1405,0.0,0.0,0.0,0.0,0.0,0.0,0.0,0.0,0.0,0.0,0.0,0.0,0.0,0.0,0.0,0.0,0.0,0.0,0.0,0.0,0.0,0.0,0.0,0.0,0.0,0.0,0.0,0.0,0.0,0.0,0.0,0.0,0.0,0.0,0.0,0.0,0.0,0.0,0.0,0.0,0.0,0.0,0.0,0.0,0.0,0.0,0.0,0.0,0.0,0.0,0.0,0.0,0.0,0.0,0.0,0.0,0.0,0.0,0.0,0.0,0.0,0.0,0.0,0.0,0.0,0.0,0.0,0.0,0.0,0.0,0.0,0.0,0.0,0.0,0.0,0.0,0.0,0.0,0.0,0.0,0.0,0.0,0.0,0.0,0.0,0.0,0.0,0.0,0.0,0.0,0.0,0.0,0.0,0.0,0.0,0.0,0.0,0.0,0.0,0.0,0.0,0.0,0.0,0.0,0.0,0.0,0.0,0.0,-3.1488,-3.3824,-3.4721,-3.4805,-3.4061,-3.2582,-3.0632,0.0,0.0,0.0,0.0,0.0,0.0,0.0,0.0,0.0,0.0,0.0,0.0,0.0,0.0,0.0,0.0,0.0,0.0,0.0,0.0,0.0,0.0,0.0,0.0,0.0,0.0,0.0,0.0,0.0,0.0,0.0,0.0,0.0,0.0,0.0,0.0,0.0,0.0,0.0,0.0,0.0,0.0,0.0,0.0,0.0,0.0,0.0,0.0,0.0,0.0,0.0,0.0,0.0,0.0,0.0,0.0,0.0,0.0,0.0,0.0,0.0,0.0,0.0,0.0,0.0,0.0,0.0,0.0,0.0,0.0,0.0,0.0,0.0,0.0,0.0,0.0,0.0,0.0,0.0,0.0,0.0,0.0,0.0,0.0,0.0,0.0,0.0,0.0,0.0,0.0,0.0,0.0,0.0,0.0,0.0,0.0,0.0,0.0,0.0,0.0,0.0,0.0,0.0,0.0,0.0,0.0,0.0,0.0,0.0,-3.241,-3.3084,-3.394,-3.4885,-3.2305,-3.0706,0.0,0.0,0.0,0.0,0.0,0.0,0.0,0.0,0.0,0.0,0.0,0.0,0.0,0.0,0.0,0.0,0.0,0.0,0.0,0.0,0.0,0.0,0.0,0.0,0.0,0.0,0.0,0.0,0.0,0.0,0.0,0.0,0.0,0.0,0.0,0.0,0.0,0.0,0.0,0.0,0.0,0.0,0.0,0.0,0.0,0.0,0.0,0.0,0.0,0.0,0.0,0.0,0.0,0.0,0.0,0.0,0.0,0.0,0.0,0.0,0.0,0.0,0.0,0.0,0.0,0.0,0.0,0.0,0.0,0.0,0.0,0.0,0.0,0.0,0.0,0.0,0.0,0.0,0.0,0.0,0.0,0.0,0.0,0.0,0.0,0.0,0.0,0.0,0.0,0.0,0.0,0.0,0.0,0.0,0.0,0.0,0.0,0.0,0.0,0.0,0.0,0.0,0.0,0.0,0.0,0.0,0.0,0.0,0.0,-3.2871,-3.3464,-3.4227,-3.5152,-3.2619,-3.1015,-3.0484,0.0,0.0,0.0,0.0,0.0,0.0,0.0,0.0,0.0,0.0,0.0,0.0,0.0,0.0,0.0,0.0,0.0,0.0,0.0,0.0,0.0,0.0,0.0,0.0,0.0,0.0,0.0,0.0,0.0,0.0,0.0,0.0,0.0,0.0,0.0,0.0,0.0,0.0,0.0,0.0,0.0,0.0,0.0,0.0,0.0,0.0,0.0,0.0,0.0,0.0,0.0,0.0,0.0,0.0,0.0,0.0,0.0,0.0,0.0,0.0,0.0,0.0,0.0,0.0,0.0,0.0,0.0,0.0,0.0,0.0,0.0,0.0,0.0,0.0,0.0,0.0,0.0,0.0,0.0,0.0,0.0,0.0,0.0,0.0,0.0,0.0,0.0,0.0,0.0,0.0,0.0,0.0,0.0,0.0,0.0,0.0,0.0,0.0,0.0,0.0,0.0,0.0,0.0,0.0,0.0,0.0,0.0,0.0,-3.4884,-3.5676,-3.5697,-3.4967,-3.3587,-3.1646,0.0,0.0,0.0,0.0,0.0,0.0,0.0,0.0,0.0,0.0,0.0,0.0,0.0,0.0,0.0,0.0,0.0,0.0,0.0,0.0,0.0,0.0,0.0,0.0,0.0,0.0,0.0,0.0,0.0,0.0,0.0,0.0,0.0,0.0,0.0,0.0,0.0,0.0,0.0,0.0,0.0,0.0,0.0,0.0,0.0,0.0,0.0,0.0,0.0,0.0,0.0,0.0,0.0,0.0,0.0,0.0,0.0,0.0,0.0,0.0,0.0,0.0,0.0,0.0,0.0,0.0,0.0,0.0,0.0,0.0,0.0,0.0,0.0,0.0,0.0,0.0,0.0,0.0,0.0,0.0,0.0,0.0,0.0,0.0,0.0,0.0,0.0,0.0,0.0,0.0,0.0,0.0,0.0,0.0,0.0,0.0,0.0,0.0,0.0,0.0,0.0,0.0,0.0,0.0,0.0,0.0,0.0,0.0,0.0,-3.6198,-3.8169,-3.8933,-3.8313,-3.5751,-3.3378,0.0,0.0,0.0,0.0,0.0,0.0,0.0,0.0,0.0,0.0,0.0,0.0,0.0,0.0,0.0,0.0,0.0,0.0,0.0,0.0,0.0,0.0,0.0,0.0,0.0,0.0,0.0,0.0,0.0,0.0,0.0,0.0,0.0,0.0,0.0,0.0,0.0,0.0,0.0,0.0,0.0,0.0,0.0,0.0,0.0,0.0,0.0,0.0,0.0,0.0,0.0,0.0,0.0,0.0,0.0,0.0,0.0,0.0,0.0,0.0,0.0,0.0,0.0,0.0,0.0,0.0,0.0,0.0,0.0,0.0,0.0,0.0,0.0,0.0,0.0,0.0,0.0,0.0,0.0,0.0,0.0,0.0,0.0,0.0,0.0,0.0,0.0,0.0,0.0,0.0,0.0,0.0,0.0,0.0,0.0,0.0,0.0,0.0,0.0,0.0,0.0,0.0,0.0,0.0,0.0,0.0,0.0,0.0,-3.5553,-3.7188,-3.997,-4.1106,-4.0502,-3.7777,-3.4986,0.0,0.0,0.0,0.0,0.0,0.0,0.0,0.0,0.0,0.0,0.0,0.0,0.0,0.0,0.0,0.0,0.0,0.0,0.0,0.0,0.0,0.0,0.0,0.0,0.0,0.0,0.0,0.0,0.0,0.0,0.0,0.0,0.0,0.0,0.0,0.0,0.0,0.0,0.0,0.0,0.0,0.0,0.0,0.0,0.0,0.0,0.0,0.0,0.0,0.0,0.0,0.0,0.0,0.0,0.0,0.0,0.0,0.0,0.0,0.0,0.0,0.0,0.0,0.0,0.0,0.0,0.0,0.0,0.0,0.0,0.0,0.0,0.0,0.0,0.0,0.0,0.0,0.0,0.0,0.0,0.0,0.0,0.0,0.0,0.0,0.0,0.0,0.0,0.0,0.0,0.0,0.0,0.0,0.0,0.0,0.0,0.0,0.0,0.0,0.0,0.0,0.0,0.0,0.0,0.0,0.0,0.0,0.0,-3.6402,-3.8005,-4.1237,-4.25,-4.1586,-3.938,-3.6317,0.0,0.0,0.0,0.0,0.0,0.0,0.0,0.0,0.0,0.0,0.0,0.0,0.0,0.0,0.0,0.0,0.0,0.0,0.0,0.0,0.0,0.0,0.0,0.0,0.0,0.0,0.0,0.0,0.0,0.0,0.0,0.0,0.0,0.0,0.0,0.0,0.0,0.0,0.0,0.0,0.0,0.0,0.0,0.0,0.0,0.0,0.0,0.0,0.0,0.0,0.0,0.0,0.0,0.0,0.0,0.0,0.0,0.0,0.0,0.0,0.0,0.0,0.0,0.0,0.0,0.0,0.0,0.0,0.0,0.0,0.0,0.0,0.0,0.0,0.0,0.0,0.0,0.0,0.0,0.0,0.0,0.0,0.0,0.0,0.0,0.0,0.0,0.0,0.0,0.0,0.0,0.0,0.0,0.0,0.0,0.0,0.0,0.0,0.0,0.0,0.0,0.0,0.0,0.0,0.0,0.0,0.0,0.0,-3.7225,-3.8859,-4.2054,-4.3058,-4.1627,-3.9349,-3.6502,0.0,0.0,0.0,0.0,0.0,0.0,0.0,0.0,0.0,0.0,0.0,0.0,0.0,0.0,0.0,0.0,0.0,0.0,0.0,0.0,0.0,0.0,0.0,0.0,0.0,0.0,0.0,0.0,0.0,0.0,0.0,0.0,0.0,0.0,0.0,0.0,0.0,0.0,0.0,0.0,0.0,0.0,0.0,0.0,0.0,0.0,0.0,0.0,-2.5958,0.0,0.0,0.0,0.0,0.0,0.0,0.0,0.0,0.0,0.0,0.0,0.0,0.0,0.0,0.0,0.0,0.0,0.0,0.0,0.0,0.0,0.0,0.0,0.0,0.0,0.0,0.0,0.0,0.0,0.0,0.0,0.0,0.0,0.0,0.0,0.0,0.0,0.0,0.0,0.0,0.0,0.0,0.0,0.0,0.0,0.0,0.0,0.0,0.0,0.0,0.0,0.0,0.0,0.0,0.0,0.0,0.0,0.0,0.0,-3.7798,-3.9519,-4.2069,-4.2835,-4.159,-3.9249,-3.6671,0.0,0.0,0.0,0.0,0.0,0.0,0.0,0.0,0.0,0.0,0.0,0.0,0.0,0.0,0.0,0.0,0.0,0.0,0.0,0.0,0.0,0.0,0.0,0.0,0.0,0.0,0.0,0.0,0.0,0.0,0.0,0.0,0.0,0.0,0.0,0.0,0.0,0.0,0.0,0.0,0.0,0.0,0.0,0.0,0.0,0.0,0.0,0.0,0.0,0.0,0.0,0.0,0.0,0.0,0.0,0.0,0.0,0.0,0.0,0.0,0.0,0.0,0.0,0.0,0.0,0.0,0.0,0.0,0.0,0.0,0.0,0.0,0.0,0.0,0.0,0.0,0.0,0.0,0.0,0.0,0.0,0.0,0.0,0.0,0.0,0.0,0.0,0.0,0.0,0.0,0.0,0.0,0.0,0.0,0.0,0.0,0.0,0.0,0.0,0.0,0.0,0.0,0.0,0.0,0.0,0.0,0.0,-3.4775,-3.7838,-3.9902,-4.1647,-4.2161,-4.1282,-3.9003,-3.6676,-3.4302,0.0,0.0,0.0,0.0,0.0,0.0,0.0,0.0,0.0,0.0,0.0,0.0,0.0,0.0,0.0,0.0,0.0,0.0,0.0,0.0,0.0,0.0,0.0,0.0,0.0,0.0,0.0,0.0,0.0,0.0,0.0,0.0,0.0,0.0,0.0,0.0,0.0,0.0,-2.4001,-2.5281,0.0,0.0,0.0,0.0,0.0,0.0,0.0,0.0,-2.6144,0.0,0.0,0.0,0.0,0.0,0.0,0.0,0.0,0.0,0.0,0.0,0.0,0.0,0.0,0.0,0.0,0.0,0.0,0.0,0.0,0.0,0.0,0.0,0.0,0.0,0.0,0.0,0.0,0.0,0.0,0.0,0.0,0.0,0.0,0.0,0.0,0.0,0.0,0.0,0.0,0.0,0.0,0.0,0.0,0.0,0.0,0.0,0.0,0.0,0.0,0.0,0.0,0.0,0.0,0.0,0.0,-3.3224,-3.4239,-3.6321,-3.9591,-4.0841,-4.0948,-3.9914,-3.8248,-3.627,-3.4007,0.0,0.0,0.0,0.0,0.0,0.0,0.0,0.0,0.0,0.0,0.0,0.0,0.0,0.0,0.0,0.0,0.0,0.0,0.0,0.0,0.0,0.0,0.0,0.0,0.0,0.0,0.0,0.0,0.0,0.0,0.0,0.0,0.0,0.0,0.0,0.0,0.0,0.0,0.0,-2.817,-2.8849,0.0,0.0,0.0,0.0,0.0,0.0,0.0,0.0,-2.619,0.0,0.0,0.0,0.0,0.0,0.0,0.0,0.0,0.0,0.0,0.0,0.0,0.0,0.0,0.0,0.0,0.0,0.0,0.0,0.0,0.0,0.0,0.0,0.0,0.0,0.0,0.0,0.0,0.0,0.0,0.0,0.0,0.0,0.0,0.0,0.0,0.0,0.0,0.0,0.0,0.0,0.0,0.0,0.0,0.0,0.0,0.0,0.0,0.0,0.0,0.0,0.0,0.0,0.0,0.0,-3.1938,-3.4063,-3.6419,-3.9029,-3.9847,-4.0001,-3.9445,-3.6778,-3.4887,0.0,0.0,0.0,0.0,0.0,0.0,0.0,0.0,0.0,0.0,0.0,0.0,0.0,0.0,0.0,0.0,0.0,0.0,0.0,0.0,0.0,0.0,0.0,0.0,0.0,0.0,0.0,0.0,0.0,0.0,0.0,0.0,0.0,0.0,0.0,0.0,0.0,0.0,0.0,0.0,-2.8561,-2.8857,-3.0104,0.0,0.0,0.0,0.0,0.0,0.0,-2.7073,-2.6534,0.0,0.0,0.0,0.0,0.0,0.0,0.0,0.0,0.0,0.0,0.0,0.0,0.0,0.0,0.0,0.0,0.0,0.0,0.0,0.0,0.0,0.0,0.0,0.0,0.0,0.0,0.0,0.0,0.0,0.0,0.0,0.0,0.0,0.0,0.0,0.0,0.0,0.0,0.0,0.0,0.0,0.0,0.0,0.0,0.0,0.0,0.0,0.0,0.0,0.0,0.0,0.0,0.0,0.0,0.0,-3.0333,-3.3648,-3.6344,-3.8251,-3.8726,-3.8849,-3.8631,-3.5369,-3.3469,0.0,0.0,0.0,0.0,0.0,0.0,0.0,0.0,0.0,0.0,0.0,0.0,0.0,0.0,0.0,0.0,0.0,0.0,0.0,0.0,0.0,0.0,0.0,0.0,0.0,0.0,0.0,0.0,0.0,0.0,0.0,0.0,0.0,0.0,0.0,0.0,0.0,0.0,0.0,0.0,0.0,-2.9247,-3.0662,-2.9235,0.0,0.0,0.0,0.0,-2.8445,-2.8116,0.0,0.0,0.0,0.0,0.0,0.0,0.0,0.0,0.0,0.0,0.0,0.0,0.0,0.0,0.0,0.0,0.0,0.0,0.0,0.0,0.0,0.0,0.0,0.0,0.0,0.0,0.0,0.0,0.0,0.0,0.0,0.0,0.0,0.0,0.0,0.0,0.0,0.0,0.0,0.0,0.0,0.0,0.0,0.0,0.0,0.0,0.0,0.0,0.0,0.0,0.0,0.0,0.0,0.0,0.0,0.0,-3.0206,-3.2257,-3.4548,-3.7054,-3.7462,-3.718,-3.6229,-3.4464,-3.2724,0.0,0.0,0.0,0.0,0.0,0.0,0.0,0.0,0.0,0.0,0.0,0.0,0.0,0.0,0.0,0.0,0.0,0.0,0.0,0.0,0.0,0.0,0.0,0.0,0.0,0.0,0.0,0.0,0.0,0.0,0.0,0.0,0.0,0.0,0.0,0.0,0.0,0.0,0.0,0.0,0.0,-3.2227,-3.0398,-2.9874,-2.9424,0.0,0.0,-2.928,-3.0013,-3.0644,0.0,0.0,0.0,0.0,0.0,0.0,0.0,0.0,0.0,0.0,0.0,0.0,0.0,0.0,0.0,0.0,0.0,0.0,0.0,0.0,0.0,0.0,0.0,0.0,0.0,0.0,0.0,0.0,0.0,0.0,0.0,0.0,0.0,0.0,0.0,0.0,0.0,0.0,0.0,0.0,0.0,0.0,0.0,0.0,0.0,0.0,0.0,0.0,0.0,0.0,0.0,0.0,0.0,0.0,0.0,-2.6734,-2.9227,-3.2091,-3.4385,-3.6016,-3.6245,-3.6127,-3.5735,-3.3002,-3.1198,0.0,0.0,0.0,0.0,0.0,0.0,0.0,0.0,0.0,0.0,0.0,0.0,0.0,0.0,0.0,0.0,0.0,0.0,0.0,0.0,0.0,0.0,0.0,0.0,0.0,0.0,0.0,0.0,0.0,0.0,0.0,0.0,0.0,0.0,0.0,0.0,0.0,0.0,0.0,0.0,0.0,0.0,-3.0854,-3.0152,0.0,0.0,0.0,-2.9795,-3.0415,0.0,0.0,0.0,0.0,0.0,0.0,0.0,0.0,0.0,0.0,0.0,0.0,0.0,0.0,0.0,0.0,0.0,0.0,0.0,0.0,0.0,0.0,0.0,0.0,0.0,0.0,0.0,0.0,0.0,0.0,0.0,0.0,0.0,0.0,0.0,0.0,0.0,0.0,0.0,0.0,0.0,0.0,0.0,0.0,0.0,0.0,0.0,0.0,0.0,0.0,0.0,0.0,0.0,0.0,0.0,0.0,0.0,-2.8403,-3.1783,-3.4029,-3.5007,-3.4931,-3.4801,-3.4669,-3.1568,0.0,0.0,0.0,0.0,0.0,0.0,0.0,0.0,0.0,0.0,0.0,0.0,0.0,0.0,0.0,0.0,0.0,0.0,0.0,0.0,0.0,0.0,0.0,0.0,0.0,0.0,0.0,-1.913,0.0,0.0,0.0,0.0,0.0,0.0,0.0,0.0,0.0,0.0,0.0,0.0,0.0,0.0,-2.915,-3.0698,-3.0252,-3.0105,0.0,0.0,-3.0427,-3.0786,-3.0638,-2.9776,0.0,0.0,0.0,0.0,0.0,0.0,0.0,0.0,0.0,0.0,0.0,0.0,0.0,0.0,0.0,0.0,0.0,0.0,0.0,0.0,0.0,0.0,0.0,0.0,0.0,0.0,0.0,0.0,0.0,0.0,0.0,0.0,0.0,0.0,0.0,0.0,0.0,0.0,0.0,0.0,0.0,0.0,0.0,0.0,0.0,0.0,0.0,0.0,0.0,0.0,0.0,0.0,0.0,0.0,-2.5436,-2.8368,-3.0731,-3.2662,-3.4096,-3.3457,-3.275,-3.2061,-3.0421,-2.8621,0.0,0.0,0.0,0.0,0.0,0.0,0.0,0.0,0.0,0.0,0.0,0.0,0.0,0.0,0.0,0.0,0.0,0.0,0.0,0.0,0.0,0.0,0.0,0.0,0.0,0.0,0.0,0.0,0.0,0.0,0.0,0.0,0.0,0.0,0.0,0.0,0.0,0.0,0.0,0.0,0.0,-2.9722,-2.9084,-3.0189,-3.1086,0.0,-3.1375,-3.1568,-3.1548,-3.2707,-3.2496,-2.8984,0.0,0.0,0.0,0.0,0.0,0.0,0.0,0.0,0.0,0.0,0.0,0.0,0.0,0.0,0.0,0.0,0.0,0.0,0.0,0.0,0.0,0.0,0.0,0.0,0.0,0.0,0.0,0.0,0.0,0.0,0.0,0.0,0.0,0.0,0.0,0.0,0.0,0.0,0.0,0.0,0.0,0.0,0.0,0.0,0.0,0.0,0.0,0.0,0.0,0.0,0.0,0.0,0.0,-2.478,-2.6908,-2.961,-3.1278,-3.1829,-3.1643,-3.1386,-3.1127,-2.961,-2.802,0.0,0.0,0.0,0.0,0.0,0.0,0.0,0.0,0.0,0.0,0.0,0.0,0.0,0.0,0.0,0.0,0.0,0.0,0.0,0.0,0.0,0.0,0.0,0.0,0.0,0.0,0.0,0.0,-1.9917,-1.9637,-1.9191,0.0,0.0,0.0,0.0,0.0,0.0,0.0,0.0,0.0,0.0,-2.916,-2.9334,-3.0292,0.0,0.0,-3.0988,-3.0744,-3.1007,-3.0377,-2.9232,-2.7323,-2.6118,0.0,0.0,0.0,0.0,0.0,0.0,0.0,0.0,0.0,0.0,0.0,0.0,0.0,0.0,0.0,0.0,0.0,0.0,0.0,0.0,0.0,0.0,0.0,0.0,0.0,0.0,0.0,0.0,0.0,0.0,0.0,0.0,0.0,0.0,0.0,0.0,0.0,0.0,0.0,0.0,0.0,0.0,0.0,0.0,0.0,0.0,0.0,0.0,0.0,0.0,0.0,0.0,-2.4059,-2.5797,-2.8202,-2.954,-2.9797,-2.9648,-2.9564,-2.9513,-2.8304,-2.6926,0.0,0.0,0.0,0.0,0.0,0.0,0.0,0.0,0.0,0.0,0.0,0.0,0.0,0.0,0.0,0.0,0.0,0.0,0.0,0.0,0.0,0.0,0.0,0.0,0.0,0.0,0.0,0.0,-1.9998,-1.9545,-1.9027,0.0,0.0,0.0,0.0,0.0,0.0,0.0,0.0,0.0,0.0,-2.8315,-2.9124,-2.9936,-3.056,-3.0898,-3.0335,-2.9967,-3.0283,-2.8972,-2.754,-2.6375,0.0,0.0,0.0,0.0,0.0,0.0,0.0,0.0,0.0,0.0,0.0,0.0,0.0,0.0,0.0,0.0,0.0,0.0,0.0,0.0,0.0,0.0,0.0,0.0,0.0,0.0,0.0,-2.2474,0.0,0.0,-2.1538,0.0,0.0,0.0,0.0,0.0,0.0,0.0,0.0,0.0,0.0,0.0,0.0,0.0,0.0,0.0,0.0,0.0,0.0,0.0,0.0,0.0,0.0,-2.3164,-2.5361,-2.6468,-2.7388,-2.8102,-2.7386,-2.7024,-2.7008,-2.6266,-2.5197,-2.3703,0.0,0.0,0.0,0.0,0.0,0.0,0.0,0.0,0.0,0.0,0.0,0.0,0.0,0.0,0.0,0.0,0.0,0.0,0.0,0.0,0.0,0.0,0.0,0.0,0.0,0.0,-1.9372,-1.8711,-1.8304,0.0,0.0,0.0,0.0,0.0,0.0,0.0,0.0,0.0,0.0,-2.5589,-2.7315,-2.8049,-2.8888,-2.9472,-2.9471,-2.9489,-2.9506,-2.9523,-2.9369,-2.8679,0.0,0.0,0.0,0.0,0.0,0.0,0.0,0.0,0.0,0.0,0.0,0.0,0.0,0.0,0.0,0.0,0.0,0.0,0.0,0.0,0.0,0.0,0.0,0.0,0.0,0.0,0.0,-2.399,-2.3226,0.0,0.0,0.0,0.0,0.0,0.0,0.0,0.0,0.0,0.0,0.0,-2.405,-2.405,0.0,0.0,0.0,0.0,0.0,0.0,0.0,0.0,0.0,0.0,0.0,0.0,-2.2652,-2.4722,-2.5666,-2.6442,-2.7127,-2.6517,-2.6161,-2.618,-2.5915,-2.4882,-2.2933,0.0,0.0,0.0,0.0,0.0,0.0,0.0,0.0,0.0,0.0,0.0,0.0,0.0,0.0,0.0,0.0,0.0,0.0,0.0,0.0,0.0,0.0,0.0,0.0,0.0,-1.9372,0.0,0.0,0.0,0.0,0.0,0.0,0.0,0.0,0.0,0.0,0.0,-2.3161,-2.4137,-2.6146,-2.7623,-2.7878,-2.8628,-2.9193,0.0,0.0,0.0,0.0,0.0,0.0,0.0,0.0,0.0,0.0,0.0,0.0,0.0,0.0,-2.588,-2.3767,-2.2864,-2.2575,-2.3071,0.0,0.0,0.0,0.0,0.0,0.0,0.0,0.0,0.0,0.0,0.0,0.0,0.0,0.0,-2.4976,0.0,-2.4417,0.0,0.0,0.0,0.0,0.0,0.0,0.0,0.0,-2.5222,-2.5627,-2.5759,-2.554,-2.5228,0.0,-2.4109,-2.2711,0.0,0.0,0.0,0.0,0.0,0.0,0.0,0.0,-2.2213,-2.419,-2.466,-2.5307,-2.6146,-2.5589,-2.5278,-2.5278,-2.5072,-2.4156,-2.2565,-2.1488,-2.0589,0.0,0.0,0.0,0.0,0.0,0.0,0.0,0.0,0.0,0.0,0.0,0.0,0.0,0.0,0.0,0.0,0.0,0.0,0.0,0.0,0.0,0.0,0.0,-1.951,0.0,0.0,0.0,0.0,0.0,0.0,0.0,0.0,0.0,-2.0679,-2.2137,-2.3473,-2.4412,-2.5947,-2.705,-2.7191,0.0,0.0,0.0,0.0,0.0,0.0,0.0,-2.614,-2.5885,-2.5598,-2.5327,-2.5088,-2.5602,-2.5977,-2.5739,0.0,0.0,-2.5003,-2.4162,-2.3907,-2.4378,-2.4283,-2.4204,-2.4413,-2.4979,-2.538,0.0,0.0,0.0,0.0,0.0,0.0,0.0,0.0,-2.578,-2.5551,0.0,-2.4888,0.0,0.0,0.0,0.0,0.0,-2.462,0.0,0.0,-2.7026,-2.7411,-2.7365,-2.6718,-2.6072,-2.5465,-2.6026,-2.5278,-2.3295,-2.1307,0.0,0.0,0.0,0.0,0.0,0.0,-2.1837,-2.3844,-2.3554,-2.3963,-2.5241,-2.4646,-2.4271,-2.4277,-2.3691,-2.3122,-2.2543,-2.213,-2.1339,-2.0127,-1.9556,0.0,0.0,0.0,0.0,0.0,0.0,0.0,0.0,0.0,0.0,0.0,0.0,0.0,0.0,0.0,0.0,0.0,0.0,0.0,0.0,-1.968,0.0,0.0,0.0,0.0,0.0,0.0,0.0,0.0,0.0,0.0,-2.1874,-2.2246,-2.2945,-2.4303,0.0,0.0,0.0,0.0,-2.6434,-2.686,-2.6943,-2.6959,-2.6975,-2.6909,-2.6604,-2.5875,0.0,0.0,-2.5825,-2.6267,-2.6488,-2.5859,-2.6301,-2.6928,-2.7554,-2.716,-2.6971,-2.7023,-2.6469,-2.6383,-2.7025,-2.7349,-2.7911,-2.9779,0.0,0.0,0.0,0.0,-2.6708,-2.7428,-2.9041,-2.8242,-2.7671,-2.7288,-2.6549,0.0,0.0,0.0,0.0,0.0,0.0,-2.5674,-2.6808,-2.7022,-2.7372,-2.7799,-2.7128,-2.6976,-2.7204,-2.6458,-2.5567,-2.4506,-2.3431,-2.1928,-2.0016,0.0,0.0,0.0,0.0,-2.2164,-2.4002,-2.3593,-2.3963,-2.5266,-2.4179,-2.3594,-2.3594,-2.3871,-2.3722,-2.3083,-2.2499,-2.1941,-2.1354,-1.9762,0.0,0.0,0.0,0.0,0.0,0.0,0.0,0.0,0.0,0.0,0.0,0.0,0.0,0.0,0.0,0.0,0.0,0.0,0.0,-1.9142,-1.9246,-1.946,0.0,0.0,0.0,0.0,0.0,0.0,0.0,0.0,0.0,-2.2851,-2.3421,-2.4175,0.0,0.0,-2.5772,-2.6689,-2.6217,-2.594,-2.6541,-2.6219,0.0,-2.6314,-2.6349,-2.6352,-2.6404,-2.6573,-2.664,-2.6454,-2.6573,-2.664,-2.6437,-2.6556,-2.6776,-2.6911,-2.6486,-2.6296,-2.6687,-2.6653,-2.679,-2.7471,-2.8166,-2.8722,-3.1209,-2.8654,-2.79,-2.8016,-2.8662,-2.8228,-2.8867,-3.0138,-2.9543,-2.9165,-2.8876,-2.8127,-2.7152,-2.5991,-2.513,0.0,0.0,0.0,-2.6455,-2.7792,-2.751,-2.7737,-2.8338,-2.7707,-2.7464,-2.7555,-2.6782,-2.6062,-2.5401,-2.4726,-2.3528,-2.1804,0.0,0.0,-2.1034,-2.1415,-2.2509,-2.4194,-2.3656,-2.3825,-2.485,-2.3594,-2.3009,-2.3306,-2.3686,-2.384,-2.3702,-2.3075,-2.2496,-2.207,-2.033,-1.9076,0.0,0.0,0.0,0.0,0.0,0.0,0.0,0.0,0.0,0.0,0.0,-1.751,-1.7203,0.0,0.0,0.0,-1.8437,-1.9226,-1.9767,-1.9909,0.0,0.0,0.0,0.0,0.0,0.0,0.0,-2.2598,-2.2219,-2.2282,-2.3553,-2.4144,-2.4745,-2.555,-2.5433,-2.5536,-2.6405,0.0,-2.5497,-2.6516,-2.5921,-2.5675,-2.6503,-2.6285,-2.6138,-2.6555,-2.664,-2.664,-2.6674,-2.6657,-2.6674,-2.6674,-2.6708,-2.6708,-2.6708,-2.6319,-2.615,-2.6607,-2.6708,-2.7029,-2.8061,-2.8671,-2.9145,-3.2287,-3.1599,-3.0664,-3.0129,-2.9873,-2.9873,-3.0123,-3.0522,-3.0075,-3.0138,-3.049,-2.9501,-2.8631,-2.7881,-2.6786,0.0,-2.7197,-2.7152,-2.7788,-2.891,-2.8273,-2.8313,-2.8834,-2.8243,-2.7652,-2.7046,-2.7046,-2.6676,-2.5955,-2.5348,-2.468,-2.3946,-2.2733,-2.2154,-2.2175,-2.2175,-2.2891,-2.4214,-2.36,-2.3559,-2.4097,-2.2948,-2.2563,-2.3097,-2.3174,-2.3497,-2.4081,-2.3512,-2.2897,-2.219,-2.0962,-1.9979,-1.9286,0.0,0.0,0.0,0.0,0.0,0.0,0.0,0.0,0.0,0.0,0.0,0.0,0.0,0.0,0.0,-1.9468,0.0,-2.0971,-2.1126,0.0,0.0,0.0,-1.9878,-2.002,-2.0853,-2.1719,-2.2427,0.0,0.0,-2.3967,-2.4443,-2.4822,-2.4962,-2.503,-2.5229,-2.5709,-2.5171,-2.5158,-2.6571,-2.5834,-2.565,-2.6794,-2.6427,-2.6048,-2.6434,-2.6485,-2.6537,-2.6572,-2.6606,-2.6623,-2.6657,-2.6674,-2.6691,-2.6674,-2.6641,-2.6674,-2.6674,-2.6759,-2.7232,-2.8467,-2.8908,-2.9348,-3.3619,-3.3006,-3.2751,-3.1776,-3.0368,-3.031,-3.07,-3.1182,-3.061,-3.0672,-3.1167,-3.0006,-2.9345,-2.9154,-2.8892,-2.8832,-2.8967,-2.8456,-2.837,-2.8651,-2.7991,-2.7791,-2.7926,-2.775,-2.7625,-2.745,-2.745,-2.6849,-2.5738,-2.5543,-2.4852,-2.3741,-2.3381,-2.3073,-2.2808,-2.2778,-2.3209,-2.4067,-2.3412,-2.2894,-2.2543,-2.2336,-2.2015,-2.1572,-2.2152,-2.2489,-2.2528,-2.2411,-2.1995,-2.1325,-2.0518,-1.9756,-1.9101,-1.7853,0.0,0.0,0.0,0.0,0.0,0.0,0.0,0.0,0.0,-1.7892,-1.7179,0.0,-1.8346,0.0,-1.9536,-2.0139,-2.0238,-2.0289,0.0,0.0,-2.1017,-2.1237,-2.2788,-2.2224,-2.2156,-2.3324,-2.3185,-2.3191,-2.3636,-2.4252,-2.465,-2.4695,-2.5221,-2.5971,-2.6915,-2.5832,-2.5216,-2.5911,-2.5116,-2.4641,-2.5593,-2.6107,-2.6312,-2.6485,-2.6485,-2.6502,-2.652,-2.652,-2.6537,-2.6537,-2.6537,-2.6537,-2.6555,-2.6537,-2.6537,-2.6588,-2.7061,-2.7621,-2.8027,-2.8552,-2.9094,-3.4547,-3.3933,-3.3964,-3.3156,-3.1824,-3.1524,-3.1421,-3.1466,-3.1092,-3.1137,-3.1451,-3.0447,-2.9834,-2.9621,-2.9621,-2.9621,-2.9592,-2.9232,-2.8876,-2.8577,-2.8229,-2.7884,-2.76,-2.7585,-2.7585,-2.7585,-2.7585,-2.6911,-2.5659,-2.56,-2.4926,-2.3625,-2.3595,-2.3494,-2.3275,-2.3338,-2.3561,-2.3967,-2.335,-2.2697,-2.2009,-2.1797,-2.1443,-2.1038,-2.1702,-2.2087,-2.2013,-2.2302,-2.1979,-2.1053,-2.0664,-2.018,-1.9474,-1.8507,-1.7838,0.0,0.0,0.0,0.0,0.0,0.0,0.0,0.0,0.0,0.0,0.0,-1.8462,-1.932,-2.0491,-2.1228,-2.1265,-2.1469,-2.1792,-2.2269,-2.1948,-2.2154,-2.3311,-2.2706,-2.259,-2.3582,-2.3338,-2.3242,-2.3565,-2.4186,-2.4605,-2.4605,-2.5242,-2.5839,-2.6047,-2.5166,-2.4691,-2.552,-2.4635,-2.4036,-2.4699,-2.5346,-2.5809,-2.5793,-2.5956,-2.6082,-2.6136,-2.6294,-2.6434,-2.6485,-2.6485,-2.6485,-2.6485,-2.6485,-2.6485,-2.6553,-2.6874,-2.7314,-2.7686,-2.8127,-2.8535,-3.5128,-3.4653,-3.4638,-3.4249,-3.3605,-3.2916,-3.2228,-3.163,-3.154,-3.1496,-3.1466,-3.0868,-3.0328,-2.9876,-2.9819,-2.9861,-2.9819,-2.9771,-2.9355,-2.8742,-2.8637,-2.8259,-2.76,-2.7585,-2.7585,-2.7585,-2.7585,-2.6926,-2.563,-2.56,-2.4926,-2.364,-2.3595,-2.3595,-2.3595,-2.3732,-2.3818,-2.3925,-2.3309,-2.2687,-2.2091,-2.1444,-2.111,-2.1106,-2.158,-2.1838,-2.1849,-2.2394,-2.2106,-2.0925,-2.0968,-2.071,-2.0018,-1.9404,-1.8765,0.0,-1.7424,0.0,0.0,0.0,0.0,0.0,0.0,0.0,0.0,-1.8454,-1.9061,-2.0155,-2.1738,-2.2699,-2.2676,-2.3164,-2.3266,-2.2763,-2.2778,-2.2823,-2.2808,-2.2823,-2.3032,-2.3535,-2.3595,-2.3595,-2.3625,-2.4133,-2.447,-2.447,-2.4881,-2.5054,-2.4597,-2.414,-2.4219,-2.5192,-2.4392,-2.3931,-2.4287,-2.4679,-2.4962,-2.4981,-2.5218,-2.5465,-2.5666,-2.5957,-2.6242,-2.6415,-2.6433,-2.645,-2.645,-2.645,-2.6467,-2.6467,-2.6518,-2.6738,-2.7311,-2.755,-2.7873,-3.5285,-3.531,-3.531,-3.4921,-3.4279,-3.3589,-3.2931,-3.2287,-3.175,-3.1496,-3.1496,-3.1361,-3.1256,-3.1137,-3.1137,-3.1152,-3.1092,-3.0582,-2.9998,-2.9382,-2.8846,-2.8233,-2.7615,-2.7585,-2.7585,-2.7585,-2.7585,-2.6911,-2.5615,-2.56,-2.4926,-2.3625,-2.3595,-2.3595,-2.3595,0.0,0.0,0.0,-2.3065,-2.269,-2.2555,-2.1984,-2.1622,-2.1544,-2.1216,0.0,-2.0959,-2.1064,-2.0764,-2.0017,-2.0482,0.0,0.0,0.0,0.0,0.0,0.0,0.0,0.0,0.0,0.0,0.0,-2.0168,-1.9908,-1.9562,-2.0892,-2.1718,-2.1506,-2.2209,-2.2478,-2.1974,-2.2514,-2.2823,-2.2733,-2.3137,-2.343,-2.343,-2.3415,-2.3475,-2.358,-2.3595,-2.3595,-2.361,-2.3729,-2.3804,-2.3834,-2.3909,-2.3939,-2.3849,-2.4111,-2.447,-2.4702,-2.434,-2.4172,-2.4281,-2.4599,-2.476,-2.4922,-2.4942,-2.5109,-2.5382,-2.5512,-2.5781,-2.6101,-2.6256,-2.6206,-2.6224,-2.6256,-2.6224,-2.6222,-2.6294,-2.6415,-2.667,-2.6738,-2.6789,-3.5195,0.0,-3.5359,-3.5198,0.0,-3.4294,-3.3604,-3.2931,-3.1929,-3.1496,-3.1496,-3.1496,-3.1496,-3.1496,-3.1496,-3.1496,-3.1496,-3.1137,-3.0657,-3.0013,-2.9385,-2.8727,-2.8109,-2.775,-2.7585,-2.76,-2.7306,-2.6636,-2.5668,-2.5315,-2.4534,-2.3316,-2.3282,-2.3135,-2.286,-2.2875,-2.3084,-2.3595,-2.3295,-2.3002,-2.2703,-2.2399,-2.1899,-2.1246,-2.1554,0.0,0.0,0.0,0.0,0.0,0.0,0.0,0.0,0.0,0.0,-2.0209,-1.9975,-1.9951,-2.0234,-1.9978,-2.0065,-2.0704,-2.1049,-2.1094,-2.0764,-2.1959,-2.2574,-2.2284,-2.2783,-2.2996,-2.2697,-2.2957,-2.3131,-2.3167,-2.3415,-2.3595,-2.3595,-2.3595,-2.3595,-2.3595,-2.3595,-2.3595,-2.3595,-2.3595,-2.3595,-2.3595,-2.3595,-2.3595,-2.3625,-2.3879,-2.4096,-2.4118,-2.4016,-2.3967,-2.3943,-2.3799,-2.3819,-2.3804,-2.3701,-2.37,-2.3879,-2.4087,-2.4358,-2.4781,-2.4868,-2.492,-2.5125,-2.5408,-2.5656,-2.5673,-2.5692,-2.5727,-2.5829,-2.6182,-2.6485,-3.4968,-3.5133,-3.5148,-3.5261,-3.5347,-3.4692,-3.4038,-3.3245,0.0,0.0,0.0,-3.1496,-3.1496,-3.1496,-3.1496,-3.1496,-3.1496,-3.1496,-3.108,-3.0294,-2.9712,-2.9017,-2.8231,-2.7591,-2.7306,-2.724,-2.6774,-2.6205,-2.5557,-2.4998,-2.413,-2.308,-2.2949,-2.2635,-2.2128,-2.2105,-2.2521,-2.3297,-2.3443,-2.3233,-2.2757,-2.2826,-2.2323,-2.1226,-2.2054,-2.1994,-2.0927,-2.1814,-2.1769,-2.0598,-2.0794,-2.0828,-2.0557,-2.0689,-2.0963,-2.131,-2.1335,-2.1395,-2.15,-2.1002,-2.0793,-2.1017,-2.165,-2.1994,-2.1889,-2.2493,-2.2868,-2.2868,-2.331,-2.3595,-2.3595,-2.3595,-2.3595,-2.3595,-2.3595,-2.3595,-2.3595,-2.3595,-2.3595,-2.3595,-2.3595,-2.3595,-2.3595,-2.3595,-2.3595,-2.3595,-2.3595,-2.3595,-2.3595,-2.3625,-2.367,-2.3655,-2.3668,-2.3586,-2.3407,-2.3104,-2.2673,-2.2605,-2.2398,-2.2213,-2.2319,-2.2564,-2.2909,-2.344,-2.3397,-2.3548,-2.3801,-2.4362,-2.4793,-2.481,-2.4861,-2.4911,-2.4978,-2.5495,-2.5965,-3.4817,-3.4935,-3.4935,-3.4968,-3.4957,-3.4439,-3.3614,-3.2572,-3.1839,-3.1496,-3.1496,-3.1496,-3.1496,-3.1496,-3.1496,-3.1496,-3.1496,-3.1496,-3.0835,-2.9624,-2.9097,-2.8163,-2.6961,-2.6351,-2.6068,-2.6054,-2.5987,-2.5609,-2.5071,-2.4904,-2.4233,-2.3157,-2.2981,-2.2672,-2.2147,-2.2105,-2.2175,-2.2314,-2.2762,-2.2958,-2.2885,-2.3266,-2.3385,-2.3176,-2.2308,-2.1754,-2.1595,-2.1231,-2.0632,-1.9914,-2.0951,-2.1055,-1.9962,-2.0408,-2.0483,-2.0037,-1.9992,-2.0228,-2.0808,-2.0748,-2.1216,-2.2328,-2.2981,-2.3116,-2.2628,-2.3116,-2.3475,-2.3475,-2.355,-2.3595,-2.3595,-2.3595,-2.3595,-2.3595,-2.3595,-2.3595,-2.3595,-2.3595,-2.3595,-2.3595,-2.3595,-2.3595,-2.3595,-2.3595,-2.3595,-2.3595,-2.3595,-2.3595,-2.3595,-2.3595,-2.3595,-2.3595,-2.3595,-2.337,-2.3062,-2.2778,-2.2448,-2.1939,-2.1784,-2.1754,-2.2033,-2.2149,-2.2355,-2.2845,-2.2837,-2.2922,-2.3024,-2.341,-2.3714,-2.3798,-2.3984,-2.415,-2.4149,-2.4298,-2.4381,-3.465,-3.4783,-3.4783,-3.485,-3.4813,-3.3923,-3.3263,-3.2688,-3.1708,-3.1366,-3.1496,-3.1496,-3.1496,-3.1496,-3.1496,-3.1307,-3.0955,-3.1351,-3.0778,-2.9495,-2.8958,-2.8167,-2.7215,-2.6245,-2.5783,-2.5797,-2.5508,-2.5232,-2.4956,-2.4585,-2.3958,-2.3109,-2.2515,-2.2303,-2.2514,-2.1763,-2.1589,-2.2081,-2.2337,-2.2466,-2.2475,-2.2965,-2.293,-2.2315,-2.2272,-2.2172,-2.1812,-2.1863,-2.1553,-2.0812,-2.1365,-2.1246,-2.0333,-2.0543,-2.0902,-2.128,-2.1325,-2.161,-2.2233,-2.1964,-2.2044,-2.2643,-2.2957,-2.3167,-2.3197,-2.343,-2.3595,-2.3595,-2.3595,-2.3595,-2.3595,-2.3595,-2.3595,-2.3595,-2.3595,-2.3595,-2.3595,-2.3595,-2.3595,-2.3595,-2.3595,-2.3595,-2.3595,-2.3595,-2.3595,-2.3595,-2.3595,-2.3595,-2.3595,-2.3595,-2.3595,-2.3595,-2.3595,-2.349,-2.3197,-2.2568,-2.2104,-2.1724,-2.1081,-2.0756,-2.0871,-2.0889,-2.1072,-2.1348,-2.1436,-2.161,-2.1898,-2.2521,-2.2882,-2.3162,-2.3292,-2.3404,-2.3371,-2.3123,-2.3089,-3.4481,-3.4631,-3.4631,-3.4716,-3.4747,-3.3745,-3.3189,-3.2915,-3.1912,-3.1442,-3.1409,-3.1453,-3.138,-3.1278,-3.1278,-3.0911,-3.0419,-3.0807,-3.0434,-2.9299,-2.8579,-2.791,-2.7201,-2.5992,-2.5412,-2.5384,-2.4991,-2.4778,-2.4724,-2.4266,-2.3749,-2.3147,-2.219,-2.2032,-2.2625,-2.1471,-2.1191,-2.1756,-2.1789,-2.1837,-2.1955,-2.2558,-2.2478,-2.1719,-2.2283,-2.2417,-2.1968,-2.2243,-2.2126,-2.1433,-2.1714,-2.1525,-2.07,-2.0818,-2.1386,-2.2194,-2.2298,-2.2548,-2.3086,-2.2897,-2.2703,-2.2703,-2.2823,-2.3101,-2.3513,-2.3566,-2.3588,-2.3595,-2.3595,-2.3595,-2.3595,-2.3595,-2.3595,-2.3595,-2.3595,-2.3595,-2.3595,-2.3595,-2.3595,-2.3595,-2.3595,-2.3595,-2.3595,-2.3595,-2.3595,-2.3595,-2.3573,-2.3588,-2.3595,-2.3573,-2.353,-2.3595,-2.3595,-2.349,-2.3385,-2.2643,-2.1904,-2.159,-2.0677,-2.0142,-1.9936,-1.9786,-1.9812,-2.0142,-2.0163,-2.0383,-2.089,-2.1422,-2.189,-2.2102,-2.2312,-2.2533,-2.261,-2.2278,-2.2245,-3.4399,-3.4414,-3.4419,-3.4563,-3.4624,-3.4311,-3.3714,-3.297,-3.2654,-3.1981,-3.1176,-3.1263,-3.1058,-3.0644,-3.0658,-3.0299,-2.9673,-2.9659,-2.9362,-2.8589,-2.7469,-2.662,-2.6016,-2.4843,-2.4245,-2.4303,-2.4258,-2.4216,-2.4258,-2.4121,-2.3775,-2.3182,-2.2595,-2.2114,-2.172,-2.1537,-2.1248,-2.0823,-2.0848,-2.1046,-2.1482,-2.2411,-2.2838,-2.2735,-2.2228,-2.1961,-2.1852,-2.1389,-2.0868,-2.0507,-2.1779,-2.1863,-2.0557,-2.119,-2.1554,-2.1141,-2.1098,-2.1284,-2.1859,-2.2403,-2.2712,-2.2733,-2.3191,-2.3462,-2.3516,-2.3509,-2.3538,-2.3566,-2.3573,-2.3573,-2.3595,-2.3595,-2.3595,-2.3595,-2.3595,-2.3595,-2.3595,-2.3595,-2.3595,-2.3595,-2.3595,-2.3595,-2.3588,-2.3573,-2.3588,-2.3551,-2.3523,-2.3516,-2.3545,-2.3458,-2.3414,-2.3545,-2.3595,-2.337,-2.3002,-2.2748,-2.2128,-2.1152,-2.0733,-2.0329,-1.9956,-1.9731,-1.9726,-1.978,-1.978,-1.9871,-1.998,-2.0161,-2.0488,-2.0966,-2.1279,-2.1596,-2.1807,-2.1862,-2.2162,-3.408,-3.4341,-3.3568,-3.3329,-3.3351,-3.2908,-3.246,-3.209,-3.1635,-3.1229,-3.0969,-3.1102,-3.1117,-3.097,-3.097,-3.0644,-3.0133,-3.048,-3.0117,-2.9108,-2.8269,-2.7384,-2.6317,-2.5183,-2.4447,-2.4112,-2.4125,-2.4125,-2.4125,-2.4125,-2.3952,-2.3678,-2.3171,-2.289,-2.2897,-2.2365,-2.1878,-2.1654,-2.1324,-2.1129,-2.1073,-2.165,-2.1874,-2.1633,-2.1615,-2.1606,-2.1579,-2.1319,-2.1063,-2.0868,-2.1462,-2.1334,-2.0265,-2.0584,-2.0846,-2.0945,-2.1217,-2.1615,-2.2142,-2.2433,-2.271,-2.3022,-2.3266,-2.3392,-2.3385,-2.3363,-2.3422,-2.3429,-2.3494,-2.3538,-2.3538,-2.3588,-2.3595,-2.3595,-2.3566,-2.3545,-2.3595,-2.3545,-2.3545,-2.3573,-2.3595,-2.3588,-2.3538,-2.3458,-2.3451,-2.3414,-2.3392,-2.3407,-2.3414,-2.3363,-2.3363,-2.3392,-2.3414,-2.339,-2.3178,-2.2897,-2.2407,-2.1824,-2.1074,-2.0418,-2.0169,-1.9701,-1.9541,-1.9632,-1.9632,-1.9744,-2.0017,-2.0085,-2.0243,-2.0479,-2.086,-2.134,-2.148,-2.1678,-2.1948,-3.347,-3.3717,-3.2858,-3.2481,-3.2437,-3.1973,-3.156,-3.1173,-3.0773,-3.0454,-3.0206,-3.0538,-3.0657,-3.0658,-3.094,-3.0777,-3.0329,-3.0748,-3.0343,-2.9209,-2.852,-2.7561,-2.6482,-2.5329,-2.4534,-2.4171,-2.4125,-2.4125,-2.4125,-2.4125,-2.4125,-2.4047,-2.3652,-2.3537,-2.3672,-2.2958,-2.2524,-2.2295,-2.1786,-2.1302,-2.0999,-2.1126,-2.1106,-2.0934,-2.1229,-2.1385,-2.1385,-2.1385,-2.1281,-2.1023,-2.1259,-2.1014,-2.0257,-2.0238,-2.0511,-2.0969,-2.1452,-2.1852,-2.2267,-2.2291,-2.2498,-2.3016,-2.3068,-2.3127,-2.3238,-2.3393,-2.3407,-2.3238,-2.3474,-2.3637,-2.348,-2.348,-2.3523,-2.3523,-2.3473,-2.3473,-2.3501,-2.3473,-2.3451,-2.3501,-2.3486,-2.3501,-2.3451,-2.3363,-2.3319,-2.3319,-2.3275,-2.329,-2.3275,-2.3253,-2.3209,-2.3275,-2.329,-2.3319,-2.345,-2.321,-2.2765,-2.2114,-2.1258,-2.0675,-2.0287,-1.9664,-1.9409,-1.9523,-1.9523,-1.9614,-1.9782,-1.9977,-2.0137,-2.0513,-2.0828,-2.1039,-2.1151,-2.1371,-2.1525,-3.2539,-3.2568,-3.251,-3.2423,-3.2452,-3.2365,-3.1699,-3.0545,-3.0517,-2.9812,-2.8885,-2.9376,-2.9404,-2.9107,-3.0056,-3.0163,-2.9642,-2.9659,-2.9362,-2.8602,-2.753,-2.656,-2.5808,-2.4704,-2.4141,-2.4125,-2.4125,-2.4125,-2.4125,-2.4125,-2.4125,-2.4112,-2.4047,-2.3772,-2.3398,-2.3252,-2.2897,-2.2443,-2.1904,-2.1525,-2.142,-2.1013,-2.1027,-2.1282,-2.1375,-2.1361,-2.1361,-2.1385,-2.1129,-2.056,-2.1315,-2.1311,-2.0381,-2.0627,-2.0884,-2.0986,-2.1373,-2.1649,-2.171,-2.1738,-2.1978,-2.2449,-2.2617,-2.2721,-2.3113,-2.358,-2.3615,-2.3026,-2.3583,-2.3764,-2.3452,-2.3371,-2.3326,-2.3341,-2.3319,-2.3297,-2.3304,-2.3319,-2.3297,-2.3304,-2.3341,-2.3319,-2.3319,-2.3319,-2.3275,-2.3231,-2.3179,-2.3149,-2.3223,-2.309,-2.3068,-2.3187,-2.3201,-2.3149,-2.3275,-2.323,-2.2691,-2.2028,-2.1477,-2.0902,-2.0062,-1.9409,-1.9409,-1.9395,-1.9428,-1.9483,-1.9574,-1.9687,-1.9836,-2.0067,-2.0243,-2.043,-2.0729,-2.0795,-2.099,-3.1642,-3.1322,-3.1714,-3.1656,-3.1293,-3.1264,-3.075,-2.9946,-2.9915,-2.9396,-2.8693,-2.8903,-2.903,-2.8953,-2.9501,-2.9608,-2.939,-2.9456,-2.9362,-2.9004,-2.791,-2.7028,-2.6348,-2.5242,-2.4447,-2.4141,-2.4125,-2.4125,-2.4125,-2.4125,-2.4125,-2.4125,-2.4125,-2.3965,-2.3796,-2.377,-2.3498,-2.2962,-2.2688,-2.2426,-2.21,-2.1878,-2.1655,-2.1326,-2.1096,-2.0934,-2.0959,-2.0873,-2.0737,-2.0524,-2.0723,-2.0635,-2.0271,-2.0296,-2.0308,-2.0245,-2.0383,-2.0658,-2.097,-2.1326,-2.1726,-2.2248,-2.2641,-2.2832,-2.3014,-2.3256,-2.3423,-2.3512,-2.3392,-2.344,-2.3635,-2.3473,-2.3297,-2.3275,-2.3223,-2.3201,-2.3253,-2.3223,-2.3201,-2.3253,-2.3231,-2.3179,-2.3171,-2.3105,-2.3045,-2.3045,-2.3,-2.3,-2.3023,-2.2933,-2.2933,-2.3023,-2.3,-2.2992,-2.3023,-2.3209,-2.2966,-2.2209,-2.1551,-2.0894,-2.0128,-1.9495,-1.9345,-1.9335,-1.9321,-1.9372,-1.9483,-1.9505,-1.9636,-1.9672,-1.9821,-2.0035,-2.0292,-2.0378,-2.0629,-3.0959,-3.0699,-3.1032,-3.0974,-3.0627,-3.0612,-3.0221,-2.9623,-2.9591,-2.9062,-2.8344,-2.8551,-2.8519,-2.8312,-2.8693,-2.8739,-2.8675,-2.9174,-2.938,-2.9091,-2.8149,-2.736,-2.6654,-2.5539,-2.4784,-2.4406,-2.4191,-2.4125,-2.4125,-2.4125,-2.4125,-2.4125,-2.4125,-2.4067,-2.4067,-2.4037,-2.3803,-2.3464,-2.3243,-2.2946,-2.2662,-2.2425,-2.2096,-2.16,-2.1264,-2.0887,-2.0562,-2.0448,-2.0372,-2.0334,-2.022,-2.0131,-2.0042,-1.9978,-1.9888,-1.9811,-2.0013,-2.0231,-2.0605,-2.1146,-2.1668,-2.2165,-2.2537,-2.2817,-2.2962,-2.319,-2.3441,-2.3521,-2.3744,-2.3741,-2.3626,-2.3705,-2.3634,-2.3296,-2.3105,-2.306,-2.3157,-2.3068,-2.3082,-2.3112,-2.309,-2.3037,-2.3015,-2.2933,-2.291,-2.2888,-2.2888,-2.2888,-2.2888,-2.2888,-2.2888,-2.2888,-2.291,-2.291,-2.2933,-2.3053,-2.2629,-2.1877,-2.1819,-2.1114,-2.0215,-1.9643,-1.9323,-1.9282,-1.9265,-1.9302,-1.9321,-1.9376,-1.9395,-1.9395,-1.9527,-1.9732,-1.9892,-1.9997,-2.0239,-3.0627,-3.0612,-3.0612,-3.0641,-3.0612,-3.0612,-3.0221,-2.9654,-2.9591,-2.8885,-2.7802,-2.8182,-2.7802,-2.7053,-2.7676,-2.7689,-2.7556,-2.868,-2.8985,-2.8465,-2.7881,-2.7314,-2.6645,-2.5595,-2.5043,-2.4887,-2.4374,-2.4125,-2.4125,-2.4125,-2.4125,-2.4125,-2.4096,-2.4008,-2.3878,-2.3907,-2.3878,-2.3722,-2.3321,-2.3106,-2.3102,-2.2585,-2.2231,-2.206,-2.1939,-2.1359,-2.0322,-2.0258,-2.022,-2.0042,-2.0003,-1.9952,-1.9862,-1.9874,-1.9836,-1.9962,-2.039,-2.0679,-2.0769,-2.1249,-2.1814,-2.2197,-2.2345,-2.2613,-2.3017,-2.35,-2.3635,-2.346,-2.4006,-2.4367,-2.3572,-2.4081,-2.4167,-2.3163,-2.3049,-2.318,-2.2954,-2.291,-2.2888,-2.291,-2.291,-2.2888,-2.2888,-2.2888,-2.2888,-2.2888,-2.2888,-2.2888,-2.2888,-2.2888,-2.2888,-2.2888,-2.2888,-2.2888,-2.2888,-2.2823,-2.212,-2.1546,-2.1756,-2.1488,-2.0311,-1.9566,-1.9464,-1.939,-1.9186,-1.9209,-1.9246,-1.9284,-1.9321,-1.9339,-1.9417,-1.9453,-1.9548,-1.9693,-1.978,-3.0612,-3.0612,-3.0612,-3.0612,-3.0612,-3.0612,-3.0221,-2.9623,-2.9591,-2.8821,-2.7703,-2.7736,-2.7351,-2.6884,-2.7134,-2.7255,-2.7281,-2.7875,-2.8006,-2.7749,-2.7279,-2.6944,-2.6607,-2.5903,-2.5354,-2.4966,-2.4387,-2.4125,-2.4125,-2.4125,-2.4125,-2.4096,-2.4008,-2.3949,-2.3891,-2.376,-2.3688,-2.3675,-2.3521,-2.3418,-2.3476,-2.3251,-2.2924,-2.248,-2.2385,-2.1807,-2.0648,-2.0638,-2.0461,-2.0028,-1.9926,-1.9837,-1.9874,-2.0214,-2.0415,-2.0451,-2.0955,-2.1257,-2.132,-2.1732,-2.2115,-2.2322,-2.2645,-2.2878,-2.3036,-2.3267,-2.3508,-2.3644,-2.4122,-2.4173,-2.4381,-2.4551,-2.4307,-2.307,-2.3656,-2.3771,-2.3091,-2.2917,-2.2888,-2.2888,-2.2888,-2.2888,-2.2888,-2.2888,-2.2888,-2.2888,-2.2888,-2.2888,-2.2888,-2.2888,-2.2888,-2.2888,-2.2888,-2.2888,-2.2888,-2.2844,-2.2446,-2.1953,-2.2019,-2.1714,-2.0553,-2.003,-1.987,-1.9508,-1.929,-1.9207,-1.9245,-1.9209,-1.9228,-1.9242,-1.9276,-1.9298,-1.9321,-1.9398,-1.9508,-3.0612,-3.0612,-3.0612,-3.0612,-3.0612,-3.0612,-3.0387,-3.0007,-2.9976,-2.9328,-2.839,-2.7999,-2.7617,-2.7175,-2.7032,-2.7113,-2.7315,-2.7423,-2.7503,-2.7464,-2.7196,-2.6987,-2.687,-2.6132,-2.5524,-2.4979,-2.4387,-2.4125,-2.4125,-2.4125,-2.4125,-2.4096,-2.3979,-2.3861,-2.3789,-2.3611,-2.3552,-2.3552,-2.3539,-2.3539,-2.3569,-2.3539,-2.3327,-2.295,-2.2812,-2.2286,-2.1383,-2.1375,-2.1077,-2.0444,-2.0353,-2.0426,-2.0464,-2.0817,-2.0993,-2.1106,-2.1483,-2.1794,-2.1845,-2.2297,-2.2594,-2.2656,-2.2907,-2.3083,-2.3095,-2.3095,-2.3395,-2.3936,-2.4316,-2.4518,-2.4845,-2.5374,-2.4916,-2.3766,-2.4264,-2.4317,-2.349,-2.3273,-2.3128,-2.3004,-2.2888,-2.2888,-2.2888,-2.2888,-2.2888,-2.2888,-2.2888,-2.2888,-2.2888,-2.2888,-2.2888,-2.2888,-2.2888,-2.2888,-2.2888,-2.283,-2.2743,-2.2533,-2.2374,-2.1772,-2.0843,-2.0886,-2.0843,-2.0045,-1.9638,-1.9653,-1.9677,-1.9265,-1.9153,-1.9145,-1.9275,-1.9168,-1.9195,-1.9228,-1.9321,-3.0612,-3.0612,-3.0538,-3.0507,-3.0477,-3.0403,-3.0282,-3.0372,-3.0342,-2.9856,-2.9202,-2.8473,-2.8045,-2.761,-2.7113,-2.7058,-2.7281,-2.7403,-2.7503,-2.7503,-2.7425,-2.7411,-2.7268,-2.6425,-2.5694,-2.5079,-2.457,-2.4213,-2.4067,-2.4145,-2.4109,-2.4037,-2.3878,-2.376,-2.3611,-2.3463,-2.3373,-2.3373,-2.3373,-2.342,-2.3526,-2.3463,-2.3348,-2.331,-2.3135,-2.2786,-2.2246,-2.2133,-2.1732,-2.0955,-2.1144,-2.1317,-2.143,-2.1506,-2.1531,-2.1556,-2.2046,-2.2297,-2.2431,-2.2732,-2.302,-2.302,-2.3045,-2.3095,-2.3095,-2.3125,-2.3365,-2.4044,-2.4599,-2.4943,-2.5208,-2.5959,-2.5973,-2.5172,-2.4882,-2.452,-2.4051,-2.3929,-2.3519,-2.3033,-2.2888,-2.2888,-2.2888,-2.2888,-2.2888,-2.2888,-2.2888,-2.2888,-2.2888,-2.2888,-2.2888,-2.2888,-2.2888,-2.2888,-2.2888,-2.2873,-2.2801,-2.2743,-2.2606,-2.2055,-2.1336,-2.1394,-2.1336,-2.0567,-2.0059,-2.0088,-1.9957,-1.958,-1.9493,-1.9682,-1.9595,-1.9261,-1.9304,-1.956,-1.9521,-3.0612,-3.0552,-3.0068,-2.9884,-2.9777,-2.9314,-2.9066,-2.9066,-2.9066,-2.8739,-2.8122,-2.7868,-2.7419,-2.6871,-2.6824,-2.6897,-2.7048,-2.7242,-2.7403,-2.7456,-2.7403,-2.7403,-2.7372,-2.6804,-2.6138,-2.5571,-2.5279,-2.4888,-2.4027,-2.4326,-2.424,-2.373,-2.3616,-2.3509,-2.3433,-2.3275,-2.3198,-2.3168,-2.318,-2.3198,-2.3228,-2.3198,-2.3168,-2.3168,-2.3138,-2.2832,-2.2385,-2.2322,-2.202,-2.1395,-2.1421,-2.1481,-2.1581,-2.1895,-2.2083,-2.2133,-2.2531,-2.2857,-2.2882,-2.3007,-2.3095,-2.3095,-2.3095,-2.3095,-2.3095,-2.3095,-2.3424,-2.4031,-2.4652,-2.519,-2.5628,-2.6332,-2.648,-2.6257,-2.5462,-2.4824,-2.452,-2.4152,-2.3644,-2.3033,-2.2888,-2.2888,-2.2888,-2.2888,-2.2888,-2.2888,-2.2888,-2.2888,-2.2888,-2.2888,-2.2888,-2.2888,-2.2888,-2.2888,-2.2888,-2.2888,-2.2873,-2.2873,-2.2751,-2.2533,-2.1888,-2.1525,-2.1278,-2.0785,-2.0538,-2.048,-2.0248,-1.9943,-2.0074,-2.0277,-2.0277,-2.0161,-2.0364,-2.0573,-2.0268,-3.0447,-3.016,-2.9747,-2.9421,-2.9125,-2.8698,-2.8388,-2.8171,-2.8157,-2.7818,-2.7301,-2.6881,-2.6648,-2.6334,-2.6103,-2.6115,-2.6319,-2.6683,-2.6873,-2.6958,-2.7085,-2.7201,-2.7139,-2.6719,-2.6149,-2.5643,-2.5604,-2.5024,-2.43,-2.4442,-2.4335,-2.4009,-2.3441,-2.328,-2.3467,-2.3035,-2.2954,-2.3058,-2.3095,-2.3095,-2.3095,-2.3095,-2.2932,-2.2895,-2.2945,-2.292,-2.2669,-2.2631,-2.2468,-2.2246,-2.2196,-2.2184,-2.2209,-2.2431,-2.2543,-2.2397,-2.2794,-2.302,-2.2857,-2.2957,-2.3095,-2.3095,-2.3095,-2.3095,-2.3095,-2.3095,-2.3395,-2.4044,-2.4652,-2.5245,-2.5852,-2.6447,-2.6753,-2.6634,-2.6083,-2.5404,-2.494,-2.4505,-2.3853,-2.3229,-2.2888,-2.2888,-2.2888,-2.2888,-2.2888,-2.2888,-2.2888,-2.2888,-2.2888,-2.2888,-2.2888,-2.2888,-2.2888,-2.2888,-2.2888,-2.2888,-2.2888,-2.2888,-2.2844,-2.2693,-2.2403,-2.1888,-2.1728,-2.1467,-2.1119,-2.0843,-2.0741,-2.0669,-2.0756,-2.093,-2.1017,-2.1017,-2.1075,-2.1264,-2.0973,-3.0206,-2.9591,-2.9515,-2.9062,-2.8414,-2.8217,-2.7833,-2.7597,-2.7332,-2.7077,-2.6654,-2.6007,-2.5829,-2.5928,-2.5429,-2.5199,-2.5378,-2.5979,-2.6268,-2.6499,-2.6747,-2.6977,-2.6892,-2.6609,-2.6057,-2.5608,-2.5435,-2.5109,-2.4707,-2.456,-2.4546,-2.4295,-2.3428,-2.3169,-2.3323,-2.2917,-2.2799,-2.305,-2.3095,-2.3095,-2.307,-2.2995,-2.2732,-2.2506,-2.2732,-2.2907,-2.292,-2.2995,-2.302,-2.307,-2.3095,-2.2995,-2.3032,-2.3058,-2.2844,-2.2531,-2.2744,-2.2782,-2.2569,-2.2907,-2.3095,-2.3095,-2.3095,-2.3095,-2.3095,-2.3095,-2.3365,-2.4044,-2.4595,-2.5147,-2.5797,-2.634,-2.658,-2.6645,-2.6666,-2.6092,-2.5313,-2.4868,-2.4322,-2.3207,-2.2975,-2.2888,-2.2888,-2.2888,-2.2888,-2.2888,-2.2888,-2.2888,-2.2888,-2.2888,-2.2888,-2.2888,-2.2888,-2.2888,-2.2888,-2.2888,-2.2888,-2.2888,-2.2888,-2.2823,-2.2823,-2.2504,-2.2417,-2.2185,-2.1728,-2.1569,-2.1612,-2.1583,-2.1496,-2.1554,-2.1641,-2.1467,-2.1336,-2.1656,-2.1591,-3.019,-2.956,-2.8985,-2.833,-2.7624,-2.6685,-2.644,-2.6691,-2.5845,-2.5743,-2.5691,-2.5262,-2.5071,-2.509,-2.488,-2.4968,-2.509,-2.5599,-2.6159,-2.6616,-2.6659,-2.6692,-2.6692,-2.665,-2.6419,-2.6094,-2.6389,-2.5965,-2.5198,-2.5122,-2.5065,-2.4203,-2.3799,-2.3543,-2.3228,-2.3064,-2.2987,-2.3095,-2.3095,-2.3083,-2.2957,-2.2681,-2.2431,-2.2255,-2.238,-2.2456,-2.2585,-2.2869,-2.3083,-2.3095,-2.3095,-2.3095,-2.3045,-2.2719,-2.2581,-2.2681,-2.2556,-2.2594,-2.2844,-2.2957,-2.3095,-2.3095,-2.3095,-2.3095,-2.3095,-2.3095,-2.3424,-2.3943,-2.4247,-2.4808,-2.5647,-2.5536,-2.5892,-2.6353,-2.6312,-2.5987,-2.5593,-2.5129,-2.4505,-2.3795,-2.3229,-2.2888,-2.2888,-2.2888,-2.2888,-2.2888,-2.2888,-2.2888,-2.2888,-2.2888,-2.2888,-2.2888,-2.2888,-2.2888,-2.2888,-2.2888,-2.2888,-2.2888,-2.2888,-2.2888,-2.2888,-2.2873,-2.2707,-2.2504,-2.2229,-2.2193,-2.2178,-2.2077,-2.1917,-2.2091,-2.2236,-2.2156,-2.2127,-2.2287,-2.2214,-3.019,-2.9577,-2.9188,-2.8441,-2.7485,-2.6793,-2.6337,-2.6017,-2.5473,-2.5197,-2.5096,-2.4669,-2.4443,-2.4393,-2.4123,-2.4035,-2.4267,-2.4766,-2.5449,-2.5984,-2.6186,-2.6303,-2.6508,-2.662,-2.6447,-2.6041,-2.6447,-2.6013,-2.5315,-2.5176,-2.5025,-2.44,-2.3757,-2.3472,-2.3442,-2.3072,-2.2929,-2.3058,-2.3095,-2.2995,-2.2694,-2.2456,-2.2133,-2.1983,-2.1945,-2.202,-2.2305,-2.2819,-2.3058,-2.3095,-2.3095,-2.3095,-2.3007,-2.2611,-2.2368,-2.2272,-2.2393,-2.2234,-2.2406,-2.2807,-2.3095,-2.3095,-2.3095,-2.3095,-2.3095,-2.3095,-2.3245,-2.359,-2.3943,-2.4494,-2.5356,-2.5273,-2.5467,-2.5674,-2.5701,-2.5561,-2.5718,-2.5484,-2.4892,-2.4152,-2.3586,-2.3229,-2.307,-2.296,-2.2888,-2.2888,-2.2888,-2.2888,-2.2888,-2.2888,-2.2888,-2.2888,-2.2888,-2.2888,-2.2888,-2.2888,-2.2888,-2.2888,-2.2888,-2.2888,-2.2888,-2.2888,-2.2859,-2.2678,-2.2504,-2.2548,-2.2519,-2.2439,-2.2396,-2.2504,-2.2649,-2.2815,-2.2815,-2.2627,-2.2577,-3.0146,-2.9467,-2.956,-2.8703,-2.7353,-2.7235,-2.6657,-2.5703,-2.5511,-2.5234,-2.4876,-2.4356,-2.423,-2.3941,-2.3572,-2.3283,-2.3459,-2.3979,-2.4928,-2.5644,-2.5908,-2.616,-2.6424,-2.6471,-2.6332,-2.5833,-2.6131,-2.5707,-2.5059,-2.482,-2.4834,-2.457,-2.3541,-2.3283,-2.3616,-2.3077,-2.2623,-2.2874,-2.2732,-2.2531,-2.2196,-2.2033,-2.1681,-2.1255,-2.133,-2.1518,-2.1958,-2.2493,-2.2945,-2.2982,-2.3058,-2.3095,-2.297,-2.2581,-2.2234,-2.1807,-2.2209,-2.2259,-2.2297,-2.2656,-2.3095,-2.3095,-2.3095,-2.3095,-2.3095,-2.3095,-2.3125,-2.3275,-2.3603,-2.4118,-2.4766,-2.4582,-2.4738,-2.4992,-2.4992,-2.5203,-2.5713,-2.5852,-2.5257,-2.4544,-2.3978,-2.3557,-2.3244,-2.3047,-2.296,-2.2888,-2.2888,-2.2888,-2.2888,-2.2888,-2.2888,-2.2888,-2.2888,-2.2888,-2.2888,-2.2888,-2.2888,-2.2888,-2.2888,-2.2888,-2.2888,-2.2888,-2.2888,-2.2888,-2.2801,-2.2786,-2.2772,-2.2722,-2.2736,-2.2873,-2.2888,-2.2888,-2.2888,-2.2888,-2.2844,-2.9856,-2.873,-2.9359,-2.8202,-2.6228,-2.6583,-2.6394,-2.5589,-2.5209,-2.5172,-2.5372,-2.4921,-2.4443,-2.4117,-2.3954,-2.3853,-2.396,-2.4387,-2.4946,-2.5594,-2.5959,-2.6336,-2.6449,-2.6487,-2.6386,-2.626,-2.6047,-2.5435,-2.4983,-2.482,-2.4607,-2.4211,-2.3796,-2.3658,-2.3256,-2.2673,-2.2464,-2.256,-2.2259,-2.192,-2.1681,-2.132,-2.0941,-2.0528,-2.0803,-2.1081,-2.1295,-2.1958,-2.2418,-2.2468,-2.2869,-2.3058,-2.3007,-2.2594,-2.2481,-2.2518,-2.241,-2.2359,-2.2623,-2.2895,-2.3095,-2.3095,-2.3095,-2.3095,-2.3095,-2.3095,-2.3095,-2.3125,-2.3245,-2.3573,-2.4147,-2.3884,-2.4047,-2.4467,-2.4595,-2.4681,-2.555,-2.5778,-2.5785,-2.5354,-2.4621,-2.3847,-2.3519,-2.3186,-2.2946,-2.2888,-2.2888,-2.2888,-2.2888,-2.2888,-2.2888,-2.2888,-2.2888,-2.2888,-2.2888,-2.2888,-2.2888,-2.2888,-2.2888,-2.2888,-2.2888,-2.2888,-2.2888,-2.2888,-2.2888,-2.2859,-2.2859,-2.2888,-2.2888,-2.2888,-2.2888,-2.2888,-2.2888,-2.2888,-2.2888,-2.9993,-2.9125,-2.9453,-2.8452,-2.6861,-2.6934,-2.6535,-2.569,-2.5636,-2.5624,-2.5536,-2.5322,-2.5161,-2.4936,-2.4665,-2.4469,-2.4443,-2.4747,-2.5075,-2.5396,-2.577,-2.6248,-2.6449,-2.6487,-2.6273,-2.6025,-2.5686,-2.5322,-2.4838,-2.48,-2.4481,-2.4042,-2.371,-2.3509,-2.3434,-2.3062,-2.2744,-2.2598,-2.2196,-2.1744,-2.1481,-2.0993,-2.0641,-2.0817,-2.0943,-2.1245,-2.1594,-2.1907,-2.2443,-2.2719,-2.297,-2.307,-2.302,-2.2895,-2.2681,-2.2669,-2.2468,-2.241,-2.2719,-2.2895,-2.3095,-2.3095,-2.3095,-2.3095,-2.3095,-2.3095,-2.3095,-2.3095,-2.3095,-2.3215,-2.3543,-2.3275,-2.3442,-2.3767,-2.3809,-2.4292,-2.5049,-2.5398,-2.5776,-2.6,-2.5216,-2.4399,-2.3775,-2.3403,-2.3004,-2.2888,-2.2888,-2.2888,-2.2888,-2.2888,-2.2888,-2.2888,-2.2888,-2.2888,-2.2888,-2.2888,-2.2888,-2.2888,-2.2888,-2.2888,-2.2888,-2.2888,-2.2888,-2.2888,-2.2888,-2.2888,-2.2888,-2.2888,-2.2888,-2.2888,-2.2888,-2.2888,-2.2888,-2.2888,-2.2888,-2.9931,-2.9188,-2.9328,-2.8515,-2.7281,-2.7334,-2.6646,-2.5744,-2.5929,-2.5963,-2.5749,-2.5607,-2.5706,-2.5757,-2.539,-2.4969,-2.4692,-2.5065,-2.5248,-2.5302,-2.5657,-2.6122,-2.6373,-2.6436,-2.6298,-2.6047,-2.5649,-2.5272,-2.465,-2.4562,-2.4305,-2.3785,-2.3271,-2.3296,-2.354,-2.3208,-2.3133,-2.2932,-2.2556,-2.2033,-2.1506,-2.1144,-2.1119,-2.1543,-2.1584,-2.1719,-2.2133,-2.2259,-2.2456,-2.2757,-2.2995,-2.3095,-2.3095,-2.3095,-2.2895,-2.2585,-2.2485,-2.2472,-2.2611,-2.2819,-2.3095,-2.3095,-2.3095,-2.3095,-2.3095,-2.3095,-2.3095,-2.3095,-2.3095,-2.3095,-2.3185,-2.3125,-2.3125,-2.3228,-2.3395,-2.375,-2.4709,-2.5328,-2.5907,-2.5893,-2.5459,-2.495,-2.4302,-2.3702,-2.3302,-2.2902,-2.2888,-2.2888,-2.2888,-2.2888,-2.2888,-2.2888,-2.2888,-2.2888,-2.2888,-2.2888,-2.2888,-2.2888,-2.2888,-2.2888,-2.2888,-2.2888,-2.2888,-2.2888,-2.2888,-2.2888,-2.2888,-2.2888,-2.2888,-2.2888,-2.2888,-2.2888,-2.2888,-2.2888,-2.2888,-2.8949,-2.7802,-2.8376,-2.7517,-2.6149,-2.6694,-2.6278,-2.521,-2.5246,-2.5554,-2.5866,-2.5731,-2.5823,-2.6003,-2.5621,-2.5237,-2.5237,-2.5541,-2.5671,-2.561,-2.6021,-2.6348,-2.6487,-2.6487,-2.6449,-2.6223,-2.5837,-2.5021,-2.4456,-2.4243,-2.381,-2.3333,-2.3221,-2.317,-2.3271,-2.3283,-2.3108,-2.302,-2.2594,-2.2083,-2.1619,-2.1471,-2.1719,-2.2008,-2.1907,-2.1958,-2.251,-2.2598,-2.2556,-2.2598,-2.2945,-2.3095,-2.3095,-2.3095,-2.3095,-2.3032,-2.3007,-2.3007,-2.297,-2.3045,-2.3095,-2.3095,-2.3095,-2.3095,-2.3095,-2.3095,-2.3095,-2.3095,-2.3095,-2.3095,-2.3095,-2.3095,-2.3095,-2.3245,-2.3484,-2.4031,-2.4794,-2.4936,-2.5564,-2.609,-2.5753,-2.5344,-2.4839,-2.4186,-2.3615,-2.32,-2.2888,-2.2888,-2.2888,-2.2888,-2.2888,-2.2888,-2.2888,-2.2888,-2.2888,-2.2888,-2.2888,-2.2888,-2.2888,-2.2888,-2.2888,-2.2888,-2.2888,-2.2888,-2.2888,-2.2888,-2.2888,-2.2888,-2.2888,-2.2888,-2.2888,-2.2888,-2.2888,-2.2888,-2.2888,-2.8065,-2.755,-2.7822,-2.7307,-2.6358,-2.6634,-2.6154,-2.5358,-2.5427,-2.547,-2.5503,-2.5618,-2.5941,-2.6294,-2.6279,-2.6069,-2.5855,-2.61,-2.6109,-2.587,-2.6194,-2.6461,-2.6487,-2.6487,-2.6487,-2.6424,-2.6172,-2.5548,-2.4732,-2.4092,-2.3715,-2.3183,-2.3095,-2.3108,-2.3158,-2.3434,-2.3559,-2.3446,-2.3045,-2.251,-2.2096,-2.202,-2.2372,-2.3163,-2.2673,-2.2869,-2.3333,-2.3389,-2.3288,-2.3301,-2.3552,-2.3396,-2.3195,-2.3095,-2.3095,-2.3095,-2.3095,-2.3083,-2.3083,-2.3095,-2.3095,-2.3095,-2.3095,-2.3095,-2.3095,-2.3095,-2.3095,-2.3095,-2.3095,-2.3095,-2.3095,-2.3095,-2.3095,-2.3245,-2.3514,-2.3914,-2.4408,-2.4595,-2.4979,-2.5548,-2.604,-2.5586,-2.5135,-2.4578,-2.3867,-2.3244,-2.2946,-2.2888,-2.2888,-2.2888,-2.2888,-2.2888,-2.2888,-2.2888,-2.2888,-2.2888,-2.2888,-2.2888,-2.2888,-2.2888,-2.2888,-2.2888,-2.2888,-2.2888,-2.2888,-2.2888,-2.2888,-2.2888,-2.2888,-2.2888,-2.2888,-2.2888,-2.2888,-2.2888,-2.2888,-2.7417,-2.7263,-2.725,-2.7027,-2.6688,-2.6608,-2.6105,-2.5428,-2.5409,-2.5364,-2.537,-2.5717,-2.6228,-2.6498,-2.6743,-2.6611,-2.6251,-2.643,-2.6211,-2.6042,-2.5988,-2.6097,-2.616,-2.6235,-2.6336,-2.6461,-2.6197,-2.5598,-2.4895,-2.4268,-2.3715,-2.3133,-2.3095,-2.3095,-2.3258,-2.3627,-2.3916,-2.3879,-2.3521,-2.3045,-2.2594,-2.2481,-2.3075,-2.3477,-2.3602,-2.3572,-2.4336,-2.3973,-2.3715,-2.3678,-2.364,-2.3409,-2.317,-2.3095,-2.3095,-2.3095,-2.3095,-2.3095,-2.3095,-2.3095,-2.3095,-2.3095,-2.3095,-2.3095,-2.3095,-2.3095,-2.3095,-2.3095,-2.3095,-2.3095,-2.3095,-2.3095,-2.3095,-2.3185,-2.3365,-2.3662,-2.4002,-2.4337,-2.4709,-2.5245,-2.5669,-2.571,-2.528,-2.4828,-2.4186,-2.3403,-2.307,-2.2917,-2.2888,-2.2888,-2.2888,-2.2888,-2.2888,-2.2888,-2.2888,-2.2888,-2.2888,-2.2888,-2.2888,-2.2888,-2.2888,-2.2888,-2.2888,-2.2888,-2.2888,-2.2888,-2.2888,-2.2888,-2.2888,-2.2888,-2.2888,-2.2888,-2.2888,-2.2888,-2.2888,-2.7142,-2.6568,-2.6589,-2.6645,-2.6641,-2.6289,-2.5916,-2.5427,-2.4895,-2.4967,-2.5364,-2.6286,-2.6337,-2.6248,-2.6574,-2.6786,-2.6549,-2.6143,-2.5828,-2.5501,-2.5234,-2.5372,-2.5536,-2.5737,-2.5887,-2.6197,-2.5887,-2.5347,-2.4808,-2.4243,-2.3659,-2.3183,-2.3108,-2.3095,-2.3271,-2.3678,-2.3966,-2.3991,-2.3841,-2.3521,-2.312,-2.3007,-2.3321,-2.3703,-2.3496,-2.3396,-2.4004,-2.3697,-2.3409,-2.3421,-2.3452,-2.3308,-2.317,-2.3108,-2.3095,-2.3095,-2.3095,-2.3095,-2.3095,-2.3095,-2.3095,-2.3095,-2.3095,-2.3095,-2.3095,-2.3095,-2.3095,-2.3095,-2.3095,-2.3095,-2.3095,-2.3095,-2.3095,-2.3155,-2.3305,-2.3573,-2.3914,-2.4279,-2.4639,-2.5035,-2.5246,-2.5313,-2.5489,-2.5066,-2.4472,-2.3699,-2.307,-2.2888,-2.2888,-2.2888,-2.2888,-2.2888,-2.2888,-2.2888,-2.2888,-2.2888,-2.2888,-2.2888,-2.2888,-2.2888,-2.2888,-2.2888,-2.2888,-2.2888,-2.2888,-2.2888,-2.2888,-2.2888,-2.2888,-2.2888,-2.2888,-2.2888,-2.2888,-2.2888,-2.2888,-2.6748,-2.6487,-2.6487,-2.6589,-2.6701,-2.6519,-2.6074,-2.539,-2.5013,-2.4715,-2.4683,-2.5603,-2.5802,-2.5618,-2.6181,-2.6219,-2.5648,-2.5723,-2.5405,-2.5159,-2.4926,-2.4926,-2.5076,-2.5114,-2.5247,-2.541,-2.5197,-2.4833,-2.4318,-2.4092,-2.3678,-2.3283,-2.3108,-2.3095,-2.3283,-2.364,-2.3891,-2.3966,-2.3941,-2.3703,-2.3233,-2.3133,-2.3384,-2.3904,-2.3879,-2.3966,-2.4393,-2.4274,-2.3973,-2.3715,-2.3615,-2.3384,-2.3158,-2.3108,-2.3095,-2.3095,-2.3095,-2.3095,-2.3095,-2.3095,-2.3095,-2.3095,-2.3095,-2.3095,-2.3095,-2.3095,-2.3095,-2.3095,-2.3095,-2.3095,-2.3095,-2.3095,-2.3095,-2.3155,-2.3305,-2.3514,-2.3679,-2.3989,-2.4192,-2.4452,-2.4696,-2.4869,-2.5121,-2.5307,-2.4662,-2.3994,-2.3395,-2.2902,-2.296,-2.2888,-2.2888,-2.2888,-2.2888,-2.2888,-2.2888,-2.2888,-2.2888,-2.2888,-2.2888,-2.2888,-2.2888,-2.2888,-2.2888,-2.2888,-2.2888,-2.2888,-2.2888,-2.2888,-2.2888,-2.2888,-2.2888,-2.2888,-2.2888,-2.2888,-2.2888,-2.6487,-2.6487,-2.6487,-2.6602,-2.6679,-2.6692,-2.6146,-2.5358,-2.5135,-2.457,-2.3841,-2.4833,-2.5071,-2.4971,-2.5448,-2.5644,-2.5046,-2.4971,-2.4845,-2.4607,-2.4336,-2.4412,-2.4487,-2.4587,-2.4662,-2.4713,-2.477,-2.4569,-2.4079,-2.4004,-2.3622,-2.3271,-2.3095,-2.3095,-2.3195,-2.3459,-2.374,-2.374,-2.3672,-2.3572,-2.312,-2.312,-2.3208,-2.3647,-2.3609,-2.3735,-2.3998,-2.396,-2.3873,-2.3703,-2.3602,-2.3459,-2.3246,-2.3095,-2.3095,-2.3095,-2.3095,-2.3095,-2.3095,-2.3095,-2.3095,-2.3095,-2.3095,-2.3095,-2.3095,-2.3095,-2.3095,-2.3095,-2.3095,-2.3095,-2.3095,-2.3095,-2.3095,-2.3125,-2.3125,-2.3275,-2.3275,-2.3442,-2.359,-2.3738,-2.4076,-2.4496,-2.472,-2.498,-2.4975,-2.4384,-2.3838,-2.3403,-2.3316,-2.3171,-2.2888,-2.2888,-2.2888,-2.2888,-2.2888,-2.2888,-2.2888,-2.2888,-2.2888,-2.2888,-2.2888,-2.2888,-2.2888,-2.2888,-2.2888,-2.2888,-2.2888,-2.2888,-2.2888,-2.2888,-2.2888,-2.2888,-2.2888,-2.2888,-2.2888,-2.6487,-2.6487,-2.6474,-2.6517,-2.6629,-2.6667,-2.6095,-2.5173,-2.4963,-2.4273,-2.3409,-2.4336,-2.4487,-2.4268,-2.4782,-2.4825,-2.4582,-2.4293,-2.4104,-2.3966,-2.3647,-2.3622,-2.3822,-2.4054,-2.4136,-2.465,-2.455,-2.4243,-2.3916,-2.3853,-2.3521,-2.3258,-2.3095,-2.3095,-2.3095,-2.3108,-2.3133,-2.3145,-2.3183,-2.3158,-2.3133,-2.3095,-2.3183,-2.3233,-2.3271,-2.3396,-2.3446,-2.3484,-2.3409,-2.3333,-2.3283,-2.3208,-2.3133,-2.3095,-2.3095,-2.3095,-2.3095,-2.3095,-2.3095,-2.3095,-2.3095,-2.3095,-2.3095,-2.3095,-2.3095,-2.3095,-2.3095,-2.3095,-2.3095,-2.3095,-2.3095,-2.3095,-2.3095,-2.3095,-2.3095,-2.3095,-2.3095,-2.3095,-2.3275,-2.3395,-2.375,-2.415,-2.4338,-2.4586,-2.4932,-2.4722,-2.424,-2.3963,-2.3833,-2.3484,-2.3171,-2.2888,-2.2873,-2.2736,-2.2736,-2.2844,-2.2888,-2.2888,-2.2888,-2.2888,-2.2888,-2.2888,-2.2888,-2.2888,-2.2888,-2.2888,-2.2888,-2.2888,-2.2888,-2.2888,-2.2888,-2.2888,-2.2888,-2.2888,-2.2888,-2.6487,-2.6449,-2.6084,-2.5921,-2.5975,-2.5988,-2.5403,-2.4463,-2.3959,-2.3507,-2.3351,-2.3979,-2.3923,-2.3797,-2.4199,-2.4374,-2.3785,-2.4092,-2.3904,-2.3384,-2.317,-2.3233,-2.3414,-2.3484,-2.3547,-2.3622,-2.3659,-2.371,-2.3401,-2.3459,-2.3371,-2.3133,-2.3095,-2.3095,-2.3095,-2.3095,-2.3108,-2.3108,-2.3108,-2.3108,-2.3095,-2.3095,-2.3095,-2.3095,-2.3095,-2.3095,-2.3095,-2.3095,-2.3095,-2.3095,-2.3095,-2.3095,-2.3095,-2.3095,-2.3095,-2.3095,-2.3095,-2.3095,-2.3095,-2.3095,-2.3095,-2.3095,-2.3095,-2.3095,-2.3095,-2.3095,-2.3095,-2.3095,-2.3095,-2.3095,-2.3095,-2.3095,-2.3095,-2.3095,-2.3095,-2.3095,-2.3095,-2.3095,-2.3155,-2.3185,-2.3424,-2.3839,-2.41,-2.4549,-2.4898,-2.5145,-2.478,-2.4606,-2.4476,-2.3963,-2.3543,-2.3084,-2.283,-2.262,-2.2533,-2.2649,-2.2728,-2.2728,-2.2801,-2.2888,-2.2888,-2.2888,-2.2888,-2.2888,-2.2888,-2.2888,-2.2888,-2.2888,-2.2888,-2.2888,-2.2888,-2.2888,-2.2888,-2.2888,-2.2888,-2.6487,-2.6449,-2.605,-2.5661,-2.5372,-2.5322,-2.4808,-2.3979,-2.3371,-2.3095,-2.3195,-2.3509,-2.3484,-2.3434,-2.3722,-2.3973,-2.3158,-2.3446,-2.3584,-2.3108,-2.3108,-2.3133,-2.312,-2.3095,-2.3208,-2.3095,-2.3095,-2.312,-2.3158,-2.312,-2.3108,-2.312,-2.3095,-2.3095,-2.3095,-2.3095,-2.3095,-2.3095,-2.3095,-2.3095,-2.3095,-2.3095,-2.3095,-2.3095,-2.3095,-2.3095,-2.3095,-2.3095,-2.3095,-2.3095,-2.3095,-2.3095,-2.3095,-2.3095,-2.3095,-2.3095,-2.3095,-2.3095,-2.3095,-2.3095,-2.3095,-2.3095,-2.3095,-2.3095,-2.3095,-2.3095,-2.3095,-2.3095,-2.3095,-2.3095,-2.3095,-2.3095,-2.3095,-2.3095,-2.3095,-2.3095,-2.3095,-2.3095,-2.3095,-2.3095,-2.3155,-2.3543,-2.3927,-2.4481,-2.4969,-2.5174,-2.535,-2.5183,-2.504,-2.4549,-2.4065,-2.3664,-2.3229,-2.2997,-2.2707,-2.2432,-2.2519,-2.2577,-2.2635,-2.2693,-2.2888,-2.2888,-2.2888,-2.2873,-2.2859,-2.2859,-2.2873,-2.2888,-2.2917,-2.2917,-2.2888,-2.2888,-2.2888,-2.2888,-2.2888,-2.6487,-2.6487,-2.6474,-2.5799,-2.4971,-2.4858,-2.4456,-2.3916,-2.3346,-2.3095,-2.312,-2.3145,-2.3145,-2.312,-2.3183,-2.317,-2.3133,-2.317,-2.3158,-2.3133,-2.3095,-2.3095,-2.3095,-2.3095,-2.3095,-2.3095,-2.3095,-2.3095,-2.3095,-2.3095,-2.3095,-2.3095,-2.3095,-2.3095,-2.3095,-2.3095,-2.3095,-2.3095,-2.3095,-2.3095,-2.3095,-2.3095,-2.3095,-2.3095,-2.3095,-2.3095,-2.3095,-2.3095,-2.3095,-2.3095,-2.3095,-2.3095,-2.3095,-2.3095,-2.3095,-2.3095,-2.3095,-2.3095,-2.3095,-2.3095,-2.3095,-2.3095,-2.3095,-2.3095,-2.3095,-2.3095,-2.3095,-2.3095,-2.3095,-2.3095,-2.3095,-2.3095,-2.3095,-2.3095,-2.3095,-2.3095,-2.3095,-2.3095,-2.3095,-2.3095,-2.3095,-2.3365,-2.3738,-2.4263,-2.4694,-2.4897,-2.508,-2.5347,-2.5197,-2.5152,-2.4728,-2.4476,-2.4027,-2.3534,-2.3142,-2.2635,-2.2519,-2.2664,-2.2316,-2.2316,-2.2591,-2.2917,-2.2888,-2.2873,-2.2844,-2.2888,-2.3142,-2.3128,-2.3004,-2.3033,-2.3403,-2.3047,-2.3091,-2.2917,-2.2888,-2.6487,-2.6449,-2.6013,-2.5649,-2.5297,-2.4556,-2.3916,-2.3346,-2.3145,-2.3095,-2.3095,-2.3095,-2.3095,-2.3095,-2.3108,-2.3095,-2.3095,-2.3095,-2.3108,-2.3095,-2.3095,-2.3095,-2.3095,-2.3095,-2.3095,-2.3095,-2.3095,-2.3095,-2.3095,-2.3095,-2.3095,-2.3095,-2.3095,-2.3095,-2.3095,-2.3095,-2.3095,-2.3095,-2.3095,-2.3095,-2.3095,-2.3095,-2.3095,-2.3095,-2.3095,-2.3095,-2.3095,-2.3095,-2.3095,-2.3095,-2.3095,-2.3095,-2.3095,-2.3095,-2.3095,-2.3095,-2.3095,-2.3095,-2.3095,-2.3095,-2.3095,-2.3095,-2.3095,-2.3095,-2.3095,-2.3095,-2.3095,-2.3095,-2.3095,-2.3095,-2.3095,-2.3095,-2.3095,-2.3095,-2.3095,-2.3095,-2.3095,-2.3095,-2.3095,-2.3095,-2.3095,-2.3155,-2.3531,-2.3855,-2.4263,-2.4481,-2.4754,-2.5052,-2.5297,-2.5202,-2.5261,-2.5027,-2.4615,-2.4086,-2.3438,-2.2881,-2.278,-2.2678,-2.2475,-2.2454,-2.2867,-2.3105,-2.296,-2.2844,-2.2757,-2.3113,-2.3586,-2.3461,-2.3258,-2.4036,-2.437,-2.3766,-2.3302,-2.3273,-2.3026,-2.6487,-2.6436,-2.6122,-2.5812,-2.5473,-2.4682,-2.3973,-2.3471,-2.3195,-2.3095,-2.3095,-2.3095,-2.3095,-2.3095,-2.3095,-2.3095,-2.3095,-2.3095,-2.3095,-2.3095,-2.3095,-2.3095,-2.3095,-2.3095,-2.3095,-2.3095,-2.3095,-2.3095,-2.3095,-2.3095,-2.3095,-2.3095,-2.3095,-2.3095,-2.3095,-2.3095,-2.3095,-2.3095,-2.3095,-2.3095,-2.3095,-2.3095,-2.3095,-2.3095,-2.3095,-2.3095,-2.3095,-2.3095,-2.3095,-2.3095,-2.3095,-2.3095,-2.3095,-2.3095,-2.3095,-2.3095,-2.3095,-2.3095,-2.3095,-2.3095,-2.3095,-2.3095,-2.3095,-2.3095,-2.3095,-2.3095,-2.3095,-2.3095,-2.3095,-2.3095,-2.3095,-2.3095,-2.3095,-2.3095,-2.3095,-2.3095,-2.3095,-2.3095,-2.3095,-2.3095,-2.3095,-2.3095,-2.3305,-2.356,-2.3738,-2.3855,-2.4147,-2.4511,-2.4842,-2.4998,-2.5289,-2.5424,-2.5029,-2.4562,-2.3894,-2.3372,-2.3316,-2.3287,-2.3223,-2.3238,-2.3418,-2.3403,-2.3345,-2.3026,-2.2678,-2.3186,-2.3847,-2.3688,-2.3644,-2.4471,-2.5038,-2.452,-2.4114,-2.4041,-2.3688,-2.6487,-2.6487,-2.6487,-2.6122,-2.5561,-2.5071,-2.4569,-2.4017,-2.3459,-2.3145,-2.312,-2.3095,-2.3095,-2.3095,-2.3095,-2.3095,-2.3095,-2.3095,-2.3095,-2.3095,-2.3095,-2.3095,-2.3095,-2.3095,-2.3095,-2.3095,-2.3095,-2.3095,-2.3095,-2.3095,-2.3095,-2.3095,-2.3095,-2.3095,-2.3095,-2.3095,-2.3095,-2.3095,-2.3095,-2.3095,-2.3095,-2.3095,-2.3095,-2.3095,-2.3095,-2.3095,-2.3095,-2.3095,-2.3095,-2.3095,-2.3095,-2.3095,-2.3095,-2.3095,-2.3095,-2.3095,-2.3095,-2.3095,-2.3095,-2.3095,-2.3095,-2.3095,-2.3095,-2.3095,-2.3095,-2.3095,-2.3095,-2.3095,-2.3095,-2.3095,-2.3095,-2.3095,-2.3095,-2.3095,-2.3095,-2.3095,-2.3095,-2.3095,-2.3095,-2.3095,-2.3095,-2.3095,-2.3125,-2.3395,-2.3424,-2.3365,-2.3514,-2.3956,-2.4166,-2.4488,-2.4941,-2.5395,-2.5196,-2.4799,-2.459,-2.4149,-2.3989,-2.3934,-2.3876,-2.3978,-2.4114,-2.3969,-2.376,-2.3534,-2.3345,-2.3592,-2.3992,-2.3992,-2.4297,-2.5052,-2.5375,-2.5143,-2.4955,-2.4921,-2.4312,-2.6487,-2.6487,-2.6487,-2.616,-2.5611,-2.5473,-2.5121,-2.4594,-2.3998,-2.3552,-2.317,-2.3108,-2.3095,-2.3095,-2.3095,-2.3095,-2.3095,-2.3095,-2.3095,-2.3095,-2.3095,-2.3095,-2.3095,-2.3095,-2.3095,-2.3095,-2.3095,-2.3095,-2.3095,-2.3095,-2.3095,-2.3095,-2.3095,-2.3095,-2.3095,-2.3095,-2.3095,-2.3095,-2.3095,-2.3095,-2.3095,-2.3095,-2.3095,-2.3095,-2.3095,-2.3095,-2.3095,-2.3095,-2.3095,-2.3095,-2.3095,-2.3095,-2.3095,-2.3095,-2.3095,-2.3095,-2.3095,-2.3095,-2.3095,-2.3095,-2.3095,-2.3095,-2.3095,-2.3095,-2.3095,-2.3095,-2.3095,-2.3095,-2.3095,-2.3095,-2.3095,-2.3095,-2.3095,-2.3095,-2.3095,-2.3095,-2.3095,-2.3095,-2.3095,-2.3095,-2.3095,-2.3095,-2.3095,-2.3095,-2.3095,-2.3138,-2.3168,-2.3365,-2.3399,-2.3631,-2.4202,-2.4636,-2.5046,-2.4876,-2.4804,-2.488,-2.4704,-2.4549,-2.4467,-2.4597,-2.481,-2.465,-2.4486,-2.4326,-2.4239,-2.437,-2.4515,-2.4679,-2.5085,-2.5709,-2.5995,-2.5865,-2.5952,-2.5937,-2.5096,-2.6487,-2.6487,-2.6487,-2.6311,-2.6034,-2.6009,-2.5674,-2.5134,-2.4594,-2.401,-2.3484,-2.3246,-2.3095,-2.3095,-2.3095,-2.3095,-2.3095,-2.3095,-2.3095,-2.3095,-2.3095,-2.3095,-2.3095,-2.3095,-2.3095,-2.3095,-2.3095,-2.3095,-2.3095,-2.3095,-2.3095,-2.312,-2.312,-2.3133,-2.3133,-2.312,-2.3133,-2.3095,-2.312,-2.3095,-2.3095,-2.3095,-2.3095,-2.3095,-2.3095,-2.3095,-2.3095,-2.3095,-2.3095,-2.3095,-2.3095,-2.3095,-2.3095,-2.3095,-2.3095,-2.3095,-2.3095,-2.3095,-2.3095,-2.3095,-2.3095,-2.3095,-2.3095,-2.3095,-2.3095,-2.3095,-2.3095,-2.3095,-2.3095,-2.3095,-2.3095,-2.3095,-2.3095,-2.3095,-2.3095,-2.3095,-2.3095,-2.3095,-2.3095,-2.3095,-2.3095,-2.3095,-2.3095,-2.3095,-2.3095,-2.3095,-2.3108,-2.3108,-2.307,-2.302,-2.353,-2.3945,-2.4364,-2.4832,-2.494,-2.5164,-2.5365,-2.5206,-2.4998,-2.5243,-2.5412,-2.5332,-2.5212,-2.495,-2.4834,-2.4907,-2.5067,-2.523,-2.5705,-2.6286,-2.6533,-2.6649,-2.6678,-2.653,-2.5763,-2.6487,-2.6487,-2.6487,-2.6487,-2.6487,-2.6474,-2.6197,-2.5649,-2.5026,-2.4544,-2.4029,-2.3384,-2.3145,-2.3095,-2.3095,-2.3095,-2.3095,-2.3095,-2.3095,-2.3095,-2.3095,-2.3095,-2.3095,-2.3095,-2.3095,-2.3095,-2.3095,-2.3095,-2.3095,-2.3108,-2.3133,-2.317,-2.3233,-2.3271,-2.3271,-2.3246,-2.3296,-2.3271,-2.3246,-2.312,-2.3095,-2.3095,-2.3095,-2.3095,-2.3095,-2.3095,-2.3095,-2.3095,-2.3095,-2.3095,-2.3095,-2.3095,-2.3095,-2.3095,-2.3095,-2.3095,-2.3095,-2.3095,-2.3095,-2.3095,-2.3095,-2.3095,-2.3095,-2.3095,-2.3095,-2.3095,-2.3095,-2.3095,-2.3095,-2.3095,-2.3095,-2.3095,-2.3095,-2.3095,-2.3095,-2.3095,-2.3095,-2.3095,-2.3095,-2.3095,-2.3095,-2.3095,-2.3095,-2.3095,-2.3095,-2.3095,-2.3095,-2.3095,-2.3083,-2.3007,-2.3196,-2.3454,-2.3745,-2.422,-2.4727,-2.5135,-2.5392,-2.5593,-2.5441,-2.5787,-2.6023,-2.5933,-2.5742,-2.5433,-2.5361,-2.556,-2.5604,-2.5734,-2.6257,-2.6504,-2.6184,-2.6039,-2.6054,-2.5948,-2.601,-2.6487,-2.6487,-2.6487,-2.6487,-2.6487,-2.6487,-2.6424,-2.6172,-2.5247,-2.4757,-2.4374,-2.3572,-2.3095,-2.3095,-2.3095,-2.3095,-2.3095,-2.3095,-2.3095,-2.3095,-2.3095,-2.3095,-2.3095,-2.3095,-2.3095,-2.3095,-2.3095,-2.3095,-2.3158,-2.3158,-2.3333,-2.3678,-2.3816,-2.3991,-2.4286,-2.413,-2.3728,-2.3627,-2.3283,-2.3095,-2.3095,-2.3095,-2.3095,-2.3095,-2.3095,-2.3095,-2.3095,-2.3095,-2.3095,-2.3095,-2.3095,-2.3095,-2.3095,-2.3095,-2.3095,-2.3095,-2.3095,-2.3095,-2.3095,-2.3095,-2.3095,-2.3095,-2.3095,-2.3095,-2.3095,-2.3095,-2.3095,-2.3095,-2.3095,-2.3095,-2.3095,-2.3095,-2.3095,-2.3095,-2.3095,-2.3095,-2.3095,-2.3095,-2.3095,-2.3095,-2.3095,-2.3095,-2.3095,-2.3095,-2.3095,-2.3095,-2.3095,-2.3083,-2.297,-2.2932,-2.292,-2.3047,-2.3229,-2.3632,-2.4134,-2.4739,-2.5093,-2.5481,-2.5715,-2.5737,-2.5948,-2.6462,-2.6298,-2.6013,-2.6126,-2.6344,-2.6399,-2.5977,-2.5876,-2.5894,-2.5346,-2.5114,-2.5241,-2.5313,-2.5342]},{"header":{"parameterUnit":"m.s-1","parameterCategory":1,"la1":31.0,"la2":29.5877,"lo1":-88.7671,"lo2":-86.6584,"dy":0.0162,"dx":0.0185,"nx":115,"ny":88,"refTime":"2026-03-04T12:00:00:Z","depth":0,"parameterNumber":3,"parameterNumberName":"V-component_of_WINDS"},"data":[0.0,0.0,0.0,0.0,0.0,0.0,0.0,0.0,0.0,0.0,0.0,0.0,0.0,0.0,0.0,0.0,0.0,0.0,0.0,0.0,0.0,0.0,0.0,0.0,0.0,0.0,0.0,0.0,0.0,0.0,0.0,0.0,0.0,0.0,0.0,0.0,0.0,0.0,0.0,0.0,0.0,0.0,0.0,0.0,0.0,0.0,0.0,0.0,0.0,0.0,0.0,0.0,0.0,0.0,0.0,0.0,0.0,0.0,0.0,0.0,0.0,0.0,0.0,0.0,0.0,0.0,0.0,0.0,0.0,0.0,0.0,0.0,0.0,0.0,0.0,0.0,0.0,0.0,0.0,0.0,0.0,0.0,0.0,0.0,0.0,0.0,0.0,0.0,0.0,0.0,0.0,0.0,0.0,0.0,0.0,0.0,0.0,0.0,0.0,0.0,0.0,0.0,0.0,0.0,0.0,0.0,0.0,0.0,0.0,0.0,0.0,0.0,0.0,0.0,0.0,0.0,0.0,0.0,0.0,0.0,0.0,0.0,0.0,0.0,0.0,0.0,0.0,0.0,0.0,0.0,0.0,0.0,0.0,0.0,0.0,0.0,0.0,0.0,0.0,0.0,0.0,0.0,0.0,0.0,0.0,0.0,0.0,0.0,0.0,0.0,0.0,0.0,0.0,0.0,0.0,0.0,0.0,0.0,0.0,0.0,0.0,0.0,0.0,0.0,0.0,0.0,0.0,0.0,0.0,0.0,0.0,0.0,0.0,0.0,0.0,0.0,0.0,0.0,0.0,0.0,0.0,0.0,0.0,0.0,0.0,0.0,0.0,0.0,0.0,0.0,0.0,0.0,0.0,0.0,0.0,0.0,0.0,0.0,0.0,0.0,0.0,0.0,0.0,0.0,0.0,0.0,0.0,0.0,0.0,0.0,0.0,0.0,0.0,0.0,0.0,0.0,0.0,0.0,0.0,0.0,0.0,0.0,0.0,0.0,0.0,0.0,0.0,0.0,0.0,0.0,0.0,0.0,0.0,0.0,0.0,0.0,0.0,0.0,0.0,0.0,0.0,0.0,0.0,0.0,0.0,0.0,0.0,0.0,0.0,0.0,0.0,0.0,0.0,0.0,0.0,0.0,0.0,0.0,0.0,0.0,0.0,0.0,0.0,0.0,0.0,0.0,0.0,0.0,0.0,0.0,0.0,0.0,0.0,0.0,0.0,0.0,0.0,0.0,0.0,0.0,0.0,0.0,0.0,0.0,0.0,0.0,0.0,0.0,0.0,0.0,0.0,0.0,0.0,0.0,0.0,0.0,0.0,0.0,0.0,0.0,0.0,0.0,0.0,0.0,0.0,0.0,0.0,0.0,0.0,0.0,0.0,0.0,0.0,0.0,0.0,0.0,0.0,0.0,0.0,0.0,0.0,0.0,0.0,0.0,0.0,0.0,0.0,0.0,0.0,0.0,0.0,0.0,0.0,0.0,0.0,0.0,0.0,0.0,0.0,0.0,0.0,0.0,0.0,0.0,0.0,0.0,0.0,0.0,0.0,0.0,0.0,0.0,0.0,0.0,0.0,0.0,0.0,0.0,0.0,0.0,0.0,0.0,0.0,0.0,0.0,0.0,0.0,0.0,0.0,0.0,0.0,0.0,0.0,0.0,0.0,0.0,0.0,0.0,0.0,0.0,0.0,0.0,0.0,0.0,0.0,0.0,0.0,0.0,0.0,0.0,0.0,0.0,0.0,0.0,0.0,0.0,0.0,0.0,0.0,0.0,0.0,0.0,0.0,0.0,0.0,0.0,0.0,0.0,0.0,0.0,0.0,0.0,0.0,0.0,0.0,0.0,0.0,0.0,0.0,0.0,0.0,0.0,0.0,0.0,0.0,0.0,0.0,0.0,0.0,0.0,0.0,0.0,0.0,0.0,0.0,0.0,0.0,0.0,0.0,0.0,0.0,0.0,0.0,0.0,0.0,0.0,0.0,0.0,0.0,0.0,0.0,0.0,0.0,0.0,0.0,0.0,0.0,0.0,0.0,0.0,0.0,0.0,0.0,0.0,0.0,0.0,0.0,0.0,0.0,0.0,0.0,0.0,0.0,0.0,0.0,0.0,0.0,0.0,0.0,0.0,0.0,0.0,0.0,0.0,0.0,0.0,0.0,0.0,0.0,0.0,0.0,0.0,0.0,0.0,0.0,0.0,0.0,0.0,0.0,0.0,0.0,0.0,0.0,0.0,0.0,0.0,0.0,0.0,0.0,0.0,0.0,0.0,0.0,0.0,0.0,0.0,0.0,0.0,0.0,0.0,0.0,0.0,0.0,0.0,0.0,0.0,0.0,0.0,0.0,0.0,0.0,0.0,0.0,0.0,0.0,0.0,0.0,0.0,0.0,0.0,0.0,0.0,0.0,0.0,0.0,0.0,0.0,0.0,0.0,0.0,0.0,0.0,0.0,0.0,0.0,0.0,0.0,0.0,0.0,0.0,0.0,0.0,0.0,0.0,0.0,0.0,0.0,0.0,0.0,0.0,0.0,0.0,0.0,0.0,0.0,0.0,0.0,0.0,0.0,0.0,0.0,0.0,0.0,0.0,0.0,0.0,0.0,0.0,0.0,0.0,0.0,0.0,0.0,0.0,0.0,0.0,0.0,0.0,0.0,0.0,0.0,0.0,0.0,0.0,0.0,0.0,0.0,0.0,0.0,0.0,0.0,0.0,0.0,0.0,0.0,0.0,0.0,0.0,0.0,0.0,0.0,0.0,0.0,0.0,0.0,0.0,0.0,0.0,0.0,0.0,0.0,0.0,0.0,0.0,0.0,0.0,0.0,0.0,0.0,0.0,0.0,0.0,0.0,0.0,0.0,0.0,0.0,0.0,0.0,0.0,0.0,0.0,0.0,0.0,0.0,0.0,0.0,0.0,0.0,0.0,0.0,0.0,0.0,0.0,0.0,0.0,0.0,0.0,0.0,0.0,0.0,0.0,0.0,0.0,0.0,0.0,0.0,0.0,0.0,0.0,0.0,0.0,0.0,0.0,0.0,0.0,0.0,0.0,0.0,0.0,0.0,0.0,0.0,0.0,0.0,0.0,0.0,0.0,0.0,0.0,0.0,0.0,0.0,0.0,0.0,0.0,0.0,0.0,0.0,0.0,0.0,0.0,0.0,0.0,0.0,0.0,0.0,0.0,0.0,0.0,0.0,0.0,0.0,0.0,0.0,0.0,0.0,0.0,0.0,0.0,0.0,0.0,0.0,0.0,0.0,0.0,0.0,0.0,0.0,0.0,0.0,0.0,0.0,0.0,0.0,0.0,0.0,0.0,0.0,0.0,0.0,0.0,0.0,0.0,0.0,0.0,0.0,0.0,0.0,0.0,0.0,0.0,0.0,0.0,0.0,0.0,0.0,0.0,0.0,0.0,0.0,0.0,0.0,0.0,0.0,0.0,0.0,0.0,0.0,0.0,0.0,0.0,0.0,0.0,0.0,0.0,0.0,0.0,0.0,0.0,0.0,0.0,0.0,0.0,0.0,0.0,0.0,0.0,0.0,0.0,0.0,0.0,0.0,0.0,0.0,0.0,0.0,0.0,0.0,0.0,0.0,0.0,0.0,0.0,0.0,0.0,0.0,0.0,0.0,0.0,0.0,0.0,0.0,0.0,0.0,0.0,0.0,0.0,0.0,0.0,0.0,0.0,0.0,0.0,0.0,0.0,0.0,0.0,0.0,0.0,0.0,0.0,0.0,0.0,0.0,0.0,0.0,0.0,0.0,0.0,0.0,0.0,0.0,0.0,0.0,0.0,0.0,0.0,0.0,0.0,0.0,0.0,0.0,0.0,0.0,0.0,0.0,0.0,0.0,0.0,0.0,0.0,0.0,0.0,0.0,0.0,0.0,0.0,0.0,0.0,0.0,0.0,0.0,0.0,0.0,0.0,0.0,0.0,0.0,0.0,0.0,0.0,0.0,0.0,0.0,0.0,0.0,0.0,0.0,0.0,0.0,0.0,0.0,0.0,0.0,0.0,0.0,0.0,0.0,0.0,0.0,0.0,0.0,0.0,0.0,0.0,0.0,0.0,0.0,0.0,0.0,0.0,0.0,0.0,0.0,0.0,0.0,0.0,0.0,0.0,0.0,0.0,0.0,0.0,0.0,0.0,0.0,0.0,0.0,0.0,0.0,0.0,0.0,0.0,0.0,0.0,0.0,0.0,0.0,0.0,0.0,0.0,0.0,0.0,0.0,0.0,0.0,0.0,0.0,0.0,0.0,0.0,0.0,0.0,0.0,0.0,0.4626,0.0,0.0,0.0,0.0,0.0,0.0,0.0,0.0,0.0,0.0,0.0,0.0,0.0,0.0,0.0,0.0,0.0,0.0,0.0,0.0,0.0,0.0,0.0,0.0,0.0,0.0,0.0,0.0,0.0,0.0,0.0,0.0,0.0,0.0,0.0,0.0,0.0,0.0,0.0,0.0,0.0,0.0,0.0,0.0,0.0,0.0,0.0,0.0,0.0,0.0,0.0,0.0,0.0,0.0,0.0,0.0,0.0,0.0,0.0,0.0,0.0,0.0,0.0,0.0,0.0,0.0,0.0,0.0,0.0,0.0,0.0,0.0,0.0,0.0,0.0,0.0,0.0,0.0,0.0,0.0,0.0,0.0,0.0,0.0,0.0,0.0,0.0,0.0,0.0,0.0,0.0,0.0,0.0,0.0,0.0,0.0,0.0,0.0,0.0,0.0,0.0,0.0,0.0,0.0,0.0,0.0,0.0,0.0,0.0,0.0,0.4733,0.464,0.4684,0.466,0.4588,0.0,0.0,0.0,0.0,0.0,0.0,0.0,0.0,0.0,0.0,0.0,0.0,0.0,0.0,0.0,0.0,0.0,0.0,0.0,0.0,0.0,0.0,0.0,0.0,0.0,0.0,0.0,0.0,0.0,0.0,0.0,0.0,0.0,0.0,0.0,0.0,0.0,0.0,0.0,0.0,0.0,0.0,0.0,0.0,0.0,0.0,0.0,0.0,0.0,0.0,0.0,0.0,0.0,0.0,0.0,0.0,0.0,0.0,0.0,0.0,0.0,0.0,0.0,0.0,0.0,0.0,0.0,0.0,0.0,0.0,0.0,0.0,0.0,0.0,0.0,0.0,0.0,0.0,0.0,0.0,0.0,0.0,0.0,0.0,0.0,0.0,0.0,0.0,0.0,0.0,0.0,0.0,0.0,0.0,0.0,0.0,0.0,0.0,0.0,0.0,0.0,0.0,0.0,0.0,0.0,0.0,0.0,0.0,0.0,0.0,0.0,0.0,0.4679,0.466,0.4477,0.0,0.0,0.0,0.0,0.0,0.0,0.0,0.0,0.0,0.0,0.0,0.0,0.0,0.0,0.0,0.0,0.0,0.0,0.0,0.0,0.0,0.0,0.0,0.0,0.0,0.0,0.0,0.0,0.0,0.0,0.0,0.0,0.0,0.0,0.0,0.0,0.0,0.0,0.0,0.0,0.0,0.0,0.0,0.0,0.0,0.0,0.0,0.0,0.0,0.0,0.0,0.0,0.0,0.0,0.0,0.0,0.0,0.0,0.0,0.0,0.0,0.0,0.0,0.0,0.0,0.0,0.0,0.0,0.0,0.0,0.0,0.0,0.0,0.0,0.0,0.0,0.0,0.0,0.0,0.0,0.0,0.0,0.0,0.0,0.0,0.0,0.0,0.0,0.0,0.0,0.0,0.0,0.0,0.0,0.0,0.0,0.0,0.0,0.0,0.0,0.0,0.0,0.0,0.0,0.0,0.0,0.0,0.0,0.0,0.0,0.4747,0.4763,0.4774,0.0,0.449,0.0,0.0,0.0,0.0,0.0,0.0,0.0,0.0,0.0,0.0,0.0,0.0,0.0,0.0,0.0,0.0,0.0,0.0,0.0,0.0,0.0,0.0,0.0,0.0,0.0,0.0,0.0,0.0,0.0,0.0,0.0,0.0,0.0,0.0,0.0,0.0,0.0,0.0,0.0,0.0,0.0,0.0,0.0,0.0,0.0,0.0,0.0,0.0,0.0,0.0,0.0,0.0,0.0,0.0,0.0,0.0,0.0,0.0,0.0,0.0,0.0,0.0,0.0,0.0,0.0,0.0,0.0,0.0,0.0,0.0,0.0,0.0,0.0,0.0,0.0,0.0,0.0,0.0,0.0,0.0,0.0,0.0,0.0,0.0,0.0,0.0,0.0,0.0,0.0,0.0,0.0,0.0,0.0,0.0,0.0,0.0,0.0,0.0,0.0,0.0,0.0,0.0,0.0,0.0,0.0,0.0,0.0,0.0,0.0,0.0,0.4857,0.4795,0.4795,0.4719,0.0,0.0,0.0,0.0,0.0,0.0,0.0,0.0,0.0,0.0,0.0,0.0,0.0,0.0,0.0,0.0,0.0,0.0,0.0,0.0,0.0,0.0,0.0,0.0,0.0,0.0,0.0,0.0,0.0,0.0,0.0,0.0,0.0,0.0,0.0,0.0,0.0,0.0,0.0,0.0,0.0,0.0,0.0,0.0,0.0,0.0,0.0,0.0,0.0,0.0,0.0,0.0,0.0,0.0,0.0,0.0,0.0,0.0,0.0,0.0,0.0,0.0,0.0,0.0,0.0,0.0,0.0,0.0,0.0,0.0,0.0,0.0,0.0,0.0,0.0,0.0,0.0,0.0,0.0,0.0,0.0,0.0,0.0,0.0,0.0,0.0,0.0,0.0,0.0,0.0,0.0,0.0,0.0,0.0,0.0,0.0,0.0,0.0,0.0,0.0,0.0,0.0,0.0,0.0,0.0,0.0,0.0,0.0,0.0,0.0,0.4773,0.4906,0.4844,0.4814,0.4703,0.4468,0.0,0.0,0.0,0.0,0.0,0.0,0.0,0.0,0.0,0.0,0.0,0.0,0.0,0.0,0.0,0.0,0.0,0.0,0.0,0.0,0.0,0.0,0.0,0.0,0.0,0.0,0.0,0.0,0.0,0.0,0.0,0.0,0.0,0.0,0.0,0.0,0.0,0.0,0.0,0.0,0.0,0.0,0.0,0.0,0.0,0.0,0.0,0.0,0.0,0.0,0.0,0.0,0.0,0.0,0.0,0.0,0.0,0.0,0.0,0.0,0.0,0.0,0.0,0.0,0.0,0.0,0.0,0.0,0.0,0.0,0.0,0.0,0.0,0.0,0.0,0.0,0.0,0.0,0.0,0.0,0.0,0.0,0.0,0.0,0.0,0.0,0.0,0.0,0.0,0.0,0.0,0.0,0.0,0.0,0.0,0.0,0.0,0.0,0.0,0.0,0.0,0.0,0.0,0.0,0.0,0.0,0.0,0.0,0.4944,0.4813,0.4818,0.496,0.4858,0.4631,0.0,0.0,0.0,0.0,0.0,0.0,0.0,0.0,0.0,0.0,0.0,0.0,0.0,0.0,0.0,0.0,0.0,0.0,0.0,0.0,0.0,0.0,0.0,0.0,0.0,0.0,0.0,0.0,0.0,0.0,0.0,0.0,0.0,0.0,0.0,0.0,0.0,0.0,0.0,0.0,0.0,0.0,0.0,0.0,0.0,0.0,0.0,0.0,0.0,0.0,0.0,0.0,0.0,0.0,0.0,0.0,0.0,0.0,0.0,0.0,0.0,0.0,0.0,0.0,0.0,0.0,0.0,0.0,0.0,0.0,0.0,0.0,0.0,0.0,0.0,0.0,0.0,0.0,0.0,0.0,0.0,0.0,0.0,0.0,0.0,0.0,0.0,0.0,0.0,0.0,0.0,0.0,0.0,0.0,0.0,0.0,0.0,0.0,0.0,0.0,0.0,0.0,0.0,0.0,0.0,0.0,0.0,0.0,0.0,0.4586,0.4654,0.484,0.5099,0.4787,0.4539,0.0,0.0,0.0,0.0,0.0,0.0,0.0,0.0,0.0,0.0,0.0,0.0,0.0,0.0,0.0,0.0,0.0,0.0,0.0,0.0,0.0,0.0,0.0,0.0,0.0,0.0,0.0,0.0,0.0,0.0,0.0,0.0,0.0,0.0,0.0,0.0,0.0,0.0,0.0,0.0,0.0,0.0,0.0,0.0,0.0,0.0,0.0,0.0,0.0,0.0,0.0,0.0,0.0,0.0,0.0,0.0,0.0,0.0,0.0,0.0,0.0,0.0,0.0,0.0,0.0,0.0,0.0,0.0,0.0,0.0,0.0,0.0,0.0,0.0,0.0,0.0,0.0,0.0,0.0,0.0,0.0,0.0,0.0,0.0,0.0,0.0,0.0,0.0,0.0,0.0,0.0,0.0,0.0,0.0,0.0,0.0,0.0,0.0,0.0,0.0,0.0,0.0,0.0,0.0,0.0,0.0,0.0,0.0,0.0,0.4985,0.0,0.5388,0.5545,0.486,0.4449,0.0,0.0,0.0,0.0,0.0,0.0,0.0,0.0,0.0,0.0,0.0,0.0,0.0,0.0,0.0,0.0,0.0,0.0,0.0,0.0,0.0,0.0,0.0,0.0,0.0,0.0,0.0,0.0,0.0,0.0,0.0,0.0,0.0,0.0,0.0,0.0,0.0,0.0,0.0,0.0,0.0,0.0,0.0,0.0,0.0,0.0,0.0,0.0,0.0,0.0,0.0,0.0,0.0,0.0,0.0,0.0,0.0,0.0,0.0,0.0,0.0,0.0,0.0,0.0,0.0,0.0,0.0,0.0,0.0,0.0,0.0,0.0,0.0,0.0,0.0,0.0,0.0,0.0,0.0,0.0,0.0,0.0,0.0,0.0,0.0,0.0,0.0,0.0,0.0,0.0,0.0,0.0,0.0,0.0,0.0,0.0,0.0,0.0,0.0,0.0,0.0,0.0,0.0,0.0,0.0,0.0,0.0,0.0,0.5872,0.6345,0.6435,0.6411,0.6351,0.516,0.4339,0.0,0.0,0.0,0.0,0.0,0.0,0.0,0.0,0.0,0.0,0.0,0.0,0.0,0.0,0.0,0.0,0.0,0.0,0.0,0.0,0.0,0.0,0.0,0.0,0.0,0.0,0.0,0.0,0.0,0.0,0.0,0.0,0.0,0.0,0.0,0.0,0.0,0.0,0.0,0.0,0.0,0.0,0.0,0.0,0.0,0.0,0.0,0.0,0.0,0.0,0.0,0.0,0.0,0.0,0.0,0.0,0.0,0.0,0.0,0.0,0.0,0.0,0.0,0.0,0.0,0.0,0.0,0.0,0.0,0.0,0.0,0.0,0.0,0.0,0.0,0.0,0.0,0.0,0.0,0.0,0.0,0.0,0.0,0.0,0.0,0.0,0.0,0.0,0.0,0.0,0.0,0.0,0.0,0.0,0.0,0.0,0.0,0.0,0.0,0.0,0.0,0.0,0.0,0.0,0.0,0.0,0.0,0.0,0.0,0.5715,0.6468,0.6674,0.619,0.5406,0.5138,0.0,0.0,0.0,0.0,0.0,0.0,0.0,0.0,0.0,0.0,0.0,0.0,0.0,0.0,0.0,0.0,0.0,0.0,0.0,0.0,0.0,0.0,0.0,0.0,0.0,0.0,0.0,0.0,0.0,0.0,0.0,0.0,0.0,0.0,0.0,0.0,0.0,0.0,0.0,0.0,0.0,0.0,0.0,0.0,0.0,0.0,0.0,0.0,0.0,0.0,0.0,0.0,0.0,0.0,0.0,0.0,0.0,0.0,0.0,0.0,0.0,0.0,0.0,0.0,0.0,0.0,0.0,0.0,0.0,0.0,0.0,0.0,0.0,0.0,0.0,0.0,0.0,0.0,0.0,0.0,0.0,0.0,0.0,0.0,0.0,0.0,0.0,0.0,0.0,0.0,0.0,0.0,0.0,0.0,0.0,0.0,0.0,0.0,0.0,0.0,0.0,0.0,0.0,0.0,0.0,0.0,0.0,0.0,0.0,0.6837,0.7687,0.7941,0.7472,0.6304,0.5748,0.5926,0.0,0.0,0.0,0.0,0.0,0.0,0.0,0.0,0.0,0.0,0.0,0.0,0.0,0.0,0.0,0.0,0.0,0.0,0.0,0.0,0.0,0.0,0.0,0.0,0.0,0.0,0.0,0.0,0.0,0.0,0.0,0.0,0.0,0.0,0.0,0.0,0.0,0.0,0.0,0.0,0.0,0.0,0.0,0.0,0.0,0.0,0.0,0.0,0.0,0.0,0.0,0.0,0.0,0.0,0.0,0.0,0.0,0.0,0.0,0.0,0.0,0.0,0.0,0.0,0.0,0.0,0.0,0.0,0.0,0.0,0.0,0.0,0.0,0.0,0.0,0.0,0.0,0.0,0.0,0.0,0.0,0.0,0.0,0.0,0.0,0.0,0.0,0.0,0.0,0.0,0.0,0.0,0.0,0.0,0.0,0.0,0.0,0.0,0.0,0.0,0.0,0.0,0.0,0.0,0.0,0.0,0.0,0.0,0.9266,0.9852,1.0068,0.9779,0.7677,0.6295,0.0,0.0,0.0,0.0,0.0,0.0,0.0,0.0,0.0,0.0,0.0,0.0,0.0,0.0,0.0,0.0,0.0,0.0,0.0,0.0,0.0,0.0,0.0,0.0,0.0,0.0,0.0,0.0,0.0,0.0,0.0,0.0,0.0,0.0,0.0,0.0,0.0,0.0,0.0,0.0,0.0,0.0,0.0,0.0,0.0,0.0,0.0,0.0,0.0,0.0,0.0,0.0,0.0,0.0,0.0,0.0,0.0,0.0,0.0,0.0,0.0,0.0,0.0,0.0,0.0,0.0,0.0,0.0,0.0,0.0,0.0,0.0,0.0,0.0,0.0,0.0,0.0,0.0,0.0,0.0,0.0,0.0,0.0,0.0,0.0,0.0,0.0,0.0,0.0,0.0,0.0,0.0,0.0,0.0,0.0,0.0,0.0,0.0,0.0,0.0,0.0,0.0,0.0,0.0,0.0,0.0,0.0,0.0,0.0,1.1197,1.1897,1.1671,1.0355,0.8872,0.8052,0.0,0.0,0.0,0.0,0.0,0.0,0.0,0.0,0.0,0.0,0.0,0.0,0.0,0.0,0.0,0.0,0.0,0.0,0.0,0.0,0.0,0.0,0.0,0.0,0.0,0.0,0.0,0.0,0.0,0.0,0.0,0.0,0.0,0.0,0.0,0.0,0.0,0.0,0.0,0.0,0.0,0.0,0.0,0.0,0.0,0.0,0.0,0.0,0.0,0.0,0.0,0.0,0.0,0.0,0.0,0.0,0.0,0.0,0.0,0.0,0.0,0.0,0.0,0.0,0.0,0.0,0.0,0.0,0.0,0.0,0.0,0.0,0.0,0.0,0.0,0.0,0.0,0.0,0.0,0.0,0.0,0.0,0.0,0.0,0.0,0.0,0.0,0.0,0.0,0.0,0.0,0.0,0.0,0.0,0.0,0.0,0.0,0.0,0.0,0.0,0.0,0.0,0.0,0.0,0.0,0.0,0.0,0.0,1.1552,1.2083,1.2939,1.2911,1.1805,1.0388,0.9415,0.0,0.0,0.0,0.0,0.0,0.0,0.0,0.0,0.0,0.0,0.0,0.0,0.0,0.0,0.0,0.0,0.0,0.0,0.0,0.0,0.0,0.0,0.0,0.0,0.0,0.0,0.0,0.0,0.0,0.0,0.0,0.0,0.0,0.0,0.0,0.0,0.0,0.0,0.0,0.0,0.0,0.0,0.0,0.0,0.0,0.0,0.0,0.0,0.0,0.0,0.0,0.0,0.0,0.0,0.0,0.0,0.0,0.0,0.0,0.0,0.0,0.0,0.0,0.0,0.0,0.0,0.0,0.0,0.0,0.0,0.0,0.0,0.0,0.0,0.0,0.0,0.0,0.0,0.0,0.0,0.0,0.0,0.0,0.0,0.0,0.0,0.0,0.0,0.0,0.0,0.0,0.0,0.0,0.0,0.0,0.0,0.0,0.0,0.0,0.0,0.0,0.0,0.0,0.0,0.0,0.0,0.0,0.0,1.1784,1.2349,1.3399,1.3809,1.3462,1.1946,1.0457,0.0,0.0,0.0,0.0,0.0,0.0,0.0,0.0,0.0,0.0,0.0,0.0,0.0,0.0,0.0,0.0,0.0,0.0,0.0,0.0,0.0,0.0,0.0,0.0,0.0,0.0,0.0,0.0,0.0,0.0,0.0,0.0,0.0,0.0,0.0,0.0,0.0,0.0,0.0,0.0,0.0,0.0,0.0,0.0,0.0,0.0,0.0,0.0,0.0,0.0,0.0,0.0,0.0,0.0,0.0,0.0,0.0,0.0,0.0,0.0,0.0,0.0,0.0,0.0,0.0,0.0,0.0,0.0,0.0,0.0,0.0,0.0,0.0,0.0,0.0,0.0,0.0,0.0,0.0,0.0,0.0,0.0,0.0,0.0,0.0,0.0,0.0,0.0,0.0,0.0,0.0,0.0,0.0,0.0,0.0,0.0,0.0,0.0,0.0,0.0,0.0,0.0,0.0,0.0,0.0,0.0,0.0,0.0,1.2095,1.2626,1.3664,1.399,1.3525,1.2312,1.1073,0.0,0.0,0.0,0.0,0.0,0.0,0.0,0.0,0.0,0.0,0.0,0.0,0.0,0.0,0.0,0.0,0.0,0.0,0.0,0.0,0.0,0.0,0.0,0.0,0.0,0.0,0.0,0.0,0.0,0.0,0.0,0.0,0.0,0.0,0.0,0.0,0.0,0.0,0.0,0.0,0.0,0.0,0.0,0.0,0.0,0.0,0.0,0.0,0.5636,0.0,0.0,0.0,0.0,0.0,0.0,0.0,0.0,0.0,0.0,0.0,0.0,0.0,0.0,0.0,0.0,0.0,0.0,0.0,0.0,0.0,0.0,0.0,0.0,0.0,0.0,0.0,0.0,0.0,0.0,0.0,0.0,0.0,0.0,0.0,0.0,0.0,0.0,0.0,0.0,0.0,0.0,0.0,0.0,0.0,0.0,0.0,0.0,0.0,0.0,0.0,0.0,0.0,0.0,0.0,0.0,0.0,0.0,0.0,1.2969,1.3367,1.3872,1.3918,1.3513,1.2564,1.1518,0.0,0.0,0.0,0.0,0.0,0.0,0.0,0.0,0.0,0.0,0.0,0.0,0.0,0.0,0.0,0.0,0.0,0.0,0.0,0.0,0.0,0.0,0.0,0.0,0.0,0.0,0.0,0.0,0.0,0.0,0.0,0.0,0.0,0.0,0.0,0.0,0.0,0.0,0.0,0.0,0.0,0.0,0.0,0.0,0.0,0.0,0.0,0.0,0.0,0.0,0.0,0.0,0.0,0.0,0.0,0.0,0.0,0.0,0.0,0.0,0.0,0.0,0.0,0.0,0.0,0.0,0.0,0.0,0.0,0.0,0.0,0.0,0.0,0.0,0.0,0.0,0.0,0.0,0.0,0.0,0.0,0.0,0.0,0.0,0.0,0.0,0.0,0.0,0.0,0.0,0.0,0.0,0.0,0.0,0.0,0.0,0.0,0.0,0.0,0.0,0.0,0.0,0.0,0.0,0.0,0.0,0.0,1.2614,1.3678,1.4228,1.4087,1.3903,1.3763,1.3003,1.2138,1.1104,0.0,0.0,0.0,0.0,0.0,0.0,0.0,0.0,0.0,0.0,0.0,0.0,0.0,0.0,0.0,0.0,0.0,0.0,0.0,0.0,0.0,0.0,0.0,0.0,0.0,0.0,0.0,0.0,0.0,0.0,0.0,0.0,0.0,0.0,0.0,0.0,0.0,0.0,0.7856,0.8214,0.0,0.0,0.0,0.0,0.0,0.0,0.0,0.0,0.7097,0.0,0.0,0.0,0.0,0.0,0.0,0.0,0.0,0.0,0.0,0.0,0.0,0.0,0.0,0.0,0.0,0.0,0.0,0.0,0.0,0.0,0.0,0.0,0.0,0.0,0.0,0.0,0.0,0.0,0.0,0.0,0.0,0.0,0.0,0.0,0.0,0.0,0.0,0.0,0.0,0.0,0.0,0.0,0.0,0.0,0.0,0.0,0.0,0.0,0.0,0.0,0.0,0.0,0.0,0.0,0.0,1.1847,1.1664,1.2639,1.4852,1.4563,1.4551,1.4824,1.4205,1.3246,1.1918,0.0,0.0,0.0,0.0,0.0,0.0,0.0,0.0,0.0,0.0,0.0,0.0,0.0,0.0,0.0,0.0,0.0,0.0,0.0,0.0,0.0,0.0,0.0,0.0,0.0,0.0,0.0,0.0,0.0,0.0,0.0,0.0,0.0,0.0,0.0,0.0,0.0,0.0,0.0,0.9119,0.9304,0.0,0.0,0.0,0.0,0.0,0.0,0.0,0.0,0.8258,0.0,0.0,0.0,0.0,0.0,0.0,0.0,0.0,0.0,0.0,0.0,0.0,0.0,0.0,0.0,0.0,0.0,0.0,0.0,0.0,0.0,0.0,0.0,0.0,0.0,0.0,0.0,0.0,0.0,0.0,0.0,0.0,0.0,0.0,0.0,0.0,0.0,0.0,0.0,0.0,0.0,0.0,0.0,0.0,0.0,0.0,0.0,0.0,0.0,0.0,0.0,0.0,0.0,0.0,0.0,1.3026,1.3762,1.4761,1.6067,1.5496,1.5205,1.529,1.4118,1.3044,0.0,0.0,0.0,0.0,0.0,0.0,0.0,0.0,0.0,0.0,0.0,0.0,0.0,0.0,0.0,0.0,0.0,0.0,0.0,0.0,0.0,0.0,0.0,0.0,0.0,0.0,0.0,0.0,0.0,0.0,0.0,0.0,0.0,0.0,0.0,0.0,0.0,0.0,0.0,0.0,0.9799,1.0254,1.0771,0.0,0.0,0.0,0.0,0.0,0.0,0.8829,0.8718,0.0,0.0,0.0,0.0,0.0,0.0,0.0,0.0,0.0,0.0,0.0,0.0,0.0,0.0,0.0,0.0,0.0,0.0,0.0,0.0,0.0,0.0,0.0,0.0,0.0,0.0,0.0,0.0,0.0,0.0,0.0,0.0,0.0,0.0,0.0,0.0,0.0,0.0,0.0,0.0,0.0,0.0,0.0,0.0,0.0,0.0,0.0,0.0,0.0,0.0,0.0,0.0,0.0,0.0,0.0,1.4024,1.5557,1.6659,1.7231,1.6438,1.5992,1.5854,1.4335,1.3142,0.0,0.0,0.0,0.0,0.0,0.0,0.0,0.0,0.0,0.0,0.0,0.0,0.0,0.0,0.0,0.0,0.0,0.0,0.0,0.0,0.0,0.0,0.0,0.0,0.0,0.0,0.0,0.0,0.0,0.0,0.0,0.0,0.0,0.0,0.0,0.0,0.0,0.0,0.0,0.0,0.0,1.1227,1.1847,1.1259,0.0,0.0,0.0,0.0,0.9346,0.9408,0.0,0.0,0.0,0.0,0.0,0.0,0.0,0.0,0.0,0.0,0.0,0.0,0.0,0.0,0.0,0.0,0.0,0.0,0.0,0.0,0.0,0.0,0.0,0.0,0.0,0.0,0.0,0.0,0.0,0.0,0.0,0.0,0.0,0.0,0.0,0.0,0.0,0.0,0.0,0.0,0.0,0.0,0.0,0.0,0.0,0.0,0.0,0.0,0.0,0.0,0.0,0.0,0.0,0.0,0.0,0.0,1.3925,1.432,1.5608,1.7723,1.7221,1.6944,1.7183,1.6346,1.5043,0.0,0.0,0.0,0.0,0.0,0.0,0.0,0.0,0.0,0.0,0.0,0.0,0.0,0.0,0.0,0.0,0.0,0.0,0.0,0.0,0.0,0.0,0.0,0.0,0.0,0.0,0.0,0.0,0.0,0.0,0.0,0.0,0.0,0.0,0.0,0.0,0.0,0.0,0.0,0.0,0.0,1.2129,1.1555,1.1393,1.1258,0.0,0.0,0.9868,1.0261,1.0589,0.0,0.0,0.0,0.0,0.0,0.0,0.0,0.0,0.0,0.0,0.0,0.0,0.0,0.0,0.0,0.0,0.0,0.0,0.0,0.0,0.0,0.0,0.0,0.0,0.0,0.0,0.0,0.0,0.0,0.0,0.0,0.0,0.0,0.0,0.0,0.0,0.0,0.0,0.0,0.0,0.0,0.0,0.0,0.0,0.0,0.0,0.0,0.0,0.0,0.0,0.0,0.0,0.0,0.0,0.0,1.322,1.4612,1.5782,1.7003,1.8153,1.7825,1.762,1.7622,1.6141,1.4756,0.0,0.0,0.0,0.0,0.0,0.0,0.0,0.0,0.0,0.0,0.0,0.0,0.0,0.0,0.0,0.0,0.0,0.0,0.0,0.0,0.0,0.0,0.0,0.0,0.0,0.0,0.0,0.0,0.0,0.0,0.0,0.0,0.0,0.0,0.0,0.0,0.0,0.0,0.0,0.0,0.0,0.0,1.2938,1.2644,0.0,0.0,0.0,1.1214,1.1943,0.0,0.0,0.0,0.0,0.0,0.0,0.0,0.0,0.0,0.0,0.0,0.0,0.0,0.0,0.0,0.0,0.0,0.0,0.0,0.0,0.0,0.0,0.0,0.0,0.0,0.0,0.0,0.0,0.0,0.0,0.0,0.0,0.0,0.0,0.0,0.0,0.0,0.0,0.0,0.0,0.0,0.0,0.0,0.0,0.0,0.0,0.0,0.0,0.0,0.0,0.0,0.0,0.0,0.0,0.0,0.0,0.0,1.5102,1.6899,1.7999,1.8321,1.8087,1.7828,1.757,1.5825,0.0,0.0,0.0,0.0,0.0,0.0,0.0,0.0,0.0,0.0,0.0,0.0,0.0,0.0,0.0,0.0,0.0,0.0,0.0,0.0,0.0,0.0,0.0,0.0,0.0,0.0,0.0,0.7391,0.0,0.0,0.0,0.0,0.0,0.0,0.0,0.0,0.0,0.0,0.0,0.0,0.0,0.0,1.3323,1.4071,1.3826,1.3958,0.0,0.0,1.2642,1.3346,1.3441,1.3024,0.0,0.0,0.0,0.0,0.0,0.0,0.0,0.0,0.0,0.0,0.0,0.0,0.0,0.0,0.0,0.0,0.0,0.0,0.0,0.0,0.0,0.0,0.0,0.0,0.0,0.0,0.0,0.0,0.0,0.0,0.0,0.0,0.0,0.0,0.0,0.0,0.0,0.0,0.0,0.0,0.0,0.0,0.0,0.0,0.0,0.0,0.0,0.0,0.0,0.0,0.0,0.0,0.0,0.0,1.3525,1.5084,1.634,1.7367,1.8081,1.7743,1.7368,1.6958,1.609,1.4939,0.0,0.0,0.0,0.0,0.0,0.0,0.0,0.0,0.0,0.0,0.0,0.0,0.0,0.0,0.0,0.0,0.0,0.0,0.0,0.0,0.0,0.0,0.0,0.0,0.0,0.0,0.0,0.0,0.0,0.0,0.0,0.0,0.0,0.0,0.0,0.0,0.0,0.0,0.0,0.0,0.0,1.4177,1.4107,1.4602,1.5036,0.0,1.4423,1.3849,1.4087,1.4605,1.4214,1.2043,0.0,0.0,0.0,0.0,0.0,0.0,0.0,0.0,0.0,0.0,0.0,0.0,0.0,0.0,0.0,0.0,0.0,0.0,0.0,0.0,0.0,0.0,0.0,0.0,0.0,0.0,0.0,0.0,0.0,0.0,0.0,0.0,0.0,0.0,0.0,0.0,0.0,0.0,0.0,0.0,0.0,0.0,0.0,0.0,0.0,0.0,0.0,0.0,0.0,0.0,0.0,0.0,0.0,1.3385,1.4458,1.591,1.6807,1.7102,1.6869,1.6688,1.6551,1.5744,1.4781,0.0,0.0,0.0,0.0,0.0,0.0,0.0,0.0,0.0,0.0,0.0,0.0,0.0,0.0,0.0,0.0,0.0,0.0,0.0,0.0,0.0,0.0,0.0,0.0,0.0,0.0,0.0,0.0,0.9553,0.9684,0.9438,0.0,0.0,0.0,0.0,0.0,0.0,0.0,0.0,0.0,0.0,1.4658,1.4746,1.5144,0.0,0.0,1.5281,1.4664,1.5375,1.5063,1.4337,1.3216,1.2249,0.0,0.0,0.0,0.0,0.0,0.0,0.0,0.0,0.0,0.0,0.0,0.0,0.0,0.0,0.0,0.0,0.0,0.0,0.0,0.0,0.0,0.0,0.0,0.0,0.0,0.0,0.0,0.0,0.0,0.0,0.0,0.0,0.0,0.0,0.0,0.0,0.0,0.0,0.0,0.0,0.0,0.0,0.0,0.0,0.0,0.0,0.0,0.0,0.0,0.0,0.0,0.0,1.3439,1.4373,1.5956,1.6841,1.6944,1.6731,1.6641,1.6613,1.5932,1.5156,0.0,0.0,0.0,0.0,0.0,0.0,0.0,0.0,0.0,0.0,0.0,0.0,0.0,0.0,0.0,0.0,0.0,0.0,0.0,0.0,0.0,0.0,0.0,0.0,0.0,0.0,0.0,0.0,1.0355,1.0419,1.0144,0.0,0.0,0.0,0.0,0.0,0.0,0.0,0.0,0.0,0.0,1.4976,1.5283,1.5542,1.5951,1.6689,1.5791,1.5269,1.6017,1.5445,1.4643,1.384,0.0,0.0,0.0,0.0,0.0,0.0,0.0,0.0,0.0,0.0,0.0,0.0,0.0,0.0,0.0,0.0,0.0,0.0,0.0,0.0,0.0,0.0,0.0,0.0,0.0,0.0,0.0,1.463,0.0,0.0,1.392,0.0,0.0,0.0,0.0,0.0,0.0,0.0,0.0,0.0,0.0,0.0,0.0,0.0,0.0,0.0,0.0,0.0,0.0,0.0,0.0,0.0,0.0,1.3781,1.4976,1.6539,1.7532,1.7903,1.7573,1.7341,1.733,1.6895,1.6246,1.5356,0.0,0.0,0.0,0.0,0.0,0.0,0.0,0.0,0.0,0.0,0.0,0.0,0.0,0.0,0.0,0.0,0.0,0.0,0.0,0.0,0.0,0.0,0.0,0.0,0.0,0.0,1.0327,0.9949,0.9758,0.0,0.0,0.0,0.0,0.0,0.0,0.0,0.0,0.0,0.0,1.4184,1.5141,1.5548,1.5766,1.5919,1.596,1.5804,1.5689,1.5698,1.578,1.5289,0.0,0.0,0.0,0.0,0.0,0.0,0.0,0.0,0.0,0.0,0.0,0.0,0.0,0.0,0.0,0.0,0.0,0.0,0.0,0.0,0.0,0.0,0.0,0.0,0.0,0.0,0.0,1.5879,1.5264,0.0,0.0,0.0,0.0,0.0,0.0,0.0,0.0,0.0,0.0,0.0,1.7036,1.7036,0.0,0.0,0.0,0.0,0.0,0.0,0.0,0.0,0.0,0.0,0.0,0.0,1.4535,1.5902,1.6708,1.7377,1.7828,1.7262,1.6949,1.692,1.679,1.6158,1.4964,0.0,0.0,0.0,0.0,0.0,0.0,0.0,0.0,0.0,0.0,0.0,0.0,0.0,0.0,0.0,0.0,0.0,0.0,0.0,0.0,0.0,0.0,0.0,0.0,0.0,1.0655,0.0,0.0,0.0,0.0,0.0,0.0,0.0,0.0,0.0,0.0,0.0,1.3004,1.3621,1.4868,1.5788,1.5893,1.6114,1.6224,0.0,0.0,0.0,0.0,0.0,0.0,0.0,0.0,0.0,0.0,0.0,0.0,0.0,0.0,1.3979,1.1817,1.0906,1.0557,1.0789,0.0,0.0,0.0,0.0,0.0,0.0,0.0,0.0,0.0,0.0,0.0,0.0,0.0,0.0,1.7857,0.0,1.7296,0.0,0.0,0.0,0.0,0.0,0.0,0.0,0.0,1.8877,1.9443,1.9235,1.9072,1.8967,0.0,1.7557,1.6088,0.0,0.0,0.0,0.0,0.0,0.0,0.0,0.0,1.5231,1.6665,1.7187,1.7761,1.8436,1.7835,1.7495,1.7495,1.7312,1.668,1.5581,1.4665,1.3692,0.0,0.0,0.0,0.0,0.0,0.0,0.0,0.0,0.0,0.0,0.0,0.0,0.0,0.0,0.0,0.0,0.0,0.0,0.0,0.0,0.0,0.0,0.0,1.1207,0.0,0.0,0.0,0.0,0.0,0.0,0.0,0.0,0.0,1.215,1.3138,1.4139,1.4813,1.5822,1.6414,1.6217,0.0,0.0,0.0,0.0,0.0,0.0,0.0,1.4601,1.4496,1.4409,1.4293,1.4122,1.4522,1.481,1.4637,0.0,0.0,1.3259,1.2378,1.2018,1.2254,1.214,1.2035,1.2272,1.2796,1.3212,0.0,0.0,0.0,0.0,0.0,0.0,0.0,0.0,2.0644,2.0461,0.0,1.9664,0.0,0.0,0.0,0.0,0.0,1.9278,0.0,0.0,2.1115,2.1416,2.138,2.0875,2.037,1.9941,2.0334,1.9705,1.8118,1.5198,0.0,0.0,0.0,0.0,0.0,0.0,1.5866,1.7324,1.7911,1.8722,1.972,1.9213,1.8963,1.8924,1.8468,1.7863,1.7142,1.6226,1.5221,1.4093,1.3129,0.0,0.0,0.0,0.0,0.0,0.0,0.0,0.0,0.0,0.0,0.0,0.0,0.0,0.0,0.0,0.0,0.0,0.0,0.0,0.0,1.2031,0.0,0.0,0.0,0.0,0.0,0.0,0.0,0.0,0.0,0.0,1.3902,1.4516,1.544,1.6431,0.0,0.0,0.0,0.0,1.5923,1.543,1.5166,1.5098,1.5068,1.5147,1.509,1.4714,0.0,0.0,1.4723,1.5051,1.5216,1.4742,1.507,1.5547,1.5908,1.4977,1.4341,1.4368,1.4037,1.3991,1.4407,1.516,1.5993,2.39,0.0,0.0,0.0,0.0,2.1579,2.2211,2.357,2.2819,2.2407,2.2196,2.1403,0.0,0.0,0.0,0.0,0.0,0.0,2.0652,2.1516,2.1687,2.1968,2.2311,2.1773,2.1651,2.1834,2.1235,2.0474,1.958,1.8389,1.6788,1.4946,0.0,0.0,0.0,0.0,1.693,1.8417,1.8309,1.8722,1.9784,1.8891,1.8434,1.8434,1.865,1.8492,1.7913,1.7264,1.6384,1.5267,1.3966,0.0,0.0,0.0,0.0,0.0,0.0,0.0,0.0,0.0,0.0,0.0,0.0,0.0,0.0,0.0,0.0,0.0,0.0,0.0,1.273,1.2678,1.285,0.0,0.0,0.0,0.0,0.0,0.0,0.0,0.0,0.0,1.6564,1.6437,1.6306,0.0,0.0,1.722,1.6921,1.6863,1.6967,1.7154,1.6824,0.0,1.6007,1.595,1.5795,1.5244,1.5303,1.5342,1.5196,1.5303,1.5342,1.5186,1.5293,1.5459,1.5537,1.51,1.4802,1.5022,1.5003,1.508,1.5542,1.6098,1.6541,2.567,2.3673,2.2744,2.2788,2.3417,2.3115,2.3691,2.4789,2.4191,2.3882,2.3803,2.293,2.2085,2.1283,2.0486,0.0,0.0,0.0,2.1519,2.2506,2.2327,2.2511,2.2948,2.2487,2.229,2.2364,2.1736,2.1104,2.0524,2.0023,1.8926,1.7266,0.0,0.0,1.6508,1.6845,1.7665,1.8903,1.8482,1.8614,1.9459,1.8434,1.7977,1.8168,1.8506,1.8626,1.8518,1.7988,1.73,1.6406,1.5112,1.4083,0.0,0.0,0.0,0.0,0.0,0.0,0.0,0.0,0.0,0.0,0.0,1.1371,1.1199,0.0,0.0,0.0,1.276,1.3777,1.4494,1.4432,0.0,0.0,0.0,0.0,0.0,0.0,0.0,1.638,1.6858,1.7448,1.836,1.836,1.8143,1.7891,1.8225,1.8383,1.8063,0.0,1.7729,1.7759,1.7525,1.7155,1.6521,1.6464,1.6293,1.572,1.5575,1.5575,1.5517,1.5507,1.5478,1.5439,1.542,1.542,1.542,1.5195,1.5098,1.5361,1.542,1.5605,1.6201,1.6512,1.6785,2.7092,2.6515,2.5165,2.4616,2.4681,2.4681,2.5053,2.5611,2.4958,2.5065,2.5528,2.4211,2.3393,2.2983,2.1885,0.0,2.2122,2.2085,2.2603,2.3515,2.2997,2.2979,2.3453,2.2973,2.2492,2.1999,2.1999,2.165,2.1018,2.0527,1.9986,1.9434,1.845,1.786,1.7678,1.7678,1.8127,1.9004,1.8521,1.8447,1.8869,1.7929,1.7628,1.8086,1.8146,1.8399,1.8857,1.8411,1.793,1.7376,1.6378,1.5574,1.5034,0.0,0.0,0.0,0.0,0.0,0.0,0.0,0.0,0.0,0.0,0.0,0.0,0.0,0.0,0.0,1.4439,0.0,1.6681,1.658,0.0,0.0,0.0,1.4475,1.4612,1.575,1.6741,1.7326,0.0,0.0,1.9408,2.006,2.0461,2.0259,2.0268,2.0113,1.9594,1.901,1.8405,1.7923,1.7755,1.7506,1.6865,1.6715,1.6475,1.5961,1.5914,1.5827,1.573,1.5711,1.5643,1.5507,1.5439,1.5449,1.5439,1.5459,1.5439,1.5439,1.5449,1.5723,1.6436,1.6648,1.6902,2.821,2.7695,2.736,2.6486,2.5369,2.5377,2.5703,2.6223,2.5628,2.5737,2.621,2.5011,2.4461,2.4355,2.4029,2.3979,2.4091,2.3667,2.3648,2.3829,2.328,2.3062,2.3174,2.308,2.2925,2.283,2.283,2.233,2.1406,2.1244,2.0669,1.9745,1.9445,1.902,1.8387,1.8363,1.8669,1.9316,1.879,1.8374,1.8093,1.7727,1.7472,1.7275,1.7581,1.7848,1.8081,1.7946,1.7653,1.7115,1.6467,1.5856,1.533,1.4201,0.0,0.0,0.0,0.0,0.0,0.0,0.0,0.0,0.0,1.3513,1.3063,0.0,1.3982,0.0,1.5505,1.6127,1.6316,1.6284,0.0,0.0,1.6718,1.6817,1.8005,1.7836,1.7982,1.893,1.9069,1.9245,1.9658,2.026,2.0638,2.0584,2.0837,2.0937,2.0653,2.0137,1.9879,1.9972,1.9403,1.861,1.759,1.6672,1.6124,1.5914,1.5914,1.5885,1.5856,1.5856,1.5827,1.5788,1.5788,1.5788,1.5759,1.5788,1.5788,1.5779,1.5861,1.5987,1.6222,1.6484,1.6755,2.8988,2.8473,2.8436,2.7759,2.6703,2.6452,2.6424,2.6461,2.6147,2.6185,2.6449,2.5548,2.5034,2.48,2.48,2.48,2.4775,2.4474,2.423,2.3979,2.3634,2.3346,2.3108,2.3095,2.3095,2.3095,2.3095,2.2531,2.1531,2.1481,2.0916,1.9823,1.9798,1.9583,1.9144,1.9068,1.9165,1.9408,1.8866,1.8339,1.7823,1.7494,1.7248,1.7036,1.7457,1.7726,1.7786,1.8019,1.7798,1.7048,1.6659,1.6232,1.577,1.4853,1.4221,0.0,0.0,0.0,0.0,0.0,0.0,0.0,0.0,0.0,0.0,0.0,1.4784,1.568,1.6779,1.7421,1.7375,1.7619,1.7964,1.8276,1.8052,1.8262,1.9131,1.8759,1.8746,1.957,1.9496,1.9459,1.9773,2.0339,2.0691,2.0691,2.1087,2.1253,2.0905,2.0379,2.0128,2.0345,1.9949,1.9291,1.8402,1.7501,1.6881,1.687,1.6655,1.6457,1.6371,1.6153,1.5961,1.5914,1.5914,1.5914,1.5914,1.5914,1.5914,1.5915,1.5949,1.6049,1.6186,1.6321,1.6475,2.9541,2.9013,2.9001,2.8675,2.8135,2.762,2.7102,2.66,2.6524,2.6487,2.6461,2.5959,2.5448,2.5013,2.5021,2.5001,2.5021,2.4926,2.4632,2.4117,2.4029,2.3659,2.3108,2.3095,2.3095,2.3095,2.3095,2.2543,2.1506,2.1481,2.0916,1.9836,1.9798,1.9798,1.9798,1.9694,1.9591,1.946,1.8917,1.8413,1.7969,1.7403,1.7133,1.7168,1.7514,1.7723,1.7772,1.8216,1.7981,1.702,1.6904,1.6696,1.6246,1.5608,1.5094,0.0,1.4204,0.0,0.0,0.0,0.0,0.0,0.0,0.0,0.0,1.5044,1.5504,1.6357,1.7999,1.8921,1.8734,1.9308,1.9522,1.9058,1.907,1.9108,1.9096,1.9108,1.9284,1.9748,1.9798,1.9798,1.9823,2.025,2.0578,2.0578,2.0878,2.0976,2.0639,2.0211,1.9964,1.9815,1.9752,1.9422,1.8975,1.8429,1.8011,1.7984,1.7617,1.7257,1.7028,1.6616,1.62,1.6029,1.6,1.5972,1.5972,1.5972,1.5982,1.5982,1.5973,1.5986,1.6168,1.6147,1.6214,2.9871,2.9628,2.9628,2.9302,2.87,2.8185,2.7632,2.7092,2.67,2.6487,2.6487,2.6373,2.6285,2.6185,2.6185,2.6197,2.6147,2.5661,2.5172,2.46,2.4205,2.369,2.312,2.3095,2.3095,2.3095,2.3095,2.2531,2.1493,2.1481,2.0916,1.9823,1.9798,1.9798,1.9798,0.0,0.0,0.0,1.9183,1.8871,1.8758,1.8162,1.7864,1.7958,1.7528,0.0,1.747,1.7558,1.7307,1.6648,1.7035,0.0,0.0,0.0,0.0,0.0,0.0,0.0,0.0,0.0,0.0,0.0,1.6588,1.6411,1.6126,1.7337,1.8023,1.7728,1.8471,1.882,1.8357,1.8808,1.9108,1.9033,1.9371,1.966,1.966,1.9648,1.9698,1.9786,1.9798,1.9798,1.9811,1.9911,1.9974,1.9999,2.0062,2.0087,2.0012,2.0277,2.0487,2.0453,1.9754,1.9184,1.9013,1.8536,1.8155,1.8066,1.8038,1.7704,1.7241,1.7047,1.6782,1.6389,1.6327,1.6296,1.6267,1.6327,1.6267,1.6306,1.6153,1.6029,1.5985,1.5947,1.5977,3.0126,0.0,2.9934,2.9731,0.0,2.8712,2.8197,2.7632,2.6851,2.6487,2.6487,2.6487,2.6487,2.6487,2.6487,2.6487,2.6487,2.6185,2.5724,2.5184,2.4657,2.4104,2.3534,2.3233,2.3095,2.3108,2.3424,2.3154,2.2362,2.2054,2.1611,2.104,2.0463,2.0334,2.0584,2.0597,2.0333,1.9798,1.9547,1.9259,1.9008,1.8671,1.8294,1.7827,1.8006,0.0,0.0,0.0,0.0,0.0,0.0,0.0,0.0,0.0,0.0,1.6845,1.6576,1.6483,1.6754,1.6542,1.6651,1.7257,1.7545,1.7583,1.7307,1.8344,1.8858,1.8534,1.9033,1.9296,1.9045,1.9221,1.9409,1.9396,1.9648,1.9798,1.9798,1.9798,1.9798,1.9798,1.9798,1.9798,1.9798,1.9798,1.9798,1.9798,1.9798,1.9798,1.9823,2.0037,2.0264,2.0238,1.9841,1.9408,1.9345,1.8931,1.8526,1.8514,1.8104,1.7618,1.7309,1.6984,1.6662,1.617,1.6072,1.5991,1.5776,1.5877,1.607,1.6042,1.5976,1.5882,1.5828,1.5849,1.5914,3.033,3.0139,3.0152,3.0049,2.9857,2.924,2.8561,2.7896,0.0,0.0,0.0,2.6487,2.6487,2.6487,2.6487,2.6487,2.6487,2.6487,2.6253,2.576,2.5208,2.4729,2.4325,2.3722,2.3424,2.3471,2.4002,2.396,2.3367,2.2907,2.2551,2.2239,2.1354,2.1061,2.1369,2.1393,2.0955,2.0118,1.9978,1.9712,1.9308,1.9196,1.8731,1.785,1.8505,1.8455,1.7599,1.8304,1.8267,1.7322,1.7332,1.7322,1.725,1.7245,1.7435,1.7842,1.7903,1.7953,1.8041,1.7662,1.7486,1.7674,1.8166,1.8455,1.8367,1.8832,1.9146,1.9146,1.956,1.9798,1.9798,1.9798,1.9798,1.9798,1.9798,1.9798,1.9798,1.9798,1.9798,1.9798,1.9798,1.9798,1.9798,1.9798,1.9798,1.9798,1.9798,1.9798,1.9798,1.9823,1.9861,1.9849,1.9772,1.9747,1.9597,1.9258,1.8983,1.8759,1.8056,1.7472,1.7242,1.6888,1.6416,1.5997,1.5818,1.5697,1.5383,1.5558,1.5681,1.5692,1.561,1.5604,1.557,1.5662,1.5717,3.0533,3.0368,3.0368,3.033,3.0254,2.9478,2.8519,2.7392,2.6776,2.6487,2.6487,2.6487,2.6487,2.6487,2.6487,2.6487,2.6487,2.6487,2.651,2.6498,2.5856,2.5581,2.5585,2.5007,2.4738,2.4724,2.4823,2.4569,2.4,2.3892,2.335,2.2412,2.2144,2.1846,2.1434,2.1393,2.1321,2.1175,2.0721,2.0446,2.0381,1.9915,1.9623,1.9447,1.8719,1.8254,1.808,1.7815,1.7313,1.671,1.7541,1.7629,1.6713,1.7124,1.7187,1.6776,1.6738,1.6974,1.7498,1.7448,1.7802,1.8694,1.9284,1.9397,1.8945,1.9397,1.9698,1.9698,1.9761,1.9798,1.9798,1.9798,1.9798,1.9798,1.9798,1.9798,1.9798,1.9798,1.9798,1.9798,1.9798,1.9798,1.9798,1.9798,1.9798,1.9798,1.9798,1.9798,1.9798,1.9798,1.9798,1.9798,1.9798,1.961,1.9309,1.907,1.8795,1.8368,1.8158,1.7734,1.7291,1.7111,1.6808,1.6371,1.6214,1.6162,1.6084,1.5902,1.5696,1.5603,1.5316,1.5127,1.509,1.511,1.5124,3.0723,3.0571,3.0571,3.0495,3.0329,2.9359,2.8598,2.798,2.7141,2.6671,2.6487,2.6487,2.6487,2.6487,2.6487,2.6679,2.7027,2.6658,2.6933,2.7565,2.6304,2.5924,2.6223,2.54,2.5007,2.5021,2.5342,2.5342,2.5066,2.4746,2.4433,2.414,2.3519,2.2745,2.198,2.2098,2.1969,2.1417,2.1151,2.1042,2.1004,2.0497,2.0242,2.0225,1.9748,1.9359,1.9087,1.9089,1.8612,1.7463,1.7928,1.7827,1.7061,1.7237,1.7539,1.7817,1.7854,1.8092,1.8656,1.843,1.8456,1.8958,1.9221,1.9396,1.9421,1.966,1.9798,1.9798,1.9798,1.9798,1.9798,1.9798,1.9798,1.9798,1.9798,1.9798,1.9798,1.9798,1.9798,1.9798,1.9798,1.9798,1.9798,1.9798,1.9798,1.9798,1.9798,1.9798,1.9798,1.9798,1.9798,1.9798,1.9798,1.971,1.9421,1.8895,1.8506,1.8229,1.7689,1.7225,1.6901,1.6878,1.6649,1.6197,1.608,1.5845,1.5512,1.5334,1.5217,1.4934,1.4803,1.4624,1.4604,1.4449,1.4428,3.0911,3.0773,3.0773,3.0647,3.0405,2.9593,2.9042,2.8613,2.7802,2.7152,2.6649,2.6568,2.6624,2.6714,2.6714,2.7108,2.7571,2.7196,2.7584,2.8479,2.6943,2.6485,2.6964,2.5936,2.5412,2.5439,2.5879,2.6111,2.6054,2.5627,2.5523,2.5651,2.4699,2.3626,2.2674,2.2974,2.2675,2.1803,2.1742,2.1694,2.1575,2.0944,2.0598,2.061,2.0464,2.0229,1.9823,2.0072,1.9705,1.8631,1.8423,1.8223,1.7955,1.7938,1.8266,1.8914,1.9002,1.9131,1.9371,1.9171,1.9008,1.9008,1.9108,1.9384,1.9774,1.9862,1.9837,1.9798,1.9798,1.9798,1.9798,1.9798,1.9798,1.9798,1.9798,1.9798,1.9798,1.9798,1.9798,1.9798,1.9798,1.9798,1.9798,1.9798,1.9798,1.9798,1.9824,1.9837,1.9798,1.9824,1.9875,1.9798,1.9798,1.971,1.9623,1.8958,1.838,1.8116,1.735,1.6864,1.6654,1.6529,1.6405,1.6093,1.6003,1.5818,1.5108,1.507,1.5115,1.4908,1.4628,1.4321,1.4163,1.3921,1.39,3.0973,3.0986,3.0923,3.0849,3.0633,3.0691,2.9893,2.8787,2.8763,2.8109,2.6982,2.676,2.6939,2.7351,2.7364,2.7703,2.8344,2.833,2.8666,2.9219,2.8075,2.7808,2.8268,2.7171,2.6633,2.658,2.6647,2.6659,2.6647,2.6613,2.6347,2.5803,2.5149,2.4452,2.3807,2.3762,2.3444,2.2775,2.2752,2.2569,2.21,2.1129,2.0608,2.0606,2.0147,1.986,1.9893,1.9386,1.929,1.9503,1.9184,1.9089,1.9423,1.9545,1.9407,1.9078,1.9038,1.883,1.8464,1.8757,1.9058,1.9033,1.9459,1.9774,1.9952,1.999,1.9926,1.9862,1.9824,1.9824,1.9798,1.9798,1.9798,1.9798,1.9798,1.9798,1.9798,1.9798,1.9798,1.9798,1.9798,1.9798,1.9837,1.9824,1.9837,1.985,1.9914,1.9952,1.9888,1.9991,2.0042,1.9888,1.9798,1.961,1.9259,1.9045,1.8568,1.7788,1.7436,1.7096,1.6782,1.6593,1.6479,1.6414,1.6414,1.6272,1.6107,1.6037,1.565,1.5303,1.4831,1.426,1.3826,1.3628,1.3848,3.0686,3.0921,3.0291,2.9944,2.9832,2.9565,2.9099,2.8516,2.8235,2.7751,2.7219,2.6977,2.693,2.704,2.704,2.7351,2.7855,2.7504,2.7901,2.873,2.724,2.7028,2.7854,2.6829,2.6447,2.6779,2.6794,2.6794,2.6794,2.6794,2.666,2.6355,2.5734,2.5145,2.4608,2.4461,2.398,2.307,2.3322,2.321,2.2598,2.1935,2.1684,2.187,2.1474,2.1233,2.1205,2.0996,2.0699,2.0284,2.0057,1.9851,1.9699,1.9791,1.9912,2.0007,2.04,2.0378,1.9893,2.0066,2.0048,1.9749,1.9915,2.0067,2.0105,2.0131,2.0093,2.0054,1.9978,1.9926,1.9926,1.9837,1.9798,1.9798,1.9862,1.9888,1.9798,1.9888,1.9888,1.9824,1.9798,1.9837,1.9926,1.9991,2.0029,2.0042,2.0067,2.008,2.0042,2.0131,2.0131,2.0067,2.0042,1.9889,1.9535,1.9171,1.8844,1.8475,1.788,1.7324,1.7226,1.6901,1.6727,1.662,1.662,1.6457,1.603,1.5976,1.5744,1.5467,1.4983,1.4326,1.4116,1.381,1.3748,3.0137,3.0359,2.965,2.931,2.9271,2.8852,2.8667,2.8628,2.8198,2.7967,2.7861,2.7556,2.7423,2.7364,2.7074,2.7229,2.767,2.7263,2.7683,2.8516,2.7006,2.6849,2.7724,2.6691,2.6367,2.6727,2.6794,2.6794,2.6794,2.6794,2.6794,2.6707,2.6326,2.5798,2.5274,2.511,2.4581,2.37,2.3827,2.3659,2.3169,2.2655,2.2486,2.2646,2.237,2.2194,2.2194,2.2194,2.1941,2.1347,2.1028,2.0832,2.0703,2.0639,2.0782,2.1153,2.1499,2.1568,2.1224,2.1199,2.0979,2.0498,2.0409,2.0372,2.0334,2.0425,2.0438,2.0334,2.0361,2.0322,2.0054,1.9965,1.9914,1.9914,2.0003,2.0003,1.9939,2.0003,2.0029,1.9939,1.9927,1.9939,2.0029,2.0131,2.0182,2.0182,2.0233,2.0246,2.0233,2.0258,2.0309,2.0233,2.0246,2.0182,1.994,1.9649,1.9358,1.8887,1.8236,1.7775,1.7597,1.7093,1.691,1.6748,1.6748,1.6641,1.638,1.6141,1.591,1.5423,1.5028,1.4731,1.4605,1.4246,1.4012,2.9362,2.9388,2.9336,2.9258,2.9284,2.9205,2.9239,2.9241,2.9214,2.9296,2.9202,2.868,2.8707,2.898,2.7966,2.7822,2.8376,2.833,2.8666,2.9233,2.8015,2.7866,2.8537,2.7376,2.6753,2.6794,2.6794,2.6794,2.6794,2.6794,2.6794,2.6779,2.6707,2.6402,2.5872,2.5767,2.5429,2.4708,2.4273,2.3905,2.3789,2.3235,2.2747,2.2427,2.2231,2.2217,2.2217,2.2194,2.2411,2.2934,2.2072,2.2021,2.2885,2.261,2.2346,2.2358,2.1988,2.1744,2.171,2.1738,2.1551,2.1118,2.1137,2.0911,2.0857,2.1185,2.1263,2.0779,2.1095,2.0979,2.0386,2.0182,2.0144,2.0156,2.0182,2.0207,2.0169,2.0182,2.0207,2.0169,2.0156,2.0182,2.0182,2.0182,2.0233,2.0283,2.0372,2.0436,2.0322,2.0473,2.0498,2.0334,2.0347,2.0436,2.0233,2.0016,1.9595,1.9107,1.8669,1.817,1.7439,1.691,1.691,1.6897,1.6888,1.6825,1.6718,1.6556,1.6315,1.5998,1.5744,1.55,1.5164,1.5074,1.48,2.849,2.8203,2.8556,2.8503,2.8177,2.815,2.8425,2.8793,2.8825,2.9077,2.939,2.9156,2.903,2.9079,2.8551,2.8468,2.8693,2.857,2.8666,2.8752,2.7608,2.7384,2.7825,2.6774,2.6447,2.6753,2.6794,2.6794,2.6794,2.6794,2.6794,2.6794,2.6794,2.6675,2.6486,2.6457,2.6097,2.5502,2.5197,2.4907,2.4491,2.4244,2.3893,2.3427,2.2922,2.2646,2.2623,2.2729,2.288,2.3097,2.2814,2.2867,2.3216,2.3194,2.3157,2.3187,2.3039,2.2793,2.2586,2.2869,2.2895,2.2443,2.274,2.2882,2.2864,2.2953,2.2867,2.2409,2.2053,2.1715,2.1095,2.054,2.0207,2.0233,2.0322,2.0347,2.0258,2.0322,2.0347,2.0258,2.0283,2.0372,2.041,2.0486,2.0524,2.0524,2.0574,2.0574,2.0549,2.0649,2.0649,2.0549,2.0574,2.0612,2.0549,2.0309,1.9964,1.9434,1.8941,1.8445,1.7808,1.7286,1.719,1.6994,1.6981,1.6952,1.6825,1.6769,1.6586,1.6543,1.6303,1.6008,1.5712,1.5601,1.53,2.7876,2.7581,2.7941,2.7889,2.7516,2.7503,2.7875,2.8481,2.8514,2.8998,2.9673,2.9501,2.9532,2.9704,2.939,2.9373,2.9435,2.8857,2.862,2.8775,2.7783,2.766,2.7965,2.7031,2.6694,2.6987,2.6866,2.6794,2.6794,2.6794,2.6794,2.6794,2.6794,2.6846,2.6846,2.6873,2.6611,2.6232,2.5985,2.5596,2.5168,2.496,2.4757,2.4414,2.3929,2.3454,2.3089,2.3112,2.3179,2.3238,2.3312,2.3363,2.3414,2.3494,2.3545,2.361,2.3797,2.3792,2.3599,2.4059,2.4223,2.3769,2.4063,2.4309,2.4145,2.4278,2.4063,2.3573,2.3181,2.2678,2.1888,2.1251,2.0772,2.0475,2.0486,2.0537,2.0398,2.0498,2.0511,2.0448,2.0473,2.0562,2.0587,2.0649,2.0674,2.0699,2.0699,2.0699,2.0699,2.0699,2.0699,2.0699,2.0674,2.0674,2.0649,2.0485,1.9933,1.9398,1.9346,1.8845,1.8122,1.7648,1.7361,1.7172,1.7044,1.7002,1.6981,1.6918,1.6897,1.6897,1.6714,1.6411,1.6216,1.6086,1.5812,2.7516,2.7503,2.7503,2.7529,2.7503,2.7503,2.7875,2.8449,2.8514,2.9202,3.0208,2.9827,3.0208,3.0984,3.0403,3.0417,3.0538,2.9376,2.9048,2.9476,2.8872,2.8846,2.9334,2.8177,2.757,2.7579,2.707,2.6794,2.6794,2.6794,2.6794,2.6794,2.682,2.6899,2.6989,2.6963,2.6989,2.6813,2.636,2.6002,2.577,2.5472,2.5238,2.5154,2.5182,2.4625,2.343,2.3356,2.3415,2.3466,2.3473,2.3516,2.3566,2.3633,2.364,2.3789,2.4246,2.459,2.4642,2.5156,2.5316,2.5034,2.498,2.4949,2.4737,2.4927,2.496,2.4453,2.4111,2.3634,2.2713,2.226,2.176,2.0948,2.0753,2.0871,2.0713,2.0674,2.0699,2.0674,2.0674,2.0699,2.0699,2.0699,2.0699,2.0699,2.0699,2.0699,2.0699,2.0699,2.0699,2.0699,2.0699,2.0699,2.0699,2.0595,1.9917,1.9358,1.9504,1.9306,1.8248,1.7617,1.7525,1.7344,1.7162,1.7107,1.7065,1.7023,1.6981,1.696,1.6842,1.6799,1.6659,1.6488,1.6414,2.7503,2.7503,2.7503,2.7503,2.7503,2.7503,2.7875,2.8481,2.8514,2.9265,3.0299,3.0269,3.0644,3.1131,3.094,3.0807,3.0836,3.0221,3.0099,3.0151,2.9575,2.9405,2.9421,2.8768,2.8158,2.7666,2.7084,2.6794,2.6794,2.6794,2.6794,2.682,2.6899,2.6951,2.7003,2.7093,2.713,2.7115,2.6938,2.6821,2.677,2.6629,2.6371,2.6032,2.6036,2.5477,2.4283,2.4164,2.3904,2.3554,2.3538,2.3588,2.3684,2.4036,2.4276,2.4373,2.4918,2.5277,2.5352,2.5899,2.624,2.6193,2.6456,2.6668,2.6558,2.6589,2.6455,2.5859,2.5198,2.4385,2.3647,2.2844,2.1983,2.0818,2.1393,2.1498,2.0882,2.0725,2.0699,2.0699,2.0699,2.0699,2.0699,2.0699,2.0699,2.0699,2.0699,2.0699,2.0699,2.0699,2.0699,2.0699,2.0699,2.0699,2.0699,2.066,2.0255,1.981,1.9826,1.9551,1.8506,1.8035,1.7891,1.7565,1.7369,1.7256,1.7214,1.7107,1.7086,1.7099,1.7091,1.7036,1.6981,1.6863,1.6735,2.7503,2.7503,2.7503,2.7503,2.7503,2.7503,2.7723,2.8105,2.8137,2.8757,2.9656,3.0025,3.0404,3.0851,3.1029,3.0984,3.0806,3.0657,3.0612,3.0569,3.0205,2.9972,2.9842,2.9087,2.8347,2.7681,2.7084,2.6794,2.6794,2.6794,2.6794,2.682,2.6925,2.7029,2.7067,2.7222,2.7273,2.7273,2.7258,2.7258,2.7233,2.7258,2.7132,2.6812,2.6827,2.6325,2.5427,2.5305,2.4842,2.4149,2.4149,2.4343,2.4388,2.4754,2.4963,2.5098,2.5546,2.5974,2.6033,2.6572,2.6986,2.7061,2.736,2.757,2.7585,2.7585,2.7331,2.6701,2.5849,2.495,2.415,2.3507,2.2533,2.1446,2.1943,2.1943,2.1197,2.1001,2.087,2.0804,2.0699,2.0699,2.0699,2.0699,2.0699,2.0699,2.0699,2.0699,2.0699,2.0699,2.0699,2.0699,2.0699,2.0699,2.0699,2.0646,2.0568,2.0334,2.019,1.9603,1.8767,1.8806,1.8767,1.8048,1.7682,1.7695,1.7639,1.7308,1.717,1.7238,1.7356,1.7183,1.7094,1.7086,1.6981,2.7503,2.7503,2.7556,2.759,2.7623,2.7676,2.7809,2.7709,2.7743,2.8208,2.8885,2.9549,3.0009,3.0463,3.0984,3.1058,3.0836,3.0702,3.0612,3.0612,3.0525,3.051,3.0351,2.9348,2.8536,2.7853,2.7287,2.6951,2.6846,2.6934,2.6835,2.6873,2.6989,2.7093,2.7222,2.735,2.7427,2.7427,2.7427,2.7361,2.7244,2.735,2.7397,2.7352,2.7449,2.7156,2.6512,2.6378,2.5899,2.4918,2.5143,2.5405,2.554,2.563,2.5659,2.5689,2.6273,2.6572,2.6791,2.7151,2.7495,2.7495,2.7525,2.7585,2.7585,2.756,2.7357,2.6762,2.6092,2.5327,2.4449,2.3997,2.3489,2.2715,2.2453,2.2126,2.1655,2.1498,2.1223,2.083,2.0699,2.0699,2.0699,2.0699,2.0699,2.0699,2.0699,2.0699,2.0699,2.0699,2.0699,2.0699,2.0699,2.0699,2.0699,2.0686,2.062,2.0568,2.0399,1.9902,1.9211,1.9264,1.9211,1.8519,1.8061,1.8087,1.797,1.763,1.7552,1.7721,1.7643,1.7342,1.7382,1.7535,1.7462,2.7503,2.757,2.8039,2.8235,2.832,2.8744,2.8939,2.8939,2.8939,2.9181,2.983,3.0147,3.0451,3.1117,3.1131,3.1146,3.0911,3.0792,3.0702,3.0628,3.0702,3.0702,3.0467,2.9769,2.9029,2.8462,2.8199,2.7763,2.7039,2.7375,2.7398,2.7119,2.7167,2.7284,2.7376,2.7433,2.7524,2.7549,2.7564,2.7524,2.7499,2.7524,2.7549,2.7549,2.7575,2.727,2.6677,2.6602,2.6243,2.5442,2.5472,2.56,2.5719,2.6093,2.6318,2.6378,2.6911,2.73,2.733,2.748,2.7585,2.7585,2.7585,2.7585,2.7585,2.7585,2.7306,2.6747,2.6149,2.5522,2.4857,2.4341,2.3948,2.3642,2.2977,2.2401,2.2126,2.1747,2.1289,2.083,2.0699,2.0699,2.0699,2.0699,2.0699,2.0699,2.0699,2.0699,2.0699,2.0699,2.0699,2.0699,2.0699,2.0699,2.0699,2.0699,2.0686,2.0686,2.053,2.0334,1.9708,1.9381,1.9159,1.8715,1.8493,1.844,1.8231,1.7957,1.8074,1.8257,1.8257,1.8153,1.8336,1.8483,1.8209,2.7656,2.7941,2.8352,2.8661,2.8935,2.9331,2.9333,2.9108,2.9094,2.9122,2.9341,2.9594,2.9857,3.016,3.0361,3.0375,3.0277,3.0426,3.0441,3.047,3.0749,3.0881,3.0675,3.0134,2.9491,2.8921,2.8877,2.8347,2.7709,2.7871,2.7809,2.7497,2.7085,2.7018,2.7295,2.715,2.7295,2.754,2.7585,2.7585,2.7585,2.7585,2.739,2.7345,2.7405,2.7375,2.7076,2.7031,2.6836,2.6512,2.6452,2.6437,2.6467,2.6791,2.6926,2.6692,2.7225,2.7495,2.73,2.742,2.7585,2.7585,2.7585,2.7585,2.7585,2.7585,2.7331,2.6762,2.6149,2.5577,2.502,2.4447,2.4141,2.3981,2.3485,2.2924,2.2506,2.2113,2.1524,2.0962,2.0699,2.0699,2.0699,2.0699,2.0699,2.0699,2.0699,2.0699,2.0699,2.0699,2.0699,2.0699,2.0699,2.0699,2.0699,2.0699,2.0699,2.0699,2.066,2.0478,2.0216,1.9708,1.9564,1.9329,1.9015,1.8767,1.8675,1.861,1.8689,1.8845,1.8924,1.8924,1.8976,1.9146,1.8885,2.7861,2.8514,2.8565,2.8998,2.9552,2.9605,2.9458,2.8955,2.8802,2.8533,2.8396,2.8568,2.8939,2.8482,2.9446,2.9309,2.9258,2.9951,3.0218,3.0483,3.0837,3.1102,3.1073,3.0543,2.9909,2.9394,2.926,2.8948,2.8547,2.8441,2.8299,2.7948,2.707,2.683,2.7187,2.6892,2.6991,2.747,2.7585,2.7585,2.7555,2.7465,2.7151,2.6881,2.7151,2.736,2.7375,2.7465,2.7495,2.7555,2.7585,2.7465,2.751,2.754,2.7285,2.6911,2.7165,2.721,2.6956,2.736,2.7585,2.7585,2.7585,2.7585,2.7585,2.7585,2.7357,2.6762,2.6203,2.5701,2.5076,2.4563,2.4303,2.4203,2.4063,2.3649,2.2792,2.244,2.1996,2.0987,2.0777,2.0699,2.0699,2.0699,2.0699,2.0699,2.0699,2.0699,2.0699,2.0699,2.0699,2.0699,2.0699,2.0699,2.0699,2.0699,2.0699,2.0699,2.0699,2.0595,2.0595,2.0308,2.0229,2.002,1.9564,1.942,1.946,1.9433,1.9355,1.9407,1.9486,1.9329,1.9211,1.9499,1.9483,2.7908,2.8546,2.9048,2.9659,3.0212,3.0294,3.0482,3.0704,2.9731,2.9484,2.9684,2.9512,2.929,2.9248,2.9324,2.9429,2.9248,2.9841,3.0493,3.1026,3.1145,3.1322,3.1322,3.0997,3.0526,3.0084,3.0423,3.0067,2.9438,2.9349,2.9347,2.8464,2.7988,2.7872,2.7499,2.7305,2.7395,2.7585,2.7585,2.757,2.742,2.7091,2.6791,2.6581,2.6731,2.6821,2.6916,2.7315,2.757,2.7585,2.7585,2.7585,2.7525,2.7136,2.6971,2.7091,2.6941,2.6986,2.7285,2.742,2.7585,2.7585,2.7585,2.7585,2.7585,2.7585,2.7306,2.6826,2.6578,2.6028,2.5258,2.5314,2.495,2.452,2.4536,2.434,2.3298,2.2676,2.2113,2.1472,2.0962,2.0699,2.0699,2.0699,2.0699,2.0699,2.0699,2.0699,2.0699,2.0699,2.0699,2.0699,2.0699,2.0699,2.0699,2.0699,2.0699,2.0699,2.0699,2.0699,2.0699,2.0686,2.0491,2.0308,2.0059,1.9982,1.9969,1.9878,1.9734,1.9891,2.0022,1.9993,1.9967,2.0111,2.0046,2.7908,2.85,2.8871,2.958,3.0392,3.0485,3.07,3.0869,3.0357,3.0028,2.9909,2.94,2.9131,2.9071,2.8813,2.8581,2.8666,2.919,2.9995,3.0693,3.0932,3.1139,3.1452,3.1306,3.0966,3.049,3.0966,3.0592,2.9903,2.9739,2.956,2.8886,2.8125,2.7727,2.7752,2.7375,2.7265,2.754,2.7585,2.7465,2.7106,2.6821,2.6378,2.6198,2.6153,2.6243,2.6641,2.7255,2.754,2.7585,2.7585,2.7585,2.748,2.6946,2.6716,2.6542,2.6746,2.6497,2.6761,2.724,2.7585,2.7585,2.7585,2.7585,2.7585,2.7585,2.7458,2.7137,2.6826,2.6324,2.5522,2.555,2.5356,2.5175,2.5147,2.4955,2.4141,2.3301,2.2413,2.1747,2.1237,2.0962,2.0818,2.0764,2.0699,2.0699,2.0699,2.0699,2.0699,2.0699,2.0699,2.0699,2.0699,2.0699,2.0699,2.0699,2.0699,2.0699,2.0699,2.0699,2.0699,2.0699,2.0673,2.0465,2.0308,2.0347,2.0321,2.0205,2.0165,2.0308,2.0438,2.0633,2.0633,2.0463,2.0373,2.7927,2.8643,2.8546,2.9272,3.0379,3.038,3.0397,3.0496,3.0402,3.0073,2.9711,2.9026,2.8876,2.8532,2.8154,2.7809,2.8019,2.8577,2.9642,3.0494,3.0808,3.1107,3.1421,3.1407,3.1243,3.0718,3.1004,3.0569,2.9864,2.9579,2.9465,2.9024,2.7746,2.7503,2.7835,2.714,2.6782,2.726,2.7151,2.6911,2.6452,2.6258,2.5839,2.533,2.542,2.5644,2.6168,2.6866,2.7405,2.745,2.754,2.7585,2.7435,2.6971,2.6497,2.5989,2.6467,2.6527,2.6572,2.7061,2.7585,2.7585,2.7585,2.7585,2.7585,2.7585,2.756,2.7433,2.7152,2.6669,2.6041,2.6188,2.6068,2.5824,2.5824,2.5646,2.4994,2.4055,2.3144,2.21,2.159,2.1211,2.0975,2.0843,2.0764,2.0699,2.0699,2.0699,2.0699,2.0699,2.0699,2.0699,2.0699,2.0699,2.0699,2.0699,2.0699,2.0699,2.0699,2.0699,2.0699,2.0699,2.0699,2.0699,2.062,2.0607,2.0594,2.0504,2.0517,2.0686,2.0699,2.0699,2.0699,2.0699,2.066,2.8208,2.93,2.8725,2.9268,3.0305,2.9915,3.003,3.0362,3.0043,2.9998,3.0238,2.9699,2.9131,2.8742,2.8547,2.8427,2.8491,2.8999,2.9729,3.0434,3.0868,3.1316,3.1451,3.1496,3.1376,3.1227,3.0972,3.0313,2.9774,2.9579,2.9325,2.879,2.8297,2.8132,2.7654,2.7021,2.6712,2.6886,2.6527,2.6123,2.5839,2.5352,2.4956,2.441,2.4792,2.5068,2.5322,2.6168,2.6776,2.6836,2.7315,2.754,2.748,2.6986,2.6851,2.6896,2.6707,2.6647,2.6961,2.7345,2.7585,2.7585,2.7585,2.7585,2.7585,2.7585,2.7585,2.756,2.7458,2.7178,2.6642,2.6878,2.6707,2.6295,2.6203,2.6122,2.5273,2.4731,2.4098,2.298,2.2218,2.1472,2.1223,2.0923,2.0751,2.0699,2.0699,2.0699,2.0699,2.0699,2.0699,2.0699,2.0699,2.0699,2.0699,2.0699,2.0699,2.0699,2.0699,2.0699,2.0699,2.0699,2.0699,2.0699,2.0699,2.0673,2.0673,2.0699,2.0699,2.0699,2.0699,2.0699,2.0699,2.0699,2.0699,2.8091,2.8935,2.8629,2.9271,3.0295,3.0177,3.0191,3.0481,3.0552,3.0537,3.0432,3.0178,2.9854,2.9456,2.9071,2.8777,2.8619,2.9104,2.962,3.0065,3.0644,3.1212,3.1451,3.1496,3.1241,3.1016,3.0612,3.0178,2.9666,2.9621,2.9175,2.8652,2.8319,2.8079,2.7989,2.7485,2.7165,2.6931,2.6452,2.5914,2.56,2.4963,2.4545,2.4754,2.4903,2.5262,2.5734,2.6108,2.6806,2.7136,2.7435,2.7555,2.7495,2.7345,2.7091,2.7076,2.6836,2.6707,2.7136,2.7345,2.7585,2.7585,2.7585,2.7585,2.7585,2.7585,2.7585,2.7585,2.7585,2.7484,2.7203,2.7433,2.7265,2.6982,2.6971,2.651,2.5769,2.5453,2.4676,2.3721,2.2754,2.1969,2.1407,2.1119,2.0804,2.0699,2.0699,2.0699,2.0699,2.0699,2.0699,2.0699,2.0699,2.0699,2.0699,2.0699,2.0699,2.0699,2.0699,2.0699,2.0699,2.0699,2.0699,2.0699,2.0699,2.0699,2.0699,2.0699,2.0699,2.0699,2.0699,2.0699,2.0699,2.0699,2.0699,2.8157,2.8871,2.8757,2.94,3.0365,3.0291,3.025,3.041,3.0765,3.0736,3.0483,3.0449,3.0365,3.0091,2.9531,2.8914,2.8405,2.9218,2.9627,2.9888,3.0509,3.1062,3.1361,3.1436,3.1271,3.0972,3.0567,3.0118,2.9442,2.9337,2.8966,2.8408,2.7794,2.7824,2.8053,2.772,2.763,2.739,2.6941,2.6258,2.563,2.5143,2.5113,2.5674,2.5666,2.5884,2.6378,2.6527,2.6821,2.718,2.7465,2.7585,2.7585,2.7585,2.7345,2.6916,2.6797,2.6782,2.6946,2.7255,2.7585,2.7585,2.7585,2.7585,2.7585,2.7585,2.7585,2.7585,2.7585,2.7585,2.7509,2.756,2.756,2.7499,2.7331,2.7023,2.6095,2.5495,2.4963,2.404,2.3126,2.2465,2.193,2.1342,2.1027,2.0712,2.0699,2.0699,2.0699,2.0699,2.0699,2.0699,2.0699,2.0699,2.0699,2.0699,2.0699,2.0699,2.0699,2.0699,2.0699,2.0699,2.0699,2.0699,2.0699,2.0699,2.0699,2.0699,2.0699,2.0699,2.0699,2.0699,2.0699,2.0699,2.0699,2.9139,3.0208,2.9642,2.9833,3.0347,2.9842,2.9507,2.9582,2.9756,2.9854,3.0152,3.0395,3.0369,3.0111,2.9538,2.9224,2.9354,2.9839,3.019,3.0319,3.0943,3.1331,3.1496,3.1496,3.1451,3.1182,3.0791,2.9819,2.9146,2.8891,2.8438,2.7869,2.7735,2.7675,2.7794,2.7809,2.76,2.7495,2.6986,2.6318,2.5764,2.5531,2.5884,2.6228,2.6108,2.6168,2.6826,2.6931,2.6941,2.6931,2.7405,2.7585,2.7585,2.7585,2.7585,2.751,2.748,2.748,2.7435,2.7525,2.7585,2.7585,2.7585,2.7585,2.7585,2.7585,2.7585,2.7585,2.7585,2.7585,2.7585,2.7585,2.7585,2.7458,2.7255,2.6747,2.6014,2.5878,2.5286,2.4543,2.3702,2.3021,2.2414,2.1825,2.1263,2.0936,2.0699,2.0699,2.0699,2.0699,2.0699,2.0699,2.0699,2.0699,2.0699,2.0699,2.0699,2.0699,2.0699,2.0699,2.0699,2.0699,2.0699,2.0699,2.0699,2.0699,2.0699,2.0699,2.0699,2.0699,2.0699,2.0699,2.0699,2.0699,2.0699,2.9964,3.0464,3.0163,3.0394,3.0862,3.0572,2.9954,2.943,2.9705,2.9822,2.9794,3.0261,3.0575,3.0583,3.0364,3.0055,3.0007,3.0492,3.0638,3.0559,3.1078,3.1466,3.1496,3.1496,3.1496,3.1421,3.1122,3.0447,2.9475,2.8712,2.8263,2.769,2.7585,2.76,2.766,2.7989,2.8139,2.8004,2.7525,2.6826,2.6333,2.6243,2.6662,2.7604,2.7021,2.7315,2.7869,2.7874,2.7754,2.7769,2.8068,2.7944,2.7705,2.7585,2.7585,2.7585,2.7585,2.757,2.757,2.7585,2.7585,2.7585,2.7585,2.7585,2.7585,2.7585,2.7585,2.7585,2.7585,2.7585,2.7585,2.7585,2.7585,2.7458,2.7229,2.6852,2.6404,2.6203,2.581,2.5051,2.4283,2.3652,2.2931,2.2179,2.1538,2.0975,2.0751,2.0699,2.0699,2.0699,2.0699,2.0699,2.0699,2.0699,2.0699,2.0699,2.0699,2.0699,2.0699,2.0699,2.0699,2.0699,2.0699,2.0699,2.0699,2.0699,2.0699,2.0699,2.0699,2.0699,2.0699,2.0699,2.0699,2.0699,2.0699,3.0584,3.0748,3.0733,3.0955,3.1248,3.1085,3.023,2.9188,2.9489,2.9502,2.9574,3.0177,3.0845,3.1025,3.0969,3.0748,3.0465,3.0877,3.0757,3.0695,3.0766,3.1032,3.1107,3.1197,3.1316,3.1466,3.1152,3.0507,2.9669,2.8921,2.8263,2.763,2.7585,2.7585,2.7779,2.8158,2.8502,2.8457,2.8094,2.7525,2.6986,2.6851,2.75,2.7979,2.8128,2.8154,2.9067,2.8633,2.8263,2.8218,2.8173,2.7959,2.7675,2.7585,2.7585,2.7585,2.7585,2.7585,2.7585,2.7585,2.7585,2.7585,2.7585,2.7585,2.7585,2.7585,2.7585,2.7585,2.7585,2.7585,2.7585,2.7585,2.7585,2.7509,2.7357,2.71,2.6774,2.6443,2.6095,2.5467,2.4788,2.4292,2.3523,2.2601,2.1825,2.1119,2.0818,2.0725,2.0699,2.0699,2.0699,2.0699,2.0699,2.0699,2.0699,2.0699,2.0699,2.0699,2.0699,2.0699,2.0699,2.0699,2.0699,2.0699,2.0699,2.0699,2.0699,2.0699,2.0699,2.0699,2.0699,2.0699,2.0699,2.0699,2.0699,3.0881,3.1453,3.1409,3.1336,3.1262,3.051,2.9747,2.893,2.8513,2.8658,2.9114,3.0305,3.07,3.0597,3.0909,3.1087,3.1084,3.0609,3.0441,3.0257,3.0073,3.0238,3.0432,3.0672,3.0851,3.1152,3.0851,3.0208,2.9564,2.8891,2.8259,2.769,2.76,2.7585,2.7794,2.8218,2.8562,2.8592,2.8412,2.8094,2.7615,2.748,2.7854,2.8248,2.8064,2.7944,2.8607,2.8304,2.7959,2.7974,2.7949,2.7839,2.7675,2.76,2.7585,2.7585,2.7585,2.7585,2.7585,2.7585,2.7585,2.7585,2.7585,2.7585,2.7585,2.7585,2.7585,2.7585,2.7585,2.7585,2.7585,2.7585,2.7585,2.7534,2.7408,2.7178,2.6852,2.6496,2.6135,2.5755,2.5356,2.4929,2.4241,2.3323,2.218,2.1433,2.0818,2.0699,2.0699,2.0699,2.0699,2.0699,2.0699,2.0699,2.0699,2.0699,2.0699,2.0699,2.0699,2.0699,2.0699,2.0699,2.0699,2.0699,2.0699,2.0699,2.0699,2.0699,2.0699,2.0699,2.0699,2.0699,2.0699,2.0699,2.0699,3.1248,3.1496,3.1496,3.1409,3.1263,3.0981,3.0127,2.9144,2.8902,2.8746,2.8773,3.0043,3.0412,3.0261,3.0858,3.0903,3.0363,3.0453,3.021,2.9983,2.9771,2.9771,2.9951,2.9996,3.0088,3.0283,3.0028,2.9594,2.8981,2.8712,2.8218,2.7809,2.76,2.7585,2.7809,2.8173,2.8472,2.8562,2.8532,2.8248,2.775,2.763,2.7929,2.8487,2.8457,2.8562,2.9071,2.8992,2.8633,2.8263,2.8143,2.7929,2.766,2.76,2.7585,2.7585,2.7585,2.7585,2.7585,2.7585,2.7585,2.7585,2.7585,2.7585,2.7585,2.7585,2.7585,2.7585,2.7585,2.7585,2.7585,2.7585,2.7585,2.7534,2.7408,2.7229,2.706,2.6759,2.6575,2.6336,2.6081,2.5753,2.4957,2.4121,2.2897,2.1747,2.1157,2.0712,2.0764,2.0699,2.0699,2.0699,2.0699,2.0699,2.0699,2.0699,2.0699,2.0699,2.0699,2.0699,2.0699,2.0699,2.0699,2.0699,2.0699,2.0699,2.0699,2.0699,2.0699,2.0699,2.0699,2.0699,2.0699,2.0699,2.0699,3.1496,3.1496,3.1496,3.1424,3.1307,3.1322,3.0478,2.93,2.9235,2.8896,2.8412,2.9594,2.9879,2.9759,3.0328,3.0494,2.9849,2.9759,2.9609,2.9325,2.9067,2.9157,2.9247,2.9367,2.9457,2.9517,2.952,2.928,2.8697,2.8607,2.8214,2.7794,2.7585,2.7585,2.7705,2.8019,2.8293,2.8293,2.8274,2.8154,2.7615,2.7615,2.772,2.8244,2.8199,2.8349,2.8663,2.8618,2.8513,2.8248,2.8128,2.8019,2.7764,2.7585,2.7585,2.7585,2.7585,2.7585,2.7585,2.7585,2.7585,2.7585,2.7585,2.7585,2.7585,2.7585,2.7585,2.7585,2.7585,2.7585,2.7585,2.7585,2.7585,2.756,2.756,2.7433,2.7433,2.7265,2.7137,2.7008,2.668,2.6269,2.5598,2.4709,2.3392,2.2247,2.1511,2.1119,2.104,2.0909,2.0699,2.0699,2.0699,2.0699,2.0699,2.0699,2.0699,2.0699,2.0699,2.0699,2.0699,2.0699,2.0699,2.0699,2.0699,2.0699,2.0699,2.0699,2.0699,2.0699,2.0699,2.0699,2.0699,2.0699,2.0699,3.1496,3.1496,3.1481,3.1393,3.1247,3.1292,3.0419,2.9151,2.9099,2.861,2.7959,2.9067,2.9247,2.8921,2.9535,2.9651,2.9295,2.8951,2.8727,2.8562,2.8244,2.8214,2.8453,2.8667,2.8828,2.9442,2.9322,2.8891,2.8502,2.8427,2.8094,2.7779,2.7585,2.7585,2.7585,2.76,2.763,2.7645,2.769,2.766,2.763,2.7585,2.769,2.775,2.7794,2.7944,2.8004,2.8049,2.7959,2.7869,2.7809,2.772,2.763,2.7585,2.7585,2.7585,2.7585,2.7585,2.7585,2.7585,2.7585,2.7585,2.7585,2.7585,2.7585,2.7585,2.7585,2.7585,2.7585,2.7585,2.7585,2.7585,2.7585,2.7585,2.7585,2.7585,2.7585,2.7585,2.7433,2.7331,2.7023,2.6587,2.6042,2.5238,2.3919,2.2803,2.197,2.1577,2.1459,2.1146,2.0909,2.0699,2.0686,2.0517,2.0517,2.066,2.0699,2.0699,2.0699,2.0699,2.0699,2.0699,2.0699,2.0699,2.0699,2.0699,2.0699,2.0699,2.0699,2.0699,2.0699,2.0699,2.0699,2.0699,2.0699,3.1496,3.1451,3.1017,3.0823,3.0751,3.0766,3.0007,2.8833,2.8364,2.7953,2.7829,2.8577,2.8573,2.8423,2.8903,2.9112,2.8408,2.8712,2.8487,2.7929,2.7675,2.775,2.7904,2.8049,2.8124,2.8214,2.8259,2.8319,2.7889,2.8019,2.7914,2.763,2.7585,2.7585,2.7585,2.7585,2.76,2.76,2.76,2.76,2.7585,2.7585,2.7585,2.7585,2.7585,2.7585,2.7585,2.7585,2.7585,2.7585,2.7585,2.7585,2.7585,2.7585,2.7585,2.7585,2.7585,2.7585,2.7585,2.7585,2.7585,2.7585,2.7585,2.7585,2.7585,2.7585,2.7585,2.7585,2.7585,2.7585,2.7585,2.7585,2.7585,2.7585,2.7585,2.7585,2.7585,2.7585,2.7534,2.7509,2.7306,2.6945,2.6474,2.587,2.4682,2.3809,2.3057,2.2351,2.2087,2.1577,2.1198,2.0831,2.0646,2.0412,2.0334,2.0438,2.0555,2.0555,2.062,2.0699,2.0699,2.0699,2.0699,2.0699,2.0699,2.0699,2.0699,2.0699,2.0699,2.0699,2.0699,2.0699,2.0699,2.0699,2.0699,3.1496,3.1451,3.1046,3.0582,3.0238,3.0178,2.9564,2.8577,2.7914,2.7585,2.7705,2.8079,2.8049,2.7989,2.8334,2.8633,2.766,2.8004,2.8169,2.76,2.76,2.763,2.7615,2.7585,2.772,2.7585,2.7585,2.7615,2.766,2.7615,2.76,2.7615,2.7585,2.7585,2.7585,2.7585,2.7585,2.7585,2.7585,2.7585,2.7585,2.7585,2.7585,2.7585,2.7585,2.7585,2.7585,2.7585,2.7585,2.7585,2.7585,2.7585,2.7585,2.7585,2.7585,2.7585,2.7585,2.7585,2.7585,2.7585,2.7585,2.7585,2.7585,2.7585,2.7585,2.7585,2.7585,2.7585,2.7585,2.7585,2.7585,2.7585,2.7585,2.7585,2.7585,2.7585,2.7585,2.7585,2.7585,2.7585,2.7534,2.7203,2.6867,2.631,2.552,2.4847,2.4161,2.3484,2.2745,2.2152,2.1668,2.1354,2.0962,2.0752,2.0491,2.0242,2.0321,2.0373,2.0425,2.0478,2.0699,2.0699,2.0699,2.0686,2.0673,2.0673,2.0686,2.0699,2.0725,2.0725,2.0699,2.0699,2.0699,2.0699,2.0699,3.1496,3.1496,3.1481,3.0746,2.9759,2.9624,2.9146,2.8502,2.7884,2.7585,2.7615,2.7645,2.7645,2.7615,2.769,2.7675,2.763,2.7675,2.766,2.763,2.7585,2.7585,2.7585,2.7585,2.7585,2.7585,2.7585,2.7585,2.7585,2.7585,2.7585,2.7585,2.7585,2.7585,2.7585,2.7585,2.7585,2.7585,2.7585,2.7585,2.7585,2.7585,2.7585,2.7585,2.7585,2.7585,2.7585,2.7585,2.7585,2.7585,2.7585,2.7585,2.7585,2.7585,2.7585,2.7585,2.7585,2.7585,2.7585,2.7585,2.7585,2.7585,2.7585,2.7585,2.7585,2.7585,2.7585,2.7585,2.7585,2.7585,2.7585,2.7585,2.7585,2.7585,2.7585,2.7585,2.7585,2.7585,2.7585,2.7585,2.7585,2.7357,2.7008,2.6537,2.6136,2.5726,2.508,2.4531,2.3755,2.2796,2.2363,2.2087,2.1681,2.1237,2.0883,2.0425,2.0321,2.0451,2.0137,2.0137,2.0386,2.0725,2.0699,2.0686,2.066,2.0699,2.0883,2.087,2.0804,2.083,2.1119,2.0843,2.0882,2.0725,2.0699,3.1496,3.1451,3.1001,3.0567,3.0148,2.9265,2.8502,2.7884,2.7645,2.7585,2.7585,2.7585,2.7585,2.7585,2.76,2.7585,2.7585,2.7585,2.76,2.7585,2.7585,2.7585,2.7585,2.7585,2.7585,2.7585,2.7585,2.7585,2.7585,2.7585,2.7585,2.7585,2.7585,2.7585,2.7585,2.7585,2.7585,2.7585,2.7585,2.7585,2.7585,2.7585,2.7585,2.7585,2.7585,2.7585,2.7585,2.7585,2.7585,2.7585,2.7585,2.7585,2.7585,2.7585,2.7585,2.7585,2.7585,2.7585,2.7585,2.7585,2.7585,2.7585,2.7585,2.7585,2.7585,2.7585,2.7585,2.7585,2.7585,2.7585,2.7585,2.7585,2.7585,2.7585,2.7585,2.7585,2.7585,2.7585,2.7585,2.7585,2.7585,2.7534,2.7188,2.6904,2.6537,2.631,2.5972,2.5438,2.4805,2.3863,2.3198,2.2933,2.2457,2.2023,2.1197,2.0648,2.0556,2.0465,2.0281,2.0218,2.0635,2.0895,2.0764,2.066,2.0581,2.0857,2.1237,2.1171,2.0988,2.1642,2.1943,2.1446,2.1027,2.1001,2.0779,3.1496,3.1436,3.1062,3.0761,3.0357,2.9415,2.8633,2.8034,2.7705,2.7585,2.7585,2.7585,2.7585,2.7585,2.7585,2.7585,2.7585,2.7585,2.7585,2.7585,2.7585,2.7585,2.7585,2.7585,2.7585,2.7585,2.7585,2.7585,2.7585,2.7585,2.7585,2.7585,2.7585,2.7585,2.7585,2.7585,2.7585,2.7585,2.7585,2.7585,2.7585,2.7585,2.7585,2.7585,2.7585,2.7585,2.7585,2.7585,2.7585,2.7585,2.7585,2.7585,2.7585,2.7585,2.7585,2.7585,2.7585,2.7585,2.7585,2.7585,2.7585,2.7585,2.7585,2.7585,2.7585,2.7585,2.7585,2.7585,2.7585,2.7585,2.7585,2.7585,2.7585,2.7585,2.7585,2.7585,2.7585,2.7585,2.7585,2.7585,2.7585,2.7585,2.7408,2.7163,2.7008,2.6904,2.6642,2.6228,2.5725,2.5107,2.4422,2.3969,2.3391,2.2804,2.1943,2.1183,2.104,2.1014,2.091,2.0923,2.1132,2.1119,2.1066,2.0779,2.0465,2.0923,2.1472,2.1328,2.1289,2.2034,2.2544,2.2126,2.176,2.1695,2.1328,3.1496,3.1496,3.1496,3.1062,3.0462,2.9879,2.928,2.8622,2.8019,2.7645,2.7615,2.7585,2.7585,2.7585,2.7585,2.7585,2.7585,2.7585,2.7585,2.7585,2.7585,2.7585,2.7585,2.7585,2.7585,2.7585,2.7585,2.7585,2.7585,2.7585,2.7585,2.7585,2.7585,2.7585,2.7585,2.7585,2.7585,2.7585,2.7585,2.7585,2.7585,2.7585,2.7585,2.7585,2.7585,2.7585,2.7585,2.7585,2.7585,2.7585,2.7585,2.7585,2.7585,2.7585,2.7585,2.7585,2.7585,2.7585,2.7585,2.7585,2.7585,2.7585,2.7585,2.7585,2.7585,2.7585,2.7585,2.7585,2.7585,2.7585,2.7585,2.7585,2.7585,2.7585,2.7585,2.7585,2.7585,2.7585,2.7585,2.7585,2.7585,2.7585,2.756,2.7331,2.7306,2.7357,2.7229,2.6841,2.6546,2.6089,2.5547,2.4901,2.4067,2.3379,2.2831,2.2128,2.1695,2.1551,2.1498,2.159,2.176,2.1629,2.1394,2.1237,2.1066,2.1289,2.1603,2.1603,2.1877,2.2557,2.2898,2.2689,2.2519,2.2439,2.189,3.1496,3.1496,3.1496,3.1107,3.0522,3.0357,2.9939,2.931,2.8663,2.8068,2.7675,2.76,2.7585,2.7585,2.7585,2.7585,2.7585,2.7585,2.7585,2.7585,2.7585,2.7585,2.7585,2.7585,2.7585,2.7585,2.7585,2.7585,2.7585,2.7585,2.7585,2.7585,2.7585,2.7585,2.7585,2.7585,2.7585,2.7585,2.7585,2.7585,2.7585,2.7585,2.7585,2.7585,2.7585,2.7585,2.7585,2.7585,2.7585,2.7585,2.7585,2.7585,2.7585,2.7585,2.7585,2.7585,2.7585,2.7585,2.7585,2.7585,2.7585,2.7585,2.7585,2.7585,2.7585,2.7585,2.7585,2.7585,2.7585,2.7585,2.7585,2.7585,2.7585,2.7585,2.7585,2.7585,2.7585,2.7585,2.7585,2.7585,2.7585,2.7585,2.7585,2.7585,2.7585,2.7575,2.7549,2.7357,2.7276,2.6946,2.6354,2.5679,2.4559,2.3865,2.3487,2.315,2.2736,2.2298,2.2127,2.2245,2.2388,2.2244,2.2047,2.1904,2.1825,2.1943,2.2073,2.227,2.2637,2.3199,2.3406,2.3289,2.3367,2.3354,2.2596,3.1496,3.1496,3.1496,3.1286,3.0957,3.0928,3.0597,2.9953,2.931,2.8678,2.8049,2.7764,2.7585,2.7585,2.7585,2.7585,2.7585,2.7585,2.7585,2.7585,2.7585,2.7585,2.7585,2.7585,2.7585,2.7585,2.7585,2.7585,2.7585,2.7585,2.7585,2.7615,2.7615,2.763,2.763,2.7615,2.763,2.7585,2.7615,2.7585,2.7585,2.7585,2.7585,2.7585,2.7585,2.7585,2.7585,2.7585,2.7585,2.7585,2.7585,2.7585,2.7585,2.7585,2.7585,2.7585,2.7585,2.7585,2.7585,2.7585,2.7585,2.7585,2.7585,2.7585,2.7585,2.7585,2.7585,2.7585,2.7585,2.7585,2.7585,2.7585,2.7585,2.7585,2.7585,2.7585,2.7585,2.7585,2.7585,2.7585,2.7585,2.7585,2.7585,2.7585,2.7585,2.7585,2.76,2.76,2.7555,2.7495,2.7008,2.6535,2.5507,2.4941,2.4778,2.4354,2.3861,2.3402,2.2907,2.2929,2.3032,2.2859,2.2701,2.2465,2.2361,2.2426,2.257,2.2767,2.3145,2.3668,2.389,2.3995,2.4021,2.3835,2.3197,3.1496,3.1496,3.1496,3.1496,3.1496,3.1481,3.1152,3.0567,2.9891,2.925,2.8637,2.7929,2.7645,2.7585,2.7585,2.7585,2.7585,2.7585,2.7585,2.7585,2.7585,2.7585,2.7585,2.7585,2.7585,2.7585,2.7585,2.7585,2.7585,2.76,2.763,2.7675,2.775,2.7794,2.7794,2.7764,2.7824,2.7794,2.7764,2.7615,2.7585,2.7585,2.7585,2.7585,2.7585,2.7585,2.7585,2.7585,2.7585,2.7585,2.7585,2.7585,2.7585,2.7585,2.7585,2.7585,2.7585,2.7585,2.7585,2.7585,2.7585,2.7585,2.7585,2.7585,2.7585,2.7585,2.7585,2.7585,2.7585,2.7585,2.7585,2.7585,2.7585,2.7585,2.7585,2.7585,2.7585,2.7585,2.7585,2.7585,2.7585,2.7585,2.7585,2.7585,2.7585,2.7585,2.7585,2.7585,2.757,2.748,2.7219,2.71,2.6662,2.6258,2.5943,2.5356,2.4736,2.45,2.4037,2.3838,2.3638,2.3505,2.328,2.2951,2.2885,2.3014,2.3054,2.3171,2.3642,2.3864,2.3576,2.3446,2.3459,2.3313,2.342,3.1496,3.1496,3.1496,3.1496,3.1496,3.1496,3.1421,3.1122,3.0088,2.9505,2.9112,2.8154,2.7585,2.7585,2.7585,2.7585,2.7585,2.7585,2.7585,2.7585,2.7585,2.7585,2.7585,2.7585,2.7585,2.7585,2.7585,2.7585,2.766,2.766,2.7869,2.8218,2.8382,2.8592,2.9007,2.8757,2.8278,2.8158,2.7809,2.7585,2.7585,2.7585,2.7585,2.7585,2.7585,2.7585,2.7585,2.7585,2.7585,2.7585,2.7585,2.7585,2.7585,2.7585,2.7585,2.7585,2.7585,2.7585,2.7585,2.7585,2.7585,2.7585,2.7585,2.7585,2.7585,2.7585,2.7585,2.7585,2.7585,2.7585,2.7585,2.7585,2.7585,2.7585,2.7585,2.7585,2.7585,2.7585,2.7585,2.7585,2.7585,2.7585,2.7585,2.7585,2.7585,2.7585,2.7585,2.757,2.7435,2.739,2.7375,2.7345,2.7318,2.7126,2.6628,2.6013,2.548,2.5315,2.5105,2.4745,2.441,2.4142,2.3887,2.3474,2.3524,2.372,2.3717,2.3339,2.3248,2.3315,2.2872,2.2663,2.2727,2.2792,2.2818]}]]